[[{"header":{"parameterUnit":"m.s-1","parameterCategory":1,"la1":31.0,"la2":29.5877,"lo1":-88.7671,"lo2":-86.6584,"dy":0.0162,"dx":0.0185,"nx":115,"ny":88,"refTime":"2023-06-13T06:00:00:Z","depth":0,"parameterNumber":2,"parameterNumberName":"U-component_of_WINDS"},"data":[0.0,0.0,0.0,0.0,0.0,0.0,0.0,0.0,0.0,0.0,0.0,0.0,0.0,0.0,0.0,0.0,0.0,0.0,0.0,0.0,0.0,0.0,0.0,0.0,0.0,0.0,0.0,0.0,0.0,0.0,0.0,0.0,0.0,0.0,0.0,0.0,0.0,0.0,0.0,0.0,0.0,0.0,0.0,0.0,0.0,0.0,0.0,0.0,0.0,0.0,0.0,0.0,0.0,0.0,0.0,0.0,0.0,0.0,0.0,0.0,0.0,0.0,0.0,0.0,0.0,0.0,0.0,0.0,0.0,0.0,0.0,0.0,0.0,0.0,0.0,0.0,0.0,0.0,0.0,0.0,0.0,0.0,0.0,0.0,0.0,0.0,0.0,0.0,0.0,0.0,0.0,0.0,0.0,0.0,0.0,0.0,0.0,0.0,0.0,0.0,0.0,0.0,0.0,0.0,0.0,0.0,0.0,0.0,0.0,0.0,0.0,0.0,0.0,0.0,0.0,0.0,0.0,0.0,0.0,0.0,0.0,0.0,0.0,0.0,0.0,0.0,0.0,0.0,0.0,0.0,0.0,0.0,0.0,0.0,0.0,0.0,0.0,0.0,0.0,0.0,0.0,0.0,0.0,0.0,0.0,0.0,0.0,0.0,0.0,0.0,0.0,0.0,0.0,0.0,0.0,0.0,0.0,0.0,0.0,0.0,0.0,0.0,0.0,0.0,0.0,0.0,0.0,0.0,0.0,0.0,0.0,0.0,0.0,0.0,0.0,0.0,0.0,0.0,0.0,0.0,0.0,0.0,0.0,0.0,0.0,0.0,0.0,0.0,0.0,0.0,0.0,0.0,0.0,0.0,0.0,0.0,0.0,0.0,0.0,0.0,0.0,0.0,0.0,0.0,0.0,0.0,0.0,0.0,0.0,0.0,0.0,0.0,0.0,0.0,0.0,0.0,0.0,0.0,0.0,0.0,0.0,0.0,0.0,0.0,0.0,0.0,0.0,0.0,0.0,0.0,0.0,0.0,0.0,0.0,0.0,0.0,0.0,0.0,0.0,0.0,0.0,0.0,0.0,0.0,0.0,0.0,0.0,0.0,0.0,0.0,0.0,0.0,0.0,0.0,0.0,0.0,0.0,0.0,0.0,0.0,0.0,0.0,0.0,0.0,0.0,0.0,0.0,0.0,0.0,0.0,0.0,0.0,0.0,0.0,0.0,0.0,0.0,0.0,0.0,0.0,0.0,0.0,0.0,0.0,0.0,0.0,0.0,0.0,0.0,0.0,0.0,0.0,0.0,0.0,0.0,0.0,0.0,0.0,0.0,0.0,0.0,0.0,0.0,0.0,0.0,0.0,0.0,0.0,0.0,0.0,0.0,0.0,0.0,0.0,0.0,0.0,0.0,0.0,0.0,0.0,0.0,0.0,0.0,0.0,0.0,0.0,0.0,0.0,0.0,0.0,0.0,0.0,0.0,0.0,0.0,0.0,0.0,0.0,0.0,0.0,0.0,0.0,0.0,0.0,0.0,0.0,0.0,0.0,0.0,0.0,0.0,0.0,0.0,0.0,0.0,0.0,0.0,0.0,0.0,0.0,0.0,0.0,0.0,0.0,0.0,0.0,0.0,0.0,0.0,0.0,0.0,0.0,0.0,0.0,0.0,0.0,0.0,0.0,0.0,0.0,0.0,0.0,0.0,0.0,0.0,0.0,0.0,0.0,0.0,0.0,0.0,0.0,0.0,0.0,0.0,0.0,0.0,0.0,0.0,0.0,0.0,0.0,0.0,0.0,0.0,0.0,0.0,0.0,0.0,0.0,0.0,0.0,0.0,0.0,0.0,0.0,0.0,0.0,0.0,0.0,0.0,0.0,0.0,0.0,0.0,0.0,0.0,0.0,0.0,0.0,0.0,0.0,0.0,0.0,0.0,0.0,0.0,0.0,0.0,0.0,0.0,0.0,0.0,0.0,0.0,0.0,0.0,0.0,0.0,0.0,0.0,0.0,0.0,0.0,0.0,0.0,0.0,0.0,0.0,0.0,0.0,0.0,0.0,0.0,0.0,0.0,0.0,0.0,0.0,0.0,0.0,0.0,0.0,0.0,0.0,0.0,0.0,0.0,0.0,0.0,0.0,0.0,0.0,0.0,0.0,0.0,0.0,0.0,0.0,0.0,0.0,0.0,0.0,0.0,0.0,0.0,0.0,0.0,0.0,0.0,0.0,0.0,0.0,0.0,0.0,0.0,0.0,0.0,0.0,0.0,0.0,0.0,0.0,0.0,0.0,0.0,0.0,0.0,0.0,0.0,0.0,0.0,0.0,0.0,0.0,0.0,0.0,0.0,0.0,0.0,0.0,0.0,0.0,0.0,0.0,0.0,0.0,0.0,0.0,0.0,0.0,0.0,0.0,0.0,0.0,0.0,0.0,0.0,0.0,0.0,0.0,0.0,0.0,0.0,0.0,0.0,0.0,0.0,0.0,0.0,0.0,0.0,0.0,0.0,0.0,0.0,0.0,0.0,0.0,0.0,0.0,0.0,0.0,0.0,0.0,0.0,0.0,0.0,0.0,0.0,0.0,0.0,0.0,0.0,0.0,0.0,0.0,0.0,0.0,0.0,0.0,0.0,0.0,0.0,0.0,0.0,0.0,0.0,0.0,0.0,0.0,0.0,0.0,0.0,0.0,0.0,0.0,0.0,0.0,0.0,0.0,0.0,0.0,0.0,0.0,0.0,0.0,0.0,0.0,0.0,0.0,0.0,0.0,0.0,0.0,0.0,0.0,0.0,0.0,0.0,0.0,0.0,0.0,0.0,0.0,0.0,0.0,0.0,0.0,0.0,0.0,0.0,0.0,0.0,0.0,0.0,0.0,0.0,0.0,0.0,0.0,0.0,0.0,0.0,0.0,0.0,0.0,0.0,0.0,0.0,0.0,0.0,0.0,0.0,0.0,0.0,0.0,0.0,0.0,0.0,0.0,0.0,0.0,0.0,0.0,0.0,0.0,0.0,0.0,0.0,0.0,0.0,0.0,0.0,0.0,0.0,0.0,0.0,0.0,0.0,0.0,0.0,0.0,0.0,0.0,0.0,0.0,0.0,0.0,0.0,0.0,0.0,0.0,0.0,0.0,0.0,0.0,0.0,0.0,0.0,0.0,0.0,0.0,0.0,0.0,0.0,0.0,0.0,0.0,0.0,0.0,0.0,0.0,0.0,0.0,0.0,0.0,0.0,0.0,0.0,0.0,0.0,0.0,0.0,0.0,0.0,0.0,0.0,0.0,0.0,0.0,0.0,0.0,0.0,0.0,0.0,0.0,0.0,0.0,0.0,0.0,0.0,0.0,0.0,0.0,0.0,0.0,0.0,0.0,0.0,0.0,0.0,0.0,0.0,0.0,0.0,0.0,0.0,0.0,0.0,0.0,0.0,0.0,0.0,0.0,0.0,0.0,0.0,0.0,0.0,0.0,0.0,0.0,0.0,0.0,0.0,0.0,0.0,0.0,0.0,0.0,0.0,0.0,0.0,0.0,0.0,0.0,0.0,0.0,0.0,0.0,0.0,0.0,0.0,0.0,0.0,0.0,0.0,0.0,0.0,0.0,0.0,0.0,0.0,0.0,0.0,0.0,0.0,0.0,0.0,0.0,0.0,0.0,0.0,0.0,0.0,0.0,0.0,0.0,0.0,0.0,0.0,0.0,0.0,0.0,0.0,0.0,0.0,0.0,0.0,0.0,0.0,0.0,0.0,0.0,0.0,0.0,0.0,0.0,0.0,0.0,0.0,0.0,0.0,0.0,0.0,0.0,0.0,0.0,0.0,0.0,0.0,0.0,0.0,0.0,0.0,0.0,0.0,0.0,0.0,0.0,0.0,0.0,0.0,0.0,0.0,0.0,0.0,0.0,0.0,0.0,0.0,0.0,0.0,0.0,0.0,0.0,0.0,0.0,0.0,0.0,0.0,0.0,0.0,0.0,0.0,0.0,0.0,0.0,0.0,0.0,0.0,0.0,0.0,0.0,0.0,0.0,0.0,0.0,0.0,0.0,0.0,0.0,0.0,0.0,0.0,0.0,0.0,0.0,0.0,0.0,0.0,0.0,0.0,0.0,0.0,0.0,0.0,0.0,0.0,0.0,0.0,0.0,0.0,0.0,0.0,0.0,0.0,0.0,0.0,0.0,0.0,0.0,0.0,0.0,0.0,0.0,0.0,0.0,0.0,0.0,0.0,0.0,0.0,0.0,0.0,0.0,0.0,0.0,0.0,0.0,0.0,0.0,0.0,0.0,0.0,-2.0085,0.0,0.0,0.0,0.0,0.0,0.0,0.0,0.0,0.0,0.0,0.0,0.0,0.0,0.0,0.0,0.0,0.0,0.0,0.0,0.0,0.0,0.0,0.0,0.0,0.0,0.0,0.0,0.0,0.0,0.0,0.0,0.0,0.0,0.0,0.0,0.0,0.0,0.0,0.0,0.0,0.0,0.0,0.0,0.0,0.0,0.0,0.0,0.0,0.0,0.0,0.0,0.0,0.0,0.0,0.0,0.0,0.0,0.0,0.0,0.0,0.0,0.0,0.0,0.0,0.0,0.0,0.0,0.0,0.0,0.0,0.0,0.0,0.0,0.0,0.0,0.0,0.0,0.0,0.0,0.0,0.0,0.0,0.0,0.0,0.0,0.0,0.0,0.0,0.0,0.0,0.0,0.0,0.0,0.0,0.0,0.0,0.0,0.0,0.0,0.0,0.0,0.0,0.0,0.0,0.0,0.0,0.0,0.0,0.0,0.0,-1.9517,-1.9746,-2.0009,-2.0085,-2.0085,0.0,0.0,0.0,0.0,0.0,0.0,0.0,0.0,0.0,0.0,0.0,0.0,0.0,0.0,0.0,0.0,0.0,0.0,0.0,0.0,0.0,0.0,0.0,0.0,0.0,0.0,0.0,0.0,0.0,0.0,0.0,0.0,0.0,0.0,0.0,0.0,0.0,0.0,0.0,0.0,0.0,0.0,0.0,0.0,0.0,0.0,0.0,0.0,0.0,0.0,0.0,0.0,0.0,0.0,0.0,0.0,0.0,0.0,0.0,0.0,0.0,0.0,0.0,0.0,0.0,0.0,0.0,0.0,0.0,0.0,0.0,0.0,0.0,0.0,0.0,0.0,0.0,0.0,0.0,0.0,0.0,0.0,0.0,0.0,0.0,0.0,0.0,0.0,0.0,0.0,0.0,0.0,0.0,0.0,0.0,0.0,0.0,0.0,0.0,0.0,0.0,0.0,0.0,0.0,0.0,0.0,0.0,0.0,0.0,0.0,0.0,0.0,-1.9606,-1.9759,-1.9823,0.0,0.0,0.0,0.0,0.0,0.0,0.0,0.0,0.0,0.0,0.0,0.0,0.0,0.0,0.0,0.0,0.0,0.0,0.0,0.0,0.0,0.0,0.0,0.0,0.0,0.0,0.0,0.0,0.0,0.0,0.0,0.0,0.0,0.0,0.0,0.0,0.0,0.0,0.0,0.0,0.0,0.0,0.0,0.0,0.0,0.0,0.0,0.0,0.0,0.0,0.0,0.0,0.0,0.0,0.0,0.0,0.0,0.0,0.0,0.0,0.0,0.0,0.0,0.0,0.0,0.0,0.0,0.0,0.0,0.0,0.0,0.0,0.0,0.0,0.0,0.0,0.0,0.0,0.0,0.0,0.0,0.0,0.0,0.0,0.0,0.0,0.0,0.0,0.0,0.0,0.0,0.0,0.0,0.0,0.0,0.0,0.0,0.0,0.0,0.0,0.0,0.0,0.0,0.0,0.0,0.0,0.0,0.0,0.0,0.0,-1.8534,-1.9375,-1.9037,0.0,-1.8851,0.0,0.0,0.0,0.0,0.0,0.0,0.0,0.0,0.0,0.0,0.0,0.0,0.0,0.0,0.0,0.0,0.0,0.0,0.0,0.0,0.0,0.0,0.0,0.0,0.0,0.0,0.0,0.0,0.0,0.0,0.0,0.0,0.0,0.0,0.0,0.0,0.0,0.0,0.0,0.0,0.0,0.0,0.0,0.0,0.0,0.0,0.0,0.0,0.0,0.0,0.0,0.0,0.0,0.0,0.0,0.0,0.0,0.0,0.0,0.0,0.0,0.0,0.0,0.0,0.0,0.0,0.0,0.0,0.0,0.0,0.0,0.0,0.0,0.0,0.0,0.0,0.0,0.0,0.0,0.0,0.0,0.0,0.0,0.0,0.0,0.0,0.0,0.0,0.0,0.0,0.0,0.0,0.0,0.0,0.0,0.0,0.0,0.0,0.0,0.0,0.0,0.0,0.0,0.0,0.0,0.0,0.0,0.0,0.0,0.0,-1.8196,-1.8578,-1.8654,-1.8698,0.0,0.0,0.0,0.0,0.0,0.0,0.0,0.0,0.0,0.0,0.0,0.0,0.0,0.0,0.0,0.0,0.0,0.0,0.0,0.0,0.0,0.0,0.0,0.0,0.0,0.0,0.0,0.0,0.0,0.0,0.0,0.0,0.0,0.0,0.0,0.0,0.0,0.0,0.0,0.0,0.0,0.0,0.0,0.0,0.0,0.0,0.0,0.0,0.0,0.0,0.0,0.0,0.0,0.0,0.0,0.0,0.0,0.0,0.0,0.0,0.0,0.0,0.0,0.0,0.0,0.0,0.0,0.0,0.0,0.0,0.0,0.0,0.0,0.0,0.0,0.0,0.0,0.0,0.0,0.0,0.0,0.0,0.0,0.0,0.0,0.0,0.0,0.0,0.0,0.0,0.0,0.0,0.0,0.0,0.0,0.0,0.0,0.0,0.0,0.0,0.0,0.0,0.0,0.0,0.0,0.0,0.0,0.0,0.0,0.0,-1.7628,-1.7813,-1.7835,-1.8381,-1.8567,-1.8316,0.0,0.0,0.0,0.0,0.0,0.0,0.0,0.0,0.0,0.0,0.0,0.0,0.0,0.0,0.0,0.0,0.0,0.0,0.0,0.0,0.0,0.0,0.0,0.0,0.0,0.0,0.0,0.0,0.0,0.0,0.0,0.0,0.0,0.0,0.0,0.0,0.0,0.0,0.0,0.0,0.0,0.0,0.0,0.0,0.0,0.0,0.0,0.0,0.0,0.0,0.0,0.0,0.0,0.0,0.0,0.0,0.0,0.0,0.0,0.0,0.0,0.0,0.0,0.0,0.0,0.0,0.0,0.0,0.0,0.0,0.0,0.0,0.0,0.0,0.0,0.0,0.0,0.0,0.0,0.0,0.0,0.0,0.0,0.0,0.0,0.0,0.0,0.0,0.0,0.0,0.0,0.0,0.0,0.0,0.0,0.0,0.0,0.0,0.0,0.0,0.0,0.0,0.0,0.0,0.0,0.0,0.0,0.0,-1.7278,-1.7311,-1.7322,-1.7344,-1.8206,-1.8261,0.0,0.0,0.0,0.0,0.0,0.0,0.0,0.0,0.0,0.0,0.0,0.0,0.0,0.0,0.0,0.0,0.0,0.0,0.0,0.0,0.0,0.0,0.0,0.0,0.0,0.0,0.0,0.0,0.0,0.0,0.0,0.0,0.0,0.0,0.0,0.0,0.0,0.0,0.0,0.0,0.0,0.0,0.0,0.0,0.0,0.0,0.0,0.0,0.0,0.0,0.0,0.0,0.0,0.0,0.0,0.0,0.0,0.0,0.0,0.0,0.0,0.0,0.0,0.0,0.0,0.0,0.0,0.0,0.0,0.0,0.0,0.0,0.0,0.0,0.0,0.0,0.0,0.0,0.0,0.0,0.0,0.0,0.0,0.0,0.0,0.0,0.0,0.0,0.0,0.0,0.0,0.0,0.0,0.0,0.0,0.0,0.0,0.0,0.0,0.0,0.0,0.0,0.0,0.0,0.0,0.0,0.0,0.0,0.0,-1.7278,-1.7278,-1.7278,-1.7289,-1.7606,-1.7617,0.0,0.0,0.0,0.0,0.0,0.0,0.0,0.0,0.0,0.0,0.0,0.0,0.0,0.0,0.0,0.0,0.0,0.0,0.0,0.0,0.0,0.0,0.0,0.0,0.0,0.0,0.0,0.0,0.0,0.0,0.0,0.0,0.0,0.0,0.0,0.0,0.0,0.0,0.0,0.0,0.0,0.0,0.0,0.0,0.0,0.0,0.0,0.0,0.0,0.0,0.0,0.0,0.0,0.0,0.0,0.0,0.0,0.0,0.0,0.0,0.0,0.0,0.0,0.0,0.0,0.0,0.0,0.0,0.0,0.0,0.0,0.0,0.0,0.0,0.0,0.0,0.0,0.0,0.0,0.0,0.0,0.0,0.0,0.0,0.0,0.0,0.0,0.0,0.0,0.0,0.0,0.0,0.0,0.0,0.0,0.0,0.0,0.0,0.0,0.0,0.0,0.0,0.0,0.0,0.0,0.0,0.0,0.0,0.0,-1.7278,0.0,-1.7278,-1.7278,-1.7278,-1.7278,0.0,0.0,0.0,0.0,0.0,0.0,0.0,0.0,0.0,0.0,0.0,0.0,0.0,0.0,0.0,0.0,0.0,0.0,0.0,0.0,0.0,0.0,0.0,0.0,0.0,0.0,0.0,0.0,0.0,0.0,0.0,0.0,0.0,0.0,0.0,0.0,0.0,0.0,0.0,0.0,0.0,0.0,0.0,0.0,0.0,0.0,0.0,0.0,0.0,0.0,0.0,0.0,0.0,0.0,0.0,0.0,0.0,0.0,0.0,0.0,0.0,0.0,0.0,0.0,0.0,0.0,0.0,0.0,0.0,0.0,0.0,0.0,0.0,0.0,0.0,0.0,0.0,0.0,0.0,0.0,0.0,0.0,0.0,0.0,0.0,0.0,0.0,0.0,0.0,0.0,0.0,0.0,0.0,0.0,0.0,0.0,0.0,0.0,0.0,0.0,0.0,0.0,0.0,0.0,0.0,0.0,0.0,0.0,-1.6818,-1.7278,-1.7278,-1.7278,-1.7278,-1.7278,-1.7278,0.0,0.0,0.0,0.0,0.0,0.0,0.0,0.0,0.0,0.0,0.0,0.0,0.0,0.0,0.0,0.0,0.0,0.0,0.0,0.0,0.0,0.0,0.0,0.0,0.0,0.0,0.0,0.0,0.0,0.0,0.0,0.0,0.0,0.0,0.0,0.0,0.0,0.0,0.0,0.0,0.0,0.0,0.0,0.0,0.0,0.0,0.0,0.0,0.0,0.0,0.0,0.0,0.0,0.0,0.0,0.0,0.0,0.0,0.0,0.0,0.0,0.0,0.0,0.0,0.0,0.0,0.0,0.0,0.0,0.0,0.0,0.0,0.0,0.0,0.0,0.0,0.0,0.0,0.0,0.0,0.0,0.0,0.0,0.0,0.0,0.0,0.0,0.0,0.0,0.0,0.0,0.0,0.0,0.0,0.0,0.0,0.0,0.0,0.0,0.0,0.0,0.0,0.0,0.0,0.0,0.0,0.0,0.0,0.0,-1.7289,-1.7278,-1.7278,-1.7278,-1.7278,-1.7479,0.0,0.0,0.0,0.0,0.0,0.0,0.0,0.0,0.0,0.0,0.0,0.0,0.0,0.0,0.0,0.0,0.0,0.0,0.0,0.0,0.0,0.0,0.0,0.0,0.0,0.0,0.0,0.0,0.0,0.0,0.0,0.0,0.0,0.0,0.0,0.0,0.0,0.0,0.0,0.0,0.0,0.0,0.0,0.0,0.0,0.0,0.0,0.0,0.0,0.0,0.0,0.0,0.0,0.0,0.0,0.0,0.0,0.0,0.0,0.0,0.0,0.0,0.0,0.0,0.0,0.0,0.0,0.0,0.0,0.0,0.0,0.0,0.0,0.0,0.0,0.0,0.0,0.0,0.0,0.0,0.0,0.0,0.0,0.0,0.0,0.0,0.0,0.0,0.0,0.0,0.0,0.0,0.0,0.0,0.0,0.0,0.0,0.0,0.0,0.0,0.0,0.0,0.0,0.0,0.0,0.0,0.0,0.0,0.0,-1.8348,-1.8163,-1.7988,-1.7813,-1.7977,-1.8178,-1.8403,0.0,0.0,0.0,0.0,0.0,0.0,0.0,0.0,0.0,0.0,0.0,0.0,0.0,0.0,0.0,0.0,0.0,0.0,0.0,0.0,0.0,0.0,0.0,0.0,0.0,0.0,0.0,0.0,0.0,0.0,0.0,0.0,0.0,0.0,0.0,0.0,0.0,0.0,0.0,0.0,0.0,0.0,0.0,0.0,0.0,0.0,0.0,0.0,0.0,0.0,0.0,0.0,0.0,0.0,0.0,0.0,0.0,0.0,0.0,0.0,0.0,0.0,0.0,0.0,0.0,0.0,0.0,0.0,0.0,0.0,0.0,0.0,0.0,0.0,0.0,0.0,0.0,0.0,0.0,0.0,0.0,0.0,0.0,0.0,0.0,0.0,0.0,0.0,0.0,0.0,0.0,0.0,0.0,0.0,0.0,0.0,0.0,0.0,0.0,0.0,0.0,0.0,0.0,0.0,0.0,0.0,0.0,0.0,-2.0216,-1.9909,-1.9544,-1.9006,-1.9357,-1.9454,0.0,0.0,0.0,0.0,0.0,0.0,0.0,0.0,0.0,0.0,0.0,0.0,0.0,0.0,0.0,0.0,0.0,0.0,0.0,0.0,0.0,0.0,0.0,0.0,0.0,0.0,0.0,0.0,0.0,0.0,0.0,0.0,0.0,0.0,0.0,0.0,0.0,0.0,0.0,0.0,0.0,0.0,0.0,0.0,0.0,0.0,0.0,0.0,0.0,0.0,0.0,0.0,0.0,0.0,0.0,0.0,0.0,0.0,0.0,0.0,0.0,0.0,0.0,0.0,0.0,0.0,0.0,0.0,0.0,0.0,0.0,0.0,0.0,0.0,0.0,0.0,0.0,0.0,0.0,0.0,0.0,0.0,0.0,0.0,0.0,0.0,0.0,0.0,0.0,0.0,0.0,0.0,0.0,0.0,0.0,0.0,0.0,0.0,0.0,0.0,0.0,0.0,0.0,0.0,0.0,0.0,0.0,0.0,0.0,-2.2115,-2.3675,-2.3593,-2.1815,-2.1694,-2.1777,0.0,0.0,0.0,0.0,0.0,0.0,0.0,0.0,0.0,0.0,0.0,0.0,0.0,0.0,0.0,0.0,0.0,0.0,0.0,0.0,0.0,0.0,0.0,0.0,0.0,0.0,0.0,0.0,0.0,0.0,0.0,0.0,0.0,0.0,0.0,0.0,0.0,0.0,0.0,0.0,0.0,0.0,0.0,0.0,0.0,0.0,0.0,0.0,0.0,0.0,0.0,0.0,0.0,0.0,0.0,0.0,0.0,0.0,0.0,0.0,0.0,0.0,0.0,0.0,0.0,0.0,0.0,0.0,0.0,0.0,0.0,0.0,0.0,0.0,0.0,0.0,0.0,0.0,0.0,0.0,0.0,0.0,0.0,0.0,0.0,0.0,0.0,0.0,0.0,0.0,0.0,0.0,0.0,0.0,0.0,0.0,0.0,0.0,0.0,0.0,0.0,0.0,0.0,0.0,0.0,0.0,0.0,0.0,-2.2548,-2.3398,-2.591,-2.6685,-2.5697,-2.4159,-2.3415,0.0,0.0,0.0,0.0,0.0,0.0,0.0,0.0,0.0,0.0,0.0,0.0,0.0,0.0,0.0,0.0,0.0,0.0,0.0,0.0,0.0,0.0,0.0,0.0,0.0,0.0,0.0,0.0,0.0,0.0,0.0,0.0,0.0,0.0,0.0,0.0,0.0,0.0,0.0,0.0,0.0,0.0,0.0,0.0,0.0,0.0,0.0,0.0,0.0,0.0,0.0,0.0,0.0,0.0,0.0,0.0,0.0,0.0,0.0,0.0,0.0,0.0,0.0,0.0,0.0,0.0,0.0,0.0,0.0,0.0,0.0,0.0,0.0,0.0,0.0,0.0,0.0,0.0,0.0,0.0,0.0,0.0,0.0,0.0,0.0,0.0,0.0,0.0,0.0,0.0,0.0,0.0,0.0,0.0,0.0,0.0,0.0,0.0,0.0,0.0,0.0,0.0,0.0,0.0,0.0,0.0,0.0,0.0,-2.3273,-2.4594,-2.7239,-2.9057,-2.9718,-2.6667,-2.476,0.0,0.0,0.0,0.0,0.0,0.0,0.0,0.0,0.0,0.0,0.0,0.0,0.0,0.0,0.0,0.0,0.0,0.0,0.0,0.0,0.0,0.0,0.0,0.0,0.0,0.0,0.0,0.0,0.0,0.0,0.0,0.0,0.0,0.0,0.0,0.0,0.0,0.0,0.0,0.0,0.0,0.0,0.0,0.0,0.0,0.0,0.0,0.0,0.0,0.0,0.0,0.0,0.0,0.0,0.0,0.0,0.0,0.0,0.0,0.0,0.0,0.0,0.0,0.0,0.0,0.0,0.0,0.0,0.0,0.0,0.0,0.0,0.0,0.0,0.0,0.0,0.0,0.0,0.0,0.0,0.0,0.0,0.0,0.0,0.0,0.0,0.0,0.0,0.0,0.0,0.0,0.0,0.0,0.0,0.0,0.0,0.0,0.0,0.0,0.0,0.0,0.0,0.0,0.0,0.0,0.0,0.0,0.0,-2.5362,-2.644,-2.9026,-3.0495,-3.0735,-2.826,-2.6824,0.0,0.0,0.0,0.0,0.0,0.0,0.0,0.0,0.0,0.0,0.0,0.0,0.0,0.0,0.0,0.0,0.0,0.0,0.0,0.0,0.0,0.0,0.0,0.0,0.0,0.0,0.0,0.0,0.0,0.0,0.0,0.0,0.0,0.0,0.0,0.0,0.0,0.0,0.0,0.0,0.0,0.0,0.0,0.0,0.0,0.0,0.0,0.0,-2.5842,0.0,0.0,0.0,0.0,0.0,0.0,0.0,0.0,0.0,0.0,0.0,0.0,0.0,0.0,0.0,0.0,0.0,0.0,0.0,0.0,0.0,0.0,0.0,0.0,0.0,0.0,0.0,0.0,0.0,0.0,0.0,0.0,0.0,0.0,0.0,0.0,0.0,0.0,0.0,0.0,0.0,0.0,0.0,0.0,0.0,0.0,0.0,0.0,0.0,0.0,0.0,0.0,0.0,0.0,0.0,0.0,0.0,0.0,0.0,-2.5648,-2.7001,-2.9214,-3.0583,-3.0921,-2.9274,-2.8098,0.0,0.0,0.0,0.0,0.0,0.0,0.0,0.0,0.0,0.0,0.0,0.0,0.0,0.0,0.0,0.0,0.0,0.0,0.0,0.0,0.0,0.0,0.0,0.0,0.0,0.0,0.0,0.0,0.0,0.0,0.0,0.0,0.0,0.0,0.0,0.0,0.0,0.0,0.0,0.0,0.0,0.0,0.0,0.0,0.0,0.0,0.0,0.0,0.0,0.0,0.0,0.0,0.0,0.0,0.0,0.0,0.0,0.0,0.0,0.0,0.0,0.0,0.0,0.0,0.0,0.0,0.0,0.0,0.0,0.0,0.0,0.0,0.0,0.0,0.0,0.0,0.0,0.0,0.0,0.0,0.0,0.0,0.0,0.0,0.0,0.0,0.0,0.0,0.0,0.0,0.0,0.0,0.0,0.0,0.0,0.0,0.0,0.0,0.0,0.0,0.0,0.0,0.0,0.0,0.0,0.0,0.0,-2.3718,-2.5514,-2.7393,-2.9074,-3.0254,-3.096,-2.9876,-2.8726,-2.7562,0.0,0.0,0.0,0.0,0.0,0.0,0.0,0.0,0.0,0.0,0.0,0.0,0.0,0.0,0.0,0.0,0.0,0.0,0.0,0.0,0.0,0.0,0.0,0.0,0.0,0.0,0.0,0.0,0.0,0.0,0.0,0.0,0.0,0.0,0.0,0.0,0.0,0.0,-2.324,-2.3384,0.0,0.0,0.0,0.0,0.0,0.0,0.0,0.0,-2.469,0.0,0.0,0.0,0.0,0.0,0.0,0.0,0.0,0.0,0.0,0.0,0.0,0.0,0.0,0.0,0.0,0.0,0.0,0.0,0.0,0.0,0.0,0.0,0.0,0.0,0.0,0.0,0.0,0.0,0.0,0.0,0.0,0.0,0.0,0.0,0.0,0.0,0.0,0.0,0.0,0.0,0.0,0.0,0.0,0.0,0.0,0.0,0.0,0.0,0.0,0.0,0.0,0.0,0.0,0.0,0.0,-2.3796,-2.5402,-2.7167,-2.9212,-3.0253,-3.0836,-3.0947,-2.9876,-2.8726,-2.7562,0.0,0.0,0.0,0.0,0.0,0.0,0.0,0.0,0.0,0.0,0.0,0.0,0.0,0.0,0.0,0.0,0.0,0.0,0.0,0.0,0.0,0.0,0.0,0.0,0.0,0.0,0.0,0.0,0.0,0.0,0.0,0.0,0.0,0.0,0.0,0.0,0.0,0.0,0.0,-2.374,-2.3662,0.0,0.0,0.0,0.0,0.0,0.0,0.0,0.0,-2.5166,0.0,0.0,0.0,0.0,0.0,0.0,0.0,0.0,0.0,0.0,0.0,0.0,0.0,0.0,0.0,0.0,0.0,0.0,0.0,0.0,0.0,0.0,0.0,0.0,0.0,0.0,0.0,0.0,0.0,0.0,0.0,0.0,0.0,0.0,0.0,0.0,0.0,0.0,0.0,0.0,0.0,0.0,0.0,0.0,0.0,0.0,0.0,0.0,0.0,0.0,0.0,0.0,0.0,0.0,0.0,-2.394,-2.5745,-2.7533,-2.9499,-3.0508,-3.0986,-3.096,-2.9876,-2.8726,0.0,0.0,0.0,0.0,0.0,0.0,0.0,0.0,0.0,0.0,0.0,0.0,0.0,0.0,0.0,0.0,0.0,0.0,0.0,0.0,0.0,0.0,0.0,0.0,0.0,0.0,0.0,0.0,0.0,0.0,0.0,0.0,0.0,0.0,0.0,0.0,0.0,0.0,0.0,0.0,-2.4356,-2.4469,-2.5828,0.0,0.0,0.0,0.0,0.0,0.0,-2.564,-2.5371,0.0,0.0,0.0,0.0,0.0,0.0,0.0,0.0,0.0,0.0,0.0,0.0,0.0,0.0,0.0,0.0,0.0,0.0,0.0,0.0,0.0,0.0,0.0,0.0,0.0,0.0,0.0,0.0,0.0,0.0,0.0,0.0,0.0,0.0,0.0,0.0,0.0,0.0,0.0,0.0,0.0,0.0,0.0,0.0,0.0,0.0,0.0,0.0,0.0,0.0,0.0,0.0,0.0,0.0,0.0,-2.407,-2.6113,-2.8,-2.9666,-3.0583,-3.0986,-3.096,-2.964,-2.849,0.0,0.0,0.0,0.0,0.0,0.0,0.0,0.0,0.0,0.0,0.0,0.0,0.0,0.0,0.0,0.0,0.0,0.0,0.0,0.0,0.0,0.0,0.0,0.0,0.0,0.0,0.0,0.0,0.0,0.0,0.0,0.0,0.0,0.0,0.0,0.0,0.0,0.0,0.0,0.0,0.0,-2.5517,-2.6782,-2.6125,0.0,0.0,0.0,0.0,-2.5923,-2.6141,0.0,0.0,0.0,0.0,0.0,0.0,0.0,0.0,0.0,0.0,0.0,0.0,0.0,0.0,0.0,0.0,0.0,0.0,0.0,0.0,0.0,0.0,0.0,0.0,0.0,0.0,0.0,0.0,0.0,0.0,0.0,0.0,0.0,0.0,0.0,0.0,0.0,0.0,0.0,0.0,0.0,0.0,0.0,0.0,0.0,0.0,0.0,0.0,0.0,0.0,0.0,0.0,0.0,0.0,0.0,0.0,-2.5417,-2.7603,-2.94,-3.0758,-3.0898,-3.0986,-3.096,-2.8869,-2.768,0.0,0.0,0.0,0.0,0.0,0.0,0.0,0.0,0.0,0.0,0.0,0.0,0.0,0.0,0.0,0.0,0.0,0.0,0.0,0.0,0.0,0.0,0.0,0.0,0.0,0.0,0.0,0.0,0.0,0.0,0.0,0.0,0.0,0.0,0.0,0.0,0.0,0.0,0.0,0.0,0.0,-2.6394,-2.7713,-2.6956,-2.6285,0.0,0.0,-2.748,-2.7259,-2.8369,0.0,0.0,0.0,0.0,0.0,0.0,0.0,0.0,0.0,0.0,0.0,0.0,0.0,0.0,0.0,0.0,0.0,0.0,0.0,0.0,0.0,0.0,0.0,0.0,0.0,0.0,0.0,0.0,0.0,0.0,0.0,0.0,0.0,0.0,0.0,0.0,0.0,0.0,0.0,0.0,0.0,0.0,0.0,0.0,0.0,0.0,0.0,0.0,0.0,0.0,0.0,0.0,0.0,0.0,0.0,-2.341,-2.5099,-2.7211,-2.9062,-3.057,-3.0911,-3.0986,-3.0973,-2.8739,-2.7469,0.0,0.0,0.0,0.0,0.0,0.0,0.0,0.0,0.0,0.0,0.0,0.0,0.0,0.0,0.0,0.0,0.0,0.0,0.0,0.0,0.0,0.0,0.0,0.0,0.0,0.0,0.0,0.0,0.0,0.0,0.0,0.0,0.0,0.0,0.0,0.0,0.0,0.0,0.0,0.0,0.0,0.0,-2.7026,-2.6677,0.0,0.0,0.0,-2.7695,-2.696,0.0,0.0,0.0,0.0,0.0,0.0,0.0,0.0,0.0,0.0,0.0,0.0,0.0,0.0,0.0,0.0,0.0,0.0,0.0,0.0,0.0,0.0,0.0,0.0,0.0,0.0,0.0,0.0,0.0,0.0,0.0,0.0,0.0,0.0,0.0,0.0,0.0,0.0,0.0,0.0,0.0,0.0,0.0,0.0,0.0,0.0,0.0,0.0,0.0,0.0,0.0,0.0,0.0,0.0,0.0,0.0,0.0,-2.4826,-2.6961,-2.8821,-3.0355,-3.0672,-3.0911,-3.0872,-2.8956,0.0,0.0,0.0,0.0,0.0,0.0,0.0,0.0,0.0,0.0,0.0,0.0,0.0,0.0,0.0,0.0,0.0,0.0,0.0,0.0,0.0,0.0,0.0,0.0,0.0,0.0,0.0,-2.3477,0.0,0.0,0.0,0.0,0.0,0.0,0.0,0.0,0.0,0.0,0.0,0.0,0.0,0.0,-2.6359,-2.6396,-2.6323,-2.648,0.0,0.0,-2.7448,-2.6809,-2.875,-2.9334,0.0,0.0,0.0,0.0,0.0,0.0,0.0,0.0,0.0,0.0,0.0,0.0,0.0,0.0,0.0,0.0,0.0,0.0,0.0,0.0,0.0,0.0,0.0,0.0,0.0,0.0,0.0,0.0,0.0,0.0,0.0,0.0,0.0,0.0,0.0,0.0,0.0,0.0,0.0,0.0,0.0,0.0,0.0,0.0,0.0,0.0,0.0,0.0,0.0,0.0,0.0,0.0,0.0,0.0,-2.3936,-2.5301,-2.7557,-2.9263,-3.0368,-3.0444,-3.0533,-3.0672,-2.9533,-2.8438,0.0,0.0,0.0,0.0,0.0,0.0,0.0,0.0,0.0,0.0,0.0,0.0,0.0,0.0,0.0,0.0,0.0,0.0,0.0,0.0,0.0,0.0,0.0,0.0,0.0,0.0,0.0,0.0,0.0,0.0,0.0,0.0,0.0,0.0,0.0,0.0,0.0,0.0,0.0,0.0,0.0,-2.689,-2.6629,-2.6391,-2.6783,0.0,-2.7387,-2.6747,-2.7801,-2.9339,-2.9374,-2.6112,0.0,0.0,0.0,0.0,0.0,0.0,0.0,0.0,0.0,0.0,0.0,0.0,0.0,0.0,0.0,0.0,0.0,0.0,0.0,0.0,0.0,0.0,0.0,0.0,0.0,0.0,0.0,0.0,0.0,0.0,0.0,0.0,0.0,0.0,0.0,0.0,0.0,0.0,0.0,0.0,0.0,0.0,0.0,0.0,0.0,0.0,0.0,0.0,0.0,0.0,0.0,0.0,0.0,-2.3276,-2.5052,-2.7138,-2.8912,-3.0368,-3.0685,-3.0836,-3.0911,-2.9671,-2.8459,0.0,0.0,0.0,0.0,0.0,0.0,0.0,0.0,0.0,0.0,0.0,0.0,0.0,0.0,0.0,0.0,0.0,0.0,0.0,0.0,0.0,0.0,0.0,0.0,0.0,0.0,0.0,0.0,-2.6251,-2.6239,-2.5234,0.0,0.0,0.0,0.0,0.0,0.0,0.0,0.0,0.0,0.0,-2.5789,-2.6794,-2.6769,0.0,0.0,-2.7813,-2.7528,-2.7041,-2.8292,-2.8162,-2.4877,-2.438,0.0,0.0,0.0,0.0,0.0,0.0,0.0,0.0,0.0,0.0,0.0,0.0,0.0,0.0,0.0,0.0,0.0,0.0,0.0,0.0,0.0,0.0,0.0,0.0,0.0,0.0,0.0,-1.9285,0.0,0.0,0.0,0.0,0.0,0.0,0.0,0.0,0.0,0.0,0.0,0.0,0.0,0.0,0.0,0.0,0.0,0.0,0.0,0.0,0.0,0.0,0.0,0.0,-2.2756,-2.4455,-2.6496,-2.8347,-2.9896,-3.0444,-3.0748,-3.081,-2.9921,-2.8892,0.0,0.0,0.0,0.0,0.0,0.0,0.0,0.0,0.0,0.0,0.0,0.0,0.0,0.0,0.0,0.0,0.0,0.0,0.0,0.0,0.0,0.0,0.0,0.0,0.0,0.0,0.0,0.0,-2.605,-2.575,-2.4566,0.0,0.0,0.0,0.0,0.0,0.0,0.0,0.0,0.0,0.0,-2.5229,-2.5997,-2.5917,-2.6001,-2.6523,-2.6598,-2.6313,-2.565,-2.6382,-2.6177,-2.3891,0.0,0.0,0.0,0.0,0.0,0.0,0.0,0.0,0.0,0.0,0.0,0.0,0.0,0.0,0.0,0.0,0.0,0.0,0.0,0.0,0.0,0.0,0.0,0.0,0.0,0.0,0.0,-1.9295,0.0,0.0,-1.9173,0.0,0.0,0.0,0.0,0.0,0.0,0.0,0.0,0.0,0.0,0.0,0.0,0.0,0.0,0.0,0.0,0.0,0.0,0.0,0.0,0.0,0.0,-2.2542,-2.3457,-2.5893,-2.7718,-2.8803,-2.9677,-3.0241,-3.0457,-3.0343,-2.9792,-2.8554,0.0,0.0,0.0,0.0,0.0,0.0,0.0,0.0,0.0,0.0,0.0,0.0,0.0,0.0,0.0,0.0,0.0,0.0,0.0,0.0,0.0,0.0,0.0,0.0,0.0,0.0,-2.2549,-2.314,-2.3677,0.0,0.0,0.0,0.0,0.0,0.0,0.0,0.0,0.0,-2.2291,-2.4465,-2.5466,-2.3868,-2.3528,-2.3763,-2.4335,-2.308,-2.2467,-2.3705,-2.3737,-2.3486,0.0,0.0,0.0,0.0,0.0,0.0,0.0,0.0,0.0,0.0,0.0,0.0,0.0,0.0,0.0,0.0,0.0,0.0,0.0,0.0,0.0,0.0,0.0,0.0,0.0,0.0,0.0,-2.074,-2.0969,0.0,0.0,0.0,0.0,0.0,0.0,0.0,0.0,0.0,0.0,0.0,-2.2252,-2.2263,0.0,0.0,0.0,0.0,0.0,0.0,0.0,0.0,0.0,0.0,0.0,0.0,-2.2402,-2.3449,-2.605,-2.8044,-2.9278,-3.036,-3.0854,-3.0919,-3.0777,-2.9923,-2.828,0.0,0.0,0.0,0.0,0.0,0.0,0.0,0.0,0.0,0.0,0.0,0.0,0.0,0.0,0.0,0.0,0.0,0.0,0.0,0.0,0.0,0.0,0.0,0.0,0.0,-2.4425,0.0,0.0,0.0,0.0,0.0,0.0,0.0,0.0,0.0,0.0,-2.1525,-2.203,-2.2745,-2.2793,-2.2951,-2.3471,-2.3454,-2.3882,0.0,0.0,0.0,0.0,0.0,0.0,0.0,0.0,0.0,0.0,0.0,0.0,0.0,0.0,-2.1003,-2.1039,-2.1155,-2.1269,-2.1473,0.0,0.0,0.0,0.0,0.0,0.0,0.0,0.0,0.0,0.0,0.0,0.0,0.0,0.0,-2.1865,-2.1838,-2.2149,0.0,0.0,0.0,0.0,0.0,0.0,0.0,0.0,-2.2936,-2.3381,-2.366,-2.366,-2.366,-2.3639,-2.3339,-2.2263,0.0,0.0,0.0,0.0,0.0,0.0,0.0,0.0,-2.2661,-2.3416,-2.6013,-2.8066,-2.9402,-3.0419,-3.1073,-3.1337,-3.1191,-3.0438,-2.9026,-2.7908,-2.6904,0.0,0.0,0.0,0.0,0.0,0.0,0.0,0.0,0.0,0.0,0.0,0.0,0.0,0.0,0.0,0.0,0.0,0.0,0.0,0.0,0.0,0.0,0.0,-2.3549,0.0,0.0,0.0,0.0,0.0,0.0,0.0,0.0,0.0,-2.0855,-2.13,-2.1932,-2.2832,-2.2584,-2.2475,-2.2872,0.0,0.0,0.0,0.0,0.0,0.0,0.0,-2.0741,-2.0327,-2.0524,-2.1031,-2.1921,-2.2563,-2.2855,-2.2433,0.0,0.0,-2.1411,-2.1189,-2.1067,-2.1146,-2.0128,-1.9241,-1.9472,-1.9068,-1.8526,0.0,0.0,0.0,0.0,-1.8397,0.0,0.0,0.0,-2.2284,-2.2161,0.0,-2.2936,0.0,0.0,0.0,0.0,-2.1973,-2.2811,0.0,0.0,-2.5026,-2.543,-2.4674,-2.4643,-2.4633,-2.4571,-2.3784,-2.336,-2.3308,-2.3318,-2.2791,0.0,0.0,0.0,0.0,0.0,-2.3205,-2.3358,-2.5894,-2.7798,-2.8935,-2.9785,-3.0728,-3.1599,-3.148,-3.1135,-3.062,-2.9578,-2.8737,-2.816,-2.6628,0.0,0.0,0.0,0.0,0.0,0.0,0.0,0.0,0.0,0.0,0.0,0.0,0.0,0.0,0.0,0.0,0.0,0.0,0.0,0.0,-2.1907,0.0,0.0,0.0,0.0,0.0,0.0,0.0,0.0,0.0,-2.1,-2.0617,-2.1642,-2.247,-2.247,0.0,0.0,0.0,0.0,-2.2736,-2.1177,-2.0404,-2.0174,-2.0257,-2.0398,-2.1,-2.2273,0.0,0.0,-2.3908,-2.3225,-2.2351,-2.1277,-2.2294,-2.2748,-2.14,-2.0798,-2.0369,-2.0033,-1.9439,-1.8936,-1.8859,-1.8333,-1.7559,-2.082,0.0,0.0,0.0,0.0,-2.1351,-2.2428,-2.3761,-2.4482,-2.4779,-2.4726,-2.4985,0.0,0.0,0.0,0.0,0.0,0.0,-2.4498,-2.5119,-2.5647,-2.6092,-2.6486,-2.6486,-2.6486,-2.6465,-2.6216,-2.6092,-2.6092,-2.6092,-2.4643,-2.1838,0.0,0.0,0.0,0.0,-2.3505,-2.4178,-2.6151,-2.7524,-2.8311,-2.9171,-3.0052,-3.1028,-3.1257,-3.1311,-3.1173,-3.0846,-3.0256,-2.934,-2.885,0.0,0.0,0.0,0.0,0.0,0.0,0.0,0.0,0.0,0.0,0.0,0.0,0.0,0.0,0.0,0.0,0.0,0.0,0.0,-2.1815,-2.1739,-2.1408,0.0,0.0,0.0,0.0,0.0,0.0,0.0,0.0,0.0,-2.1921,-2.1952,-2.2004,0.0,0.0,-2.1414,-2.0886,-2.16,-2.2434,-2.2901,-2.259,0.0,-2.3525,-2.2946,-2.2532,-2.2936,-2.4022,-2.484,-2.484,-2.4785,-2.469,-2.4375,-2.31,-2.1857,-2.132,-2.1126,-2.0867,-2.0622,-1.9828,-1.9205,-1.9205,-1.891,-1.8708,-2.289,-2.2297,-2.0405,-2.0785,-2.2616,-2.2896,-2.3929,-2.5568,-2.6136,-2.6227,-2.5916,-2.6258,-2.573,-2.455,-2.455,0.0,0.0,0.0,-2.5564,-2.6423,-2.6423,-2.6724,-2.7241,-2.7272,-2.7272,-2.7272,-2.7272,-2.7272,-2.7241,-2.6889,-2.5616,-2.3474,0.0,-2.2687,-2.2915,-2.3795,-2.4529,-2.5088,-2.6489,-2.7549,-2.8276,-2.9521,-3.0508,-3.1057,-3.1709,-3.1951,-3.1725,-3.1712,-3.1323,-3.047,-3.0231,-2.9402,0.0,0.0,0.0,0.0,0.0,0.0,0.0,0.0,0.0,0.0,0.0,-2.2643,-2.2491,0.0,0.0,0.0,-2.2451,-2.2034,-2.1624,-2.1523,0.0,0.0,0.0,0.0,0.0,0.0,0.0,-2.0772,-2.1921,-2.277,-2.277,-2.2687,-2.2687,-2.2863,-2.2397,-2.1994,-2.1818,0.0,-2.3401,-2.4053,-2.3753,-2.3753,-2.455,-2.4157,-2.3836,-2.4198,-2.4912,-2.5461,-2.5513,-2.5488,-2.5208,-2.4532,-2.2983,-2.1454,-2.0761,-2.0546,-2.0381,-1.9938,-1.9498,-1.9184,-1.9081,-1.9184,-1.9308,-2.5185,-2.406,-2.0744,-2.1357,-2.437,-2.3551,-2.4762,-2.7146,-2.7262,-2.6786,-2.6072,-2.6879,-2.633,-2.4767,-2.4747,0.0,-2.5989,-2.5989,-2.6444,-2.7262,-2.7272,-2.7272,-2.7272,-2.7272,-2.7272,-2.7272,-2.7272,-2.7272,-2.722,-2.6413,-2.5947,-2.5885,-2.5885,-2.543,-2.4633,-2.5347,-2.5813,-2.5885,-2.6703,-2.7641,-2.8538,-3.0453,-3.1359,-3.1347,-3.2438,-3.2719,-3.2134,-3.2109,-3.1955,-3.1455,-3.0898,-3.0294,-2.9671,0.0,0.0,0.0,0.0,0.0,0.0,0.0,0.0,0.0,0.0,0.0,0.0,0.0,0.0,0.0,-2.1932,0.0,-2.2025,-2.1631,0.0,0.0,0.0,-2.2263,-2.3101,-2.3246,-2.3267,-2.3205,0.0,0.0,-2.336,-2.3753,-2.4219,-2.4695,-2.4633,-2.4395,-2.3981,-2.4633,-2.513,-2.4736,-2.4395,-2.4178,-2.4467,-2.4643,-2.499,-2.5591,-2.5888,-2.5828,-2.5655,-2.5115,-2.4316,-2.3187,-2.2136,-2.1119,-1.9834,-1.9479,-1.9016,-1.8537,-1.8613,-1.8847,-1.8884,-1.9089,-1.9352,-2.5841,-2.6116,-2.4601,-2.4008,-2.4291,-2.4794,-2.5411,-2.6177,-2.6955,-2.7138,-2.6941,-2.7169,-2.7024,-2.661,-2.661,-2.6724,-2.6931,-2.6931,-2.7044,-2.7262,-2.7272,-2.7272,-2.7272,-2.7272,-2.7272,-2.7272,-2.7272,-2.7272,-2.7251,-2.7044,-2.6579,-2.5916,-2.5885,-2.543,-2.4495,-2.4757,-2.5192,-2.5875,-2.6092,-2.664,-2.76,-2.8806,-2.9349,-2.9349,-3.108,-3.1928,-3.1794,-3.1707,-3.1634,-3.1525,-3.0759,-2.9839,-2.8829,-2.7719,0.0,0.0,0.0,0.0,0.0,0.0,0.0,0.0,0.0,-2.2396,-2.2263,0.0,-2.1795,0.0,-2.3381,-2.3888,-2.3898,-2.3795,0.0,0.0,-2.2925,-2.2946,-2.3163,-2.3805,-2.396,-2.3267,-2.4095,-2.4747,-2.4747,-2.513,-2.5699,-2.6465,-2.542,-2.4498,-2.4416,-2.515,-2.5689,-2.5627,-2.603,-2.6455,-2.6382,-2.6537,-2.6361,-2.5829,-2.5763,-2.5467,-2.4668,-2.369,-2.2871,-2.2338,-2.1094,-2.0031,-1.9423,-1.8903,-1.8525,-1.8372,-1.8752,-1.9162,-1.9162,-1.922,-1.9301,-2.7176,-2.7683,-2.7065,-2.6579,-2.6141,-2.625,-2.6567,-2.706,-2.7657,-2.7862,-2.7862,-2.7862,-2.7862,-2.7862,-2.7862,-2.7862,-2.7872,-2.7862,-2.7862,-2.7862,-2.7862,-2.7862,-2.7862,-2.7862,-2.7862,-2.7852,-2.7645,-2.7552,-2.7541,-2.7355,-2.7003,-2.6496,-2.6486,-2.603,-2.5161,-2.4736,-2.4788,-2.5285,-2.5678,-2.633,-2.7305,-2.8175,-2.8528,-2.8192,-2.9581,-3.017,-2.9721,-2.9709,-2.9697,-2.9697,-2.9258,-2.866,-2.8,-2.7105,-2.6063,0.0,0.0,0.0,0.0,0.0,0.0,0.0,0.0,0.0,0.0,0.0,-2.2574,-2.2963,-2.3867,-2.4374,-2.3971,-2.4126,-2.4209,-2.4105,-2.4271,-2.455,-2.4954,-2.544,-2.5554,-2.5057,-2.5298,-2.5574,-2.6053,-2.5972,-2.5997,-2.6512,-2.5792,-2.5402,-2.5733,-2.6196,-2.6496,-2.6517,-2.6931,-2.7272,-2.7272,-2.687,-2.638,-2.579,-2.5294,-2.4786,-2.4187,-2.3103,-2.2198,-2.187,-2.0632,-1.9623,-1.9301,-1.8971,-1.8745,-1.8782,-1.9023,-1.9191,-1.9089,-1.9177,-1.9308,-2.8794,-2.8794,-2.8783,-2.8794,-2.8693,-2.7762,-2.7793,-2.8618,-2.8618,-2.8618,-2.8618,-2.8618,-2.8618,-2.8618,-2.8618,-2.8618,-2.8618,-2.8618,-2.8618,-2.8618,-2.8618,-2.8618,-2.8618,-2.8618,-2.8618,-2.8597,-2.8204,-2.8007,-2.7997,-2.7624,-2.7365,-2.7272,-2.7272,-2.6796,-2.5885,-2.5099,-2.4567,-2.456,-2.542,-2.6268,-2.7055,-2.7782,-2.7778,-2.7074,-2.7944,-2.8046,-2.729,-2.7232,-2.7232,-2.7232,-2.708,-2.7056,-2.7147,-2.6234,-2.5352,0.0,-2.3808,0.0,0.0,0.0,0.0,0.0,0.0,0.0,0.0,-2.336,-2.3412,-2.3525,-2.426,-2.4436,-2.3774,-2.4074,-2.4654,-2.5482,-2.5916,-2.6486,-2.7314,-2.7438,-2.7438,-2.7236,-2.6443,-2.6152,-2.6724,-2.6142,-2.5654,-2.5624,-2.5807,-2.6103,-2.6794,-2.682,-2.684,-2.7033,-2.7043,-2.6855,-2.6814,-2.6142,-2.5498,-2.5283,-2.4529,-2.38,-2.3493,-2.2593,-2.1794,-2.1387,-2.0475,-1.9665,-1.9383,-1.9264,-1.9257,-1.9228,-1.9257,-1.9191,-1.8986,-1.9096,-1.936,-2.9735,-2.9735,-2.9735,-2.9735,-2.9735,-2.9517,-2.9096,-2.8618,-2.8618,-2.8618,-2.8618,-2.8618,-2.8618,-2.8618,-2.8618,-2.8618,-2.8618,-2.8618,-2.8618,-2.8618,-2.8618,-2.8618,-2.8618,-2.8618,-2.8618,-2.8607,-2.8524,-2.8483,-2.8483,-2.84,-2.7986,-2.7282,-2.7272,-2.6796,-2.5916,0.0,0.0,0.0,-2.542,-2.5958,-2.6103,-2.5586,-2.5225,-2.5058,-2.604,0.0,-2.6268,-2.6257,-2.6246,-2.6257,-2.5516,0.0,0.0,0.0,0.0,0.0,0.0,0.0,0.0,0.0,0.0,0.0,-2.4178,-2.4105,-2.4271,-2.4281,-2.4581,-2.5295,-2.5533,-2.5865,-2.6434,-2.6568,-2.6837,-2.7345,-2.7479,-2.7759,-2.8286,-2.8349,-2.8051,-2.7122,-2.68,-2.6396,-2.5665,-2.5284,-2.5172,-2.5135,-2.5245,-2.5358,-2.5489,-2.5554,-2.5572,-2.5479,-2.5618,-2.5572,-2.5489,-2.52,-2.4482,-2.3737,-2.3195,-2.2451,-2.1554,-2.1146,-2.0617,-2.0212,-1.9887,-1.9591,-1.939,-1.9272,-1.9272,-1.9272,-1.9272,-1.9257,-1.9199,-1.9228,-1.9294,-3.0677,-3.0677,-3.0677,-3.0677,0.0,-3.0677,-3.0419,-2.9953,-2.9487,-2.929,-2.9301,-2.9301,-2.929,-2.929,-2.929,-2.929,-2.929,-2.929,-2.9301,-2.929,-2.929,-2.9301,-2.929,-2.929,-2.929,-2.928,-2.9063,-2.8959,-2.8938,-2.8721,-2.838,-2.7924,-2.7924,-2.7686,-2.7241,-2.7231,-2.6786,-2.5896,-2.6113,-2.6434,-2.6837,-2.6237,-2.5668,-2.5223,-2.5707,0.0,0.0,0.0,0.0,0.0,0.0,0.0,0.0,-2.4788,-2.4747,-2.5171,-2.5016,-2.5078,-2.5513,-2.5751,-2.6082,-2.6517,-2.6558,-2.6258,-2.5606,-2.6154,-2.6744,-2.7179,-2.7231,-2.7417,-2.7862,-2.7924,-2.8017,-2.8235,-2.8266,-2.8161,-2.7834,-2.7774,-2.7268,-2.6237,-2.5609,-2.5194,-2.509,-2.4682,-2.4377,-2.4386,-2.4545,-2.4447,-2.4003,-2.4588,-2.509,-2.509,-2.509,-2.509,-2.4977,-2.4539,-2.3973,-2.3314,-2.257,-2.1748,-2.1118,-2.0695,-2.0491,-2.0151,-1.9933,-1.9724,-1.9604,-1.9396,-1.9272,-1.9272,-1.9272,-1.9272,-1.9272,-1.9272,-1.933,-3.1381,-3.1381,-3.1381,-3.1381,-3.1381,-3.1381,-3.1381,-3.1329,-3.0563,0.0,0.0,-3.0243,-3.0243,-3.0232,-3.0243,-3.0243,-3.0243,-3.0232,-3.0232,-3.0232,-3.016,-3.0118,-3.0118,-3.0025,-2.9994,-2.9973,-2.9611,-2.9425,-2.9415,-2.9042,-2.8866,-2.8856,-2.8856,-2.8856,-2.8856,-2.8866,-2.8493,-2.7759,-2.7055,-2.7055,-2.7769,-2.7293,-2.6651,-2.5896,-2.5885,-2.5533,-2.4809,-2.4778,-2.4778,-2.4778,-2.4778,-2.485,-2.5006,-2.5016,-2.5099,-2.5264,-2.5606,-2.6154,-2.6879,-2.7282,-2.7821,-2.8566,-2.869,-2.8224,-2.7013,-2.7955,-2.8618,-2.8618,-2.8618,-2.8607,-2.8618,-2.8607,-2.8649,-2.8721,-2.8742,-2.8339,-2.727,-2.7178,-2.672,-2.539,-2.4517,-2.4196,-2.4827,-2.4141,-2.3626,-2.366,-2.3754,-2.367,-2.2978,-2.3852,-2.4536,-2.4544,-2.4473,-2.4615,-2.458,-2.3989,-2.3432,-2.321,-2.2296,-2.1518,-2.131,-2.0985,-2.0659,-2.0498,-2.0111,-1.9986,-1.9828,-1.9659,-1.9455,-1.9447,-1.9447,-1.9447,-1.944,-1.9447,-1.9535,-3.1391,-3.1381,-3.1381,-3.1381,-3.1381,-3.1381,-3.1381,-3.136,-3.1236,-3.1184,-3.1184,-3.1174,-3.1184,-3.1184,-3.1174,-3.1174,-3.1184,-3.1184,-3.1184,-3.1153,-3.077,-3.0584,-3.0574,-3.018,-2.9994,-2.9994,-2.9932,-2.9901,-2.9891,-2.9829,-2.9808,-2.9798,-2.9798,-2.9787,-2.9808,-2.9798,-2.9735,-2.958,-2.7997,-2.722,-2.7324,-2.6517,-2.602,-2.5896,-2.5906,-2.5834,-2.5699,-2.5699,-2.5699,-2.5689,-2.5689,-2.6041,-2.6817,-2.6858,-2.7231,-2.7966,-2.81,-2.8193,-2.8307,-2.839,-2.8473,-2.8618,-2.898,-2.8949,-2.839,-2.8493,-2.8618,-2.8628,-2.869,-2.8618,-2.8618,-2.868,-2.8776,-2.9075,-2.9218,-2.8818,-2.7998,-2.7835,-2.7201,-2.5421,-2.519,-2.4729,-2.4351,-2.3877,-2.3594,-2.348,-2.3537,-2.3183,-2.3071,-2.3119,-2.331,-2.3302,-2.3302,-2.331,-2.3419,-2.3019,-2.2654,-2.2292,-2.1845,-2.1387,-2.0959,-2.0749,-2.0632,-2.0369,-2.0223,-2.0172,-2.0164,-2.0142,-2.0047,-2.0033,-2.0025,-2.004,-2.0025,-2.0047,-2.0025,-3.2106,-3.2116,-3.2116,-3.2106,-3.2116,-3.2106,-3.2116,-3.2116,-3.2106,-3.1826,-3.1391,-3.1381,-3.1381,-3.1381,-3.1381,-3.1381,-3.1381,-3.1381,-3.1381,-3.136,-3.1164,-3.106,-3.104,-3.0833,-3.075,-3.0729,-3.0481,-3.0367,-3.0356,-3.0118,-2.9994,-2.9994,-2.9994,-2.9994,-2.9994,-2.9994,-2.9994,-2.9973,-2.8918,-2.8369,-2.8359,-2.7717,-2.7355,-2.7355,-2.7365,-2.7365,-2.7355,-2.7365,-2.7365,-2.7355,-2.7365,-2.7552,-2.7966,-2.7997,-2.8183,-2.8597,-2.8845,-2.899,-2.899,-2.9228,-2.9477,-2.9715,-2.9932,-2.9751,-2.9116,-2.9442,-2.9746,-2.9746,-2.9953,-3.0108,-3.0108,-2.9454,-2.909,-2.9387,-2.8751,-2.7948,-2.7105,-2.6918,-2.6326,-2.4911,-2.4606,-2.4555,-2.414,-2.392,-2.3816,-2.38,-2.3649,-2.357,-2.3562,-2.357,-2.3427,-2.3109,-2.3014,-2.3014,-2.3014,-2.2783,-2.256,-2.2328,-2.1869,-2.1547,-2.1205,-2.1093,-2.0869,-2.075,-2.0625,-2.0508,-2.0494,-2.0347,-2.0267,-2.0237,-2.0237,-2.0237,-2.0252,-2.0369,-2.0435,-3.2727,-3.2727,-3.2727,-3.2727,-3.2727,-3.2727,-3.2727,-3.2727,-3.2716,-3.2333,-3.1743,-3.1671,-3.1681,-3.1681,-3.1681,-3.1692,-3.1681,-3.1681,-3.1692,-3.1671,-3.1578,-3.1526,-3.1505,-3.1443,-3.1381,-3.134,-3.1008,-3.0843,-3.0791,-3.0377,-3.0087,-3.0005,-2.9994,-2.9994,-2.9994,-2.9994,-2.9994,-2.9973,-2.9642,-2.9456,-2.9446,-2.9104,-2.8928,-2.8928,-2.8918,-2.8918,-2.8928,-2.8928,-2.8928,-2.8928,-2.8918,-2.8928,-2.8918,-2.8918,-2.8928,-2.8959,-2.9259,-2.9508,-2.9632,-2.9942,-3.0356,-3.0801,-3.0843,-3.0533,-3.0018,-3.0228,-3.0482,-3.0452,-3.0646,-3.085,-3.0589,-2.9705,-2.8962,-2.8952,-2.8154,-2.7068,-2.5981,-2.5758,-2.5352,-2.437,-2.4166,-2.4316,-2.4261,-2.4221,-2.4134,-2.4055,-2.4164,-2.4164,-2.4164,-2.4164,-2.38,-2.3451,-2.3138,-2.3178,-2.3146,-2.2933,-2.2704,-2.2574,-2.2238,-2.184,-2.1688,-2.1421,-2.1254,-2.1174,-2.0991,-2.0859,-2.0808,-2.0655,-2.0523,-2.053,-2.0545,-2.0501,-2.053,-2.0676,-2.0779,-3.2727,-3.2727,-3.2727,-3.2727,-3.2727,-3.2727,-3.2727,-3.2727,-3.2727,-3.2706,-3.2561,-3.2602,-3.2571,-3.2602,-3.2582,-3.2551,-3.2561,-3.2602,-3.2571,-3.252,-3.2168,-3.1981,-3.194,-3.1578,-3.1381,-3.1402,-3.135,-3.1309,-3.1288,-3.0853,-3.0419,-3.0046,-2.9994,-3.0015,-3.0005,-3.0005,-2.9994,-2.9994,-2.9953,-2.9932,-2.9932,-2.9901,-2.987,-2.987,-2.986,-2.987,-2.9818,-2.987,-2.986,-2.987,-2.9839,-2.9849,-2.9849,-2.9849,-2.986,-2.9839,-2.9901,-3.0108,-3.0491,-3.0605,-3.0822,-3.1257,-3.1319,-3.123,-3.1082,-3.0558,-2.9996,-2.9609,-2.9643,-2.9721,-2.9521,-2.854,-2.7783,-2.7811,-2.7546,-2.7016,-2.605,-2.5758,-2.5436,-2.4619,-2.4531,-2.465,-2.4841,-2.4698,-2.4428,-2.4198,-2.4182,-2.4174,-2.4166,-2.4166,-2.415,-2.3999,-2.3732,-2.3489,-2.3458,-2.3261,-2.294,-2.2616,-2.2535,-2.2275,-2.1847,-2.1635,-2.1584,-2.143,-2.1262,-2.1225,-2.1203,-2.113,-2.113,-2.1123,-2.1123,-2.1115,-2.1123,-2.1167,-2.1123,-3.2727,-3.2727,-3.2727,-3.2727,-3.2727,-3.2727,-3.2727,-3.2727,-3.2727,-3.2727,-3.2727,-3.2727,-3.2727,-3.2727,-3.2727,-3.2727,-3.2727,-3.2727,-3.2727,-3.2716,-3.253,-3.2457,-3.2426,-3.2282,-3.2178,-3.2137,-3.1909,-3.1774,-3.1692,-3.1309,-3.0998,-3.0791,-3.0553,-3.0398,-3.0387,-3.0129,-2.9994,-2.9994,-2.9994,-2.9994,-2.9994,-2.9994,-2.9994,-2.9994,-2.9994,-2.9994,-2.9994,-2.9994,-2.9994,-2.9994,-2.9994,-2.9994,-2.9994,-2.9994,-2.9994,-3.0015,-3.0253,-3.0481,-3.0677,-3.0936,-3.1288,-3.1743,-3.1066,-3.0482,-2.993,-2.964,-2.9058,-2.8228,-2.8658,-2.9132,-2.8988,-2.7948,-2.7261,-2.7134,-2.6551,-2.5955,-2.5501,-2.5373,-2.5214,-2.4881,-2.4897,-2.4928,-2.5056,-2.4984,-2.4833,-2.469,-2.4666,-2.4642,-2.4666,-2.4674,-2.4553,-2.4432,-2.4068,-2.3882,-2.3619,-2.3131,-2.2781,-2.2662,-2.2416,-2.2208,-2.2164,-2.1986,-2.1928,-2.1781,-2.1745,-2.1745,-2.1803,-2.1789,-2.1789,-2.1759,-2.1774,-2.1781,-2.1789,-2.1789,-2.1708,-3.2727,-3.2727,-3.2727,-3.2727,-3.2727,-3.2727,-3.2727,-3.2727,-3.2727,-3.2727,-3.2727,-3.2727,-3.2727,-3.2727,-3.2727,-3.2727,-3.2727,-3.2727,-3.2727,-3.2727,-3.2727,-3.2727,-3.2727,-3.2727,-3.2727,-3.2675,-3.2385,-3.2168,-3.2023,-3.1733,-3.1495,-3.134,-3.104,-3.0874,-3.0843,-3.0522,-3.0377,-3.0387,-3.0377,-3.0315,-3.0212,-3.0191,-3.0129,-3.0005,-2.9994,-2.9994,-2.9994,-2.9994,-2.9994,-2.9994,-2.9994,-2.9994,-2.9994,-2.9994,-3.0046,-3.0212,-3.0626,-3.0926,-3.105,-3.1371,-3.1632,-3.1574,-3.0819,-2.9882,-2.9083,-2.8564,-2.7966,-2.7228,-2.7495,-2.782,-2.8206,-2.7254,-2.6537,-2.6424,-2.5586,-2.5111,-2.5087,-2.5103,-2.5079,-2.5103,-2.5071,-2.5103,-2.5103,-2.5095,-2.5063,-2.5063,-2.5079,-2.5103,-2.5103,-2.5079,-2.4964,-2.461,-2.4348,-2.3917,-2.361,-2.321,-2.2795,-2.2674,-2.2598,-2.2454,-2.2345,-2.2301,-2.2213,-2.2059,-2.2162,-2.2162,-2.2059,-2.2118,-2.2191,-2.2184,-2.2184,-2.2184,-2.2096,-2.2162,-2.1915,-3.2727,-3.2727,-3.2727,-3.2727,-3.2727,-3.2727,-3.2727,-3.2727,-3.2727,-3.2727,-3.2727,-3.2727,-3.2727,-3.2727,-3.2727,-3.2727,-3.2727,-3.2727,-3.2727,-3.2727,-3.2727,-3.2727,-3.2727,-3.2727,-3.2727,-3.2727,-3.2675,-3.2457,-3.2085,-3.2023,-3.1795,-3.1422,-3.1371,-3.135,-3.1329,-3.1267,-3.1288,-3.1215,-3.1215,-3.1081,-3.0719,-3.0657,-3.046,-3.0129,-3.0005,-2.9994,-2.9994,-2.9994,-2.9994,-2.9994,-2.9994,-2.9994,-2.9994,-3.0015,-3.0212,-3.0636,-3.1091,-3.1536,-3.1857,-3.1859,-3.1604,-3.1041,-3.0626,-3.0188,-2.8792,-2.7727,-2.7013,-2.7013,-2.6059,-2.5945,-2.6771,-2.6059,-2.5341,-2.5349,-2.5226,-2.5103,-2.5103,-2.5103,-2.5103,-2.5103,-2.5103,-2.5103,-2.5103,-2.5103,-2.5103,-2.5111,-2.5111,-2.498,-2.498,-2.498,-2.4857,-2.4602,-2.4232,-2.3969,-2.3675,-2.3293,-2.3083,-2.2937,-2.2965,-2.2915,-2.2747,-2.2579,-2.2432,-2.233,-2.2345,-2.2315,-2.2228,-2.2213,-2.2271,-2.2301,-2.233,-2.2315,-2.2418,-2.2257,-2.2038,-3.2727,-3.2727,-3.2727,-3.2727,-3.2727,-3.2727,-3.2727,-3.2727,-3.2727,-3.2727,-3.2727,-3.2727,-3.2727,-3.2727,-3.2727,-3.2727,-3.2727,-3.2727,-3.2727,-3.2727,-3.2727,-3.2727,-3.2727,-3.2727,-3.2727,-3.2727,-3.2727,-3.2654,-3.2509,-3.2478,-3.2416,-3.2219,-3.194,-3.1805,-3.1743,-3.1516,-3.1381,-3.1381,-3.1381,-3.1298,-3.1153,-3.1133,-3.105,-3.0864,-3.0305,-2.9994,-2.9994,-2.9994,-2.9994,-2.9994,-2.9994,-2.9994,-3.0025,-3.0274,-3.0636,-3.1102,-3.1557,-3.1878,-3.1932,-3.1499,-3.1116,-3.0791,-2.9275,-2.8206,-2.7615,-2.6537,-2.5823,-2.5709,-2.5472,-2.5349,-2.5586,-2.5349,-2.5103,-2.5103,-2.5103,-2.5103,-2.5103,-2.5103,-2.5103,-2.5103,-2.5103,-2.5103,-2.5103,-2.5103,-2.498,-2.4857,-2.4734,-2.4734,-2.4487,-2.4479,-2.4363,-2.4108,-2.3852,-2.3604,-2.3355,-2.3223,-2.3098,-2.3098,-2.3069,-2.304,-2.293,-2.2893,-2.2784,-2.274,-2.2689,-2.2667,-2.2652,-2.2659,-2.2659,-2.2681,-2.2689,-2.2637,-2.2776,-2.2645,-2.2429,-3.2727,-3.2727,-3.2727,-3.2727,-3.2727,-3.2727,-3.2727,-3.2727,-3.2727,-3.2727,-3.2727,-3.2727,-3.2727,-3.2727,-3.2727,-3.2727,-3.2727,-3.2727,-3.2727,-3.2727,-3.2727,-3.2727,-3.2727,-3.2727,-3.2727,-3.2727,-3.2727,-3.2727,-3.2727,-3.2727,-3.2727,-3.2685,-3.2395,-3.2271,-3.2209,-3.1961,-3.1805,-3.1805,-3.1816,-3.1764,-3.1619,-3.1598,-3.1516,-3.1319,-3.076,-3.0439,-3.0439,-3.0439,-3.0439,-3.0439,-3.0439,-3.0439,-3.0481,-3.0874,-3.1267,-3.1598,-3.2012,-3.2035,-3.1592,-3.1126,-3.0461,-2.9639,-2.8086,-2.6892,-2.6424,-2.5586,-2.5103,-2.5103,-2.5103,-2.5103,-2.5103,-2.5111,-2.5103,-2.5103,-2.5103,-2.5103,-2.5103,-2.5103,-2.498,-2.4988,-2.498,-2.4857,-2.4857,-2.4734,-2.461,-2.4479,-2.4479,-2.4363,-2.4108,-2.4108,-2.3984,-2.3736,-2.3611,-2.3487,-2.323,-2.3106,-2.3106,-2.3106,-2.3106,-2.3106,-2.3106,-2.3106,-2.3106,-2.3106,-2.3106,-2.3106,-2.3106,-2.3106,-2.3106,-2.3106,-2.3025,-2.2923,-2.301,-2.3054,-2.2623,-3.2727,-3.2727,-3.2727,-3.2727,-3.2727,-3.2727,-3.2727,-3.2727,-3.2727,-3.2727,-3.2727,-3.2727,-3.2727,-3.2727,-3.2727,-3.2727,-3.2727,-3.2727,-3.2727,-3.2727,-3.2727,-3.2727,-3.2727,-3.2727,-3.2727,-3.2727,-3.2727,-3.2727,-3.2727,-3.2727,-3.2727,-3.2727,-3.2696,-3.2644,-3.2716,-3.2613,-3.2644,-3.2613,-3.2592,-3.2437,-3.2106,-3.2043,-3.1878,-3.1526,-3.1412,-3.1381,-3.1381,-3.1329,-3.1257,-3.1288,-3.1288,-3.136,-3.136,-3.1702,-3.2002,-3.2085,-3.2468,-3.2092,-3.1149,-3.0801,-2.9512,-2.8086,-2.7013,-2.6302,-2.5464,-2.5226,-2.5103,-2.5103,-2.5103,-2.5103,-2.5103,-2.5103,-2.5103,-2.5103,-2.5103,-2.5103,-2.5103,-2.5103,-2.498,-2.4741,-2.461,-2.4487,-2.4232,-2.4232,-2.4232,-2.4108,-2.4108,-2.4108,-2.3984,-2.3984,-2.386,-2.3604,-2.3479,-2.3355,-2.323,-2.3106,-2.3106,-2.3106,-2.3106,-2.3106,-2.3106,-2.3106,-2.3106,-2.3106,-2.3106,-2.3106,-2.2473,-2.2473,-2.2598,-2.2598,-2.2849,-2.2981,-2.3106,-2.2981,-2.2606,-3.2727,-3.2727,-3.2727,-3.2727,-3.2727,-3.2727,-3.2727,-3.2727,-3.2727,-3.2727,-3.2727,-3.2727,-3.2727,-3.2727,-3.2727,-3.2727,-3.2727,-3.2727,-3.2727,-3.2727,-3.2727,-3.2727,-3.2727,-3.2727,-3.2727,-3.2727,-3.2727,-3.2727,-3.2727,-3.2727,-3.2727,-3.2727,-3.2727,-3.2727,-3.2727,-3.2727,-3.2727,-3.2727,-3.2727,-3.2644,-3.252,-3.2509,-3.2437,-3.2323,-3.2313,-3.2313,-3.2282,-3.1712,-3.1402,-3.1402,-3.1381,-3.1516,-3.1795,-3.1971,-3.2188,-3.2489,-3.2633,-3.2612,-3.2008,-3.0461,-2.9275,-2.8086,-2.6779,-2.5586,-2.5226,-2.5111,-2.5111,-2.5111,-2.5103,-2.5103,-2.5103,-2.4857,-2.4857,-2.5103,-2.5103,-2.5103,-2.498,-2.4857,-2.4602,-2.4355,-2.4239,-2.4239,-2.4108,-2.4108,-2.3984,-2.3736,-2.3736,-2.3736,-2.3479,-2.3479,-2.3355,-2.323,-2.323,-2.323,-2.323,-2.3106,-2.3106,-2.3106,-2.3106,-2.3106,-2.3106,-2.2856,-2.2856,-2.2981,-2.2981,-2.2856,-2.2223,-2.209,-2.2215,-2.209,-2.1964,-2.2341,-2.2981,-2.2856,-2.2606,-3.2727,-3.2727,-3.2727,-3.2727,-3.2727,-3.2727,-3.2727,-3.2727,-3.2727,-3.2727,-3.2727,-3.2727,-3.2727,-3.2727,-3.2727,-3.2727,-3.2727,-3.2727,-3.2727,-3.2727,-3.2727,-3.2727,-3.2727,-3.2727,-3.2727,-3.2727,-3.2727,-3.2727,-3.2727,-3.2727,-3.2727,-3.2727,-3.2727,-3.2727,-3.2727,-3.2727,-3.2727,-3.2727,-3.2727,-3.2727,-3.2727,-3.2727,-3.2727,-3.2727,-3.2727,-3.2727,-3.2685,-3.2168,-3.1878,-3.1878,-3.1888,-3.2023,-3.2261,-3.2313,-3.2426,-3.2644,-3.2612,-3.2373,-3.1295,-2.9747,-2.8325,-2.7495,-2.5945,-2.5103,-2.498,-2.4857,-2.4857,-2.4734,-2.4734,-2.4734,-2.4734,-2.461,-2.4479,-2.4726,-2.4734,-2.4734,-2.4734,-2.461,-2.4239,-2.3984,-2.386,-2.386,-2.3736,-2.3736,-2.3604,-2.3487,-2.3362,-2.3362,-2.3106,-2.3106,-2.3106,-2.3106,-2.3106,-2.3106,-2.3106,-2.3106,-2.3106,-2.3106,-2.3106,-2.3106,-2.3106,-2.2348,-2.2097,-2.2348,-2.2473,-2.2981,-2.2598,-2.2348,-2.2348,-2.1839,-2.158,-2.1964,-2.2598,-2.2981,-2.2724,-3.2727,-3.2727,-3.2727,-3.2727,-3.2727,-3.2727,-3.2727,-3.2727,-3.2727,-3.2727,-3.2727,-3.2727,-3.2727,-3.2727,-3.2727,-3.2727,-3.2727,-3.2727,-3.2727,-3.2727,-3.2727,-3.2727,-3.2727,-3.2727,-3.2727,-3.2727,-3.2727,-3.2727,-3.2727,-3.2727,-3.2727,-3.2727,-3.2727,-3.2727,-3.2727,-3.2727,-3.2727,-3.2727,-3.2727,-3.2727,-3.2727,-3.2727,-3.2727,-3.2727,-3.2727,-3.2727,-3.2706,-3.2623,-3.2644,-3.2706,-3.2613,-3.2602,-3.2696,-3.2727,-3.2696,-3.2727,-3.2727,-3.1652,-2.9874,-2.9157,-2.8086,-2.6294,-2.5464,-2.498,-2.461,-2.461,-2.4479,-2.4232,-2.4232,-2.4232,-2.4232,-2.4108,-2.4108,-2.4108,-2.4108,-2.4232,-2.4108,-2.4108,-2.386,-2.3611,-2.3611,-2.3479,-2.323,-2.3238,-2.323,-2.3106,-2.3106,-2.3106,-2.3106,-2.3106,-2.3106,-2.3106,-2.3106,-2.3106,-2.3106,-2.3106,-2.3106,-2.3106,-2.3106,-2.3106,-2.3106,-2.2348,-2.1971,-2.2097,-2.2215,-2.2731,-2.2731,-2.2348,-2.2223,-2.209,-2.1964,-2.209,-2.2341,-2.2849,-2.2849,-3.2727,-3.2727,-3.2727,-3.2727,-3.2727,-3.2727,-3.2727,-3.2727,-3.2727,-3.2727,-3.2727,-3.2727,-3.2727,-3.2727,-3.2727,-3.2727,-3.2727,-3.2727,-3.2727,-3.2727,-3.2727,-3.2727,-3.2727,-3.2727,-3.2727,-3.2727,-3.2727,-3.2727,-3.2727,-3.2727,-3.2727,-3.2727,-3.2727,-3.2727,-3.2727,-3.2727,-3.2727,-3.2727,-3.2727,-3.2727,-3.2727,-3.2727,-3.2727,-3.2727,-3.2727,-3.2727,-3.2727,-3.2727,-3.2727,-3.2727,-3.2727,-3.2727,-3.2727,-3.2727,-3.2727,-3.2727,-3.2612,-3.2487,-3.1421,-2.9874,-2.8435,-2.7469,-2.5815,-2.461,-2.4239,-2.4239,-2.4232,-2.4108,-2.4108,-2.4108,-2.4108,-2.386,-2.3604,-2.3479,-2.3736,-2.3984,-2.3736,-2.3736,-2.3611,-2.3362,-2.323,-2.323,-2.3106,-2.3106,-2.3106,-2.3106,-2.3106,-2.3106,-2.3106,-2.3106,-2.3106,-2.3106,-2.3106,-2.3106,-2.3106,-2.3106,-2.3106,-2.3106,-2.3106,-2.3106,-2.3106,-2.2856,-2.2731,-2.2856,-2.2724,-2.2981,-2.2223,-2.1461,-2.1587,-2.2223,-2.1964,-2.1964,-2.2598,-2.2981,-2.2981,-3.2727,-3.2727,-3.2727,-3.2727,-3.2727,-3.2727,-3.2727,-3.2727,-3.2727,-3.2727,-3.2727,-3.2727,-3.2727,-3.2727,-3.2727,-3.2727,-3.2727,-3.2727,-3.2727,-3.2727,-3.2727,-3.2727,-3.2727,-3.2727,-3.2727,-3.2727,-3.2727,-3.2727,-3.2727,-3.2727,-3.2727,-3.2727,-3.2727,-3.2727,-3.2727,-3.2727,-3.2727,-3.2727,-3.2727,-3.2727,-3.2727,-3.2727,-3.2727,-3.2727,-3.2727,-3.2727,-3.2727,-3.2727,-3.2727,-3.2727,-3.2727,-3.2727,-3.2727,-3.2727,-3.2727,-3.2727,-3.2248,-3.1893,-3.1536,-2.9992,-2.8683,-2.7718,-2.6164,-2.5071,-2.4348,-2.3984,-2.386,-2.3728,-2.3728,-2.3604,-2.3604,-2.3479,-2.3355,-2.323,-2.3479,-2.3604,-2.3362,-2.3362,-2.3355,-2.3106,-2.3106,-2.3106,-2.3106,-2.3106,-2.3106,-2.3106,-2.3106,-2.3106,-2.3106,-2.3106,-2.3106,-2.3106,-2.3106,-2.3106,-2.3106,-2.3106,-2.3106,-2.3106,-2.3106,-2.3106,-2.2856,-2.2849,-2.2724,-2.2724,-2.2981,-2.2856,-2.2223,-2.1839,-2.2215,-2.2473,-2.1964,-2.1839,-2.2348,-2.3106,-2.2981,-3.2727,-3.2727,-3.2727,-3.2727,-3.2727,-3.2727,-3.2727,-3.2727,-3.2727,-3.2727,-3.2727,-3.2727,-3.2727,-3.2727,-3.2727,-3.2727,-3.2727,-3.2727,-3.2727,-3.2727,-3.2727,-3.2727,-3.2727,-3.2727,-3.2727,-3.2727,-3.2727,-3.2727,-3.2727,-3.2727,-3.2727,-3.2727,-3.2727,-3.2727,-3.2727,-3.2727,-3.2727,-3.2727,-3.2727,-3.2727,-3.2727,-3.2727,-3.2727,-3.2727,-3.2727,-3.2727,-3.2727,-3.2727,-3.2727,-3.2727,-3.2727,-3.2727,-3.2727,-3.2727,-3.2727,-3.2612,-3.1893,-3.1295,-3.0694,-2.9747,-2.8316,-2.7125,-2.652,-2.5668,-2.434,-2.3728,-2.3611,-2.3355,-2.3106,-2.323,-2.323,-2.3106,-2.3106,-2.3106,-2.3106,-2.3106,-2.3106,-2.3106,-2.3106,-2.3106,-2.3106,-2.3106,-2.3106,-2.3106,-2.3106,-2.3106,-2.3106,-2.3106,-2.3106,-2.3106,-2.3106,-2.3106,-2.3106,-2.3106,-2.3106,-2.3106,-2.3106,-2.3106,-2.3106,-2.2981,-2.2598,-2.2466,-2.2215,-2.2341,-2.2856,-2.3106,-2.2981,-2.2849,-2.2849,-2.2849,-2.2598,-2.209,-2.1964,-2.2731,-2.2981,-3.2727,-3.2727,-3.2727,-3.2727,-3.2727,-3.2727,-3.2727,-3.2727,-3.2727,-3.2727,-3.2727,-3.2727,-3.2727,-3.2727,-3.2727,-3.2727,-3.2727,-3.2727,-3.2727,-3.2727,-3.2727,-3.2727,-3.2727,-3.2727,-3.2727,-3.2727,-3.2727,-3.2727,-3.2727,-3.2727,-3.2727,-3.2727,-3.2727,-3.2727,-3.2727,-3.2727,-3.2727,-3.2727,-3.2727,-3.2727,-3.2727,-3.2727,-3.2727,-3.2727,-3.2727,-3.2727,-3.2727,-3.2727,-3.2727,-3.2727,-3.2727,-3.2727,-3.2727,-3.2727,-3.2727,-3.2612,-3.2373,-3.1777,-3.082,-2.963,-2.8197,-2.6633,-2.5806,-2.4595,-2.3852,-2.3728,-2.3611,-2.3487,-2.3238,-2.3106,-2.3106,-2.3106,-2.3106,-2.3106,-2.3106,-2.3106,-2.3106,-2.3106,-2.3106,-2.3106,-2.3106,-2.3106,-2.3106,-2.3106,-2.3106,-2.3106,-2.3106,-2.3106,-2.3106,-2.3106,-2.3106,-2.3106,-2.3106,-2.3106,-2.3106,-2.3106,-2.3106,-2.3106,-2.3106,-2.3106,-2.2598,-2.2473,-2.2598,-2.2724,-2.2988,-2.3113,-2.3106,-2.3106,-2.2981,-2.3106,-2.3106,-2.2724,-2.2598,-2.2981,-2.3106,-3.2727,-3.2727,-3.2727,-3.2727,-3.2727,-3.2727,-3.2727,-3.2727,-3.2727,-3.2727,-3.2727,-3.2727,-3.2727,-3.2727,-3.2727,-3.2727,-3.2727,-3.2727,-3.2727,-3.2727,-3.2727,-3.2727,-3.2727,-3.2727,-3.2727,-3.2727,-3.2727,-3.2727,-3.2727,-3.2727,-3.2727,-3.2727,-3.2727,-3.2727,-3.2727,-3.2727,-3.2727,-3.2727,-3.2727,-3.2727,-3.2727,-3.2727,-3.2727,-3.2727,-3.2727,-3.2727,-3.2727,-3.2727,-3.2727,-3.2727,-3.2727,-3.2727,-3.2727,-3.2727,-3.2727,-3.2612,-3.2018,-3.2018,-3.1295,-2.9992,-2.8435,-2.7349,-2.6164,-2.4956,-2.4224,-2.386,-2.3611,-2.3487,-2.3355,-2.323,-2.3106,-2.3106,-2.3106,-2.3106,-2.3106,-2.3106,-2.3106,-2.3106,-2.3106,-2.3106,-2.3106,-2.3106,-2.3106,-2.3106,-2.3106,-2.3106,-2.3106,-2.3106,-2.3106,-2.3106,-2.3106,-2.3106,-2.3106,-2.3106,-2.3106,-2.3106,-2.3106,-2.3106,-2.3106,-2.3106,-2.2981,-2.2981,-2.2981,-2.3106,-2.3113,-2.3106,-2.3106,-2.3106,-2.3106,-2.3106,-2.3106,-2.3106,-2.3106,-2.3106,-2.3106,-3.2789,-3.2727,-3.2727,-3.2727,-3.2727,-3.2727,-3.2727,-3.2727,-3.2727,-3.2727,-3.2727,-3.2727,-3.2727,-3.2727,-3.2727,-3.2727,-3.2727,-3.2727,-3.2727,-3.2727,-3.2727,-3.2727,-3.2727,-3.2727,-3.2727,-3.2727,-3.2727,-3.2727,-3.2727,-3.2727,-3.2727,-3.2727,-3.2727,-3.2727,-3.2727,-3.2727,-3.2727,-3.2727,-3.2727,-3.2727,-3.2727,-3.2727,-3.2727,-3.2727,-3.2727,-3.2727,-3.2727,-3.2727,-3.2727,-3.2727,-3.2727,-3.2727,-3.2612,-3.2487,-3.2383,-3.2258,-3.1179,-3.0704,-3.0577,-2.9512,-2.8325,-2.8325,-2.7004,-2.5684,-2.4471,-2.4108,-2.386,-2.3604,-2.3355,-2.3355,-2.3106,-2.3106,-2.3106,-2.3106,-2.3106,-2.3106,-2.3106,-2.3106,-2.3106,-2.3106,-2.3106,-2.3106,-2.3106,-2.3106,-2.3106,-2.3106,-2.3106,-2.3106,-2.3106,-2.3106,-2.3106,-2.3106,-2.3106,-2.3106,-2.3106,-2.3106,-2.3106,-2.3106,-2.3106,-2.3106,-2.3106,-2.3106,-2.3106,-2.3106,-2.3106,-2.3106,-2.3106,-2.3106,-2.3106,-2.3106,-2.3106,-2.3106,-2.3106,-2.3106,-2.3106,-3.3058,-3.2727,-3.2727,-3.2727,-3.2727,-3.2727,-3.2727,-3.2727,-3.2727,-3.2727,-3.2727,-3.2727,-3.2727,-3.2727,-3.2727,-3.2727,-3.2727,-3.2727,-3.2727,-3.2727,-3.2727,-3.2727,-3.2727,-3.2727,-3.2727,-3.2727,-3.2727,-3.2727,-3.2727,-3.2727,-3.2727,-3.2727,-3.2727,-3.2727,-3.2727,-3.2727,-3.2727,-3.2727,-3.2727,-3.2727,-3.2727,-3.2727,-3.2727,-3.2727,-3.2727,-3.2727,-3.2727,-3.2727,-3.2727,-3.2727,-3.2727,-3.2727,-3.2487,-3.1777,-3.1189,-3.1063,-3.0109,-2.9394,-2.8683,-2.7847,-2.665,-2.5692,-2.5456,-2.521,-2.461,-2.4232,-2.3984,-2.3736,-2.3355,-2.323,-2.3106,-2.3106,-2.3106,-2.3106,-2.3106,-2.3106,-2.3106,-2.3106,-2.3106,-2.3106,-2.3106,-2.3106,-2.3106,-2.3106,-2.3106,-2.3106,-2.3106,-2.3106,-2.3106,-2.3106,-2.3106,-2.3106,-2.3106,-2.3106,-2.3106,-2.3106,-2.3106,-2.3106,-2.3106,-2.3106,-2.3106,-2.3106,-2.3106,-2.3106,-2.3106,-2.3106,-2.3106,-2.3106,-2.3106,-2.3106,-2.3106,-2.3106,-2.3106,-2.3106,-2.3106,-3.3472,-3.3068,-3.3068,-3.2934,-3.2747,-3.2727,-3.2727,-3.2727,-3.2727,-3.2727,-3.2727,-3.2727,-3.2727,-3.2727,-3.2727,-3.2727,-3.2727,-3.2727,-3.2727,-3.2727,-3.2727,-3.2727,-3.2727,-3.2727,-3.2727,-3.2727,-3.2727,-3.2727,-3.2727,-3.2727,-3.2747,-3.2727,-3.2727,-3.2727,-3.2727,-3.2727,-3.2727,-3.2727,-3.2727,-3.2727,-3.2727,-3.2727,-3.2727,-3.2727,-3.2727,-3.2727,-3.2727,-3.2727,-3.2727,-3.2727,-3.2727,-3.2727,-3.2133,-3.1179,-3.0119,-3.047,-2.9512,-2.8683,-2.7847,-2.7486,-2.6658,-2.605,-2.5464,-2.498,-2.4734,-2.4487,-2.4232,-2.386,-2.3479,-2.3106,-2.3106,-2.3106,-2.3106,-2.3106,-2.3106,-2.3106,-2.3106,-2.3106,-2.3106,-2.3106,-2.3106,-2.3106,-2.3106,-2.3106,-2.3106,-2.3106,-2.3106,-2.3106,-2.3106,-2.3106,-2.3106,-2.3106,-2.3106,-2.3106,-2.3106,-2.3106,-2.3106,-2.3106,-2.3106,-2.3106,-2.3106,-2.3106,-2.3106,-2.3106,-2.3106,-2.3106,-2.3106,-2.3106,-2.3106,-2.3106,-2.3106,-2.3106,-2.3106,-2.3106,-2.3106,-3.3938,-3.3513,-3.3513,-3.3254,-3.2892,-3.2861,-3.2809,-3.2737,-3.2727,-3.2727,-3.2727,-3.2727,-3.2727,-3.2727,-3.2727,-3.2727,-3.2727,-3.2727,-3.2727,-3.2727,-3.2727,-3.2727,-3.2727,-3.2727,-3.2727,-3.2727,-3.2727,-3.2727,-3.2758,-3.2861,-3.2882,-3.2913,-3.2882,-3.2861,-3.2892,-3.2799,-3.2768,-3.2727,-3.2727,-3.2727,-3.2727,-3.2727,-3.2727,-3.2727,-3.2727,-3.2727,-3.2727,-3.2727,-3.2727,-3.2727,-3.2727,-3.2727,-3.2373,-3.0587,-2.9865,-3.0344,-2.9157,-2.8325,-2.7847,-2.7134,-2.6302,-2.6059,-2.5586,-2.5103,-2.4734,-2.4487,-2.4232,-2.3736,-2.3362,-2.3106,-2.3106,-2.3106,-2.3106,-2.3106,-2.3106,-2.3106,-2.3106,-2.3106,-2.3106,-2.3106,-2.3106,-2.3106,-2.3106,-2.3106,-2.3106,-2.3106,-2.3106,-2.3106,-2.3106,-2.3106,-2.3106,-2.3106,-2.3106,-2.3106,-2.3106,-2.3106,-2.3106,-2.3106,-2.3106,-2.3106,-2.3106,-2.3106,-2.3106,-2.3106,-2.3106,-2.3106,-2.3106,-2.3106,-2.3106,-2.3106,-2.3106,-2.3106,-2.3106,-2.3106,-2.3106,-3.4414,-3.3989,-3.3989,-3.372,-3.3337,-3.3306,-3.3089,-3.2789,-3.2809,-3.2727,-3.284,-3.2747,-3.2758,-3.2727,-3.2727,-3.2727,-3.2727,-3.2727,-3.2727,-3.2727,-3.2727,-3.2727,-3.2727,-3.2727,-3.2727,-3.2758,-3.2758,-3.2727,-3.284,-3.312,-3.3265,-3.3244,-3.3275,-3.3306,-3.3275,-3.3068,-3.2737,-3.2747,-3.2737,-3.2727,-3.2727,-3.2727,-3.2727,-3.2727,-3.2727,-3.2727,-3.2727,-3.2727,-3.2727,-3.2727,-3.2727,-3.2727,-3.2487,-3.1421,-3.0704,-2.9747,-2.7847,-2.5586,-2.5945,-2.57,-2.5586,-2.5586,-2.5226,-2.5103,-2.4857,-2.4479,-2.4108,-2.3611,-2.3362,-2.3113,-2.3106,-2.3106,-2.3106,-2.3106,-2.3106,-2.3106,-2.3106,-2.3106,-2.3106,-2.3106,-2.3106,-2.3106,-2.3106,-2.3106,-2.3106,-2.3106,-2.3106,-2.3106,-2.3106,-2.3106,-2.3106,-2.3106,-2.3106,-2.3106,-2.3106,-2.3106,-2.3106,-2.3106,-2.3106,-2.3106,-2.3106,-2.3106,-2.3106,-2.3106,-2.3106,-2.3106,-2.3106,-2.3106,-2.3106,-2.3106,-2.3106,-2.3106,-2.3106,-2.3106,-2.3106,-3.4869,-3.4455,-3.4455,-3.4196,-3.3793,-3.3762,-3.3668,-3.3513,-3.3492,-3.3492,-3.342,-3.3182,-3.2975,-3.282,-3.2727,-3.2727,-3.2727,-3.2768,-3.2737,-3.2768,-3.2768,-3.2758,-3.2727,-3.2727,-3.2727,-3.2851,-3.2965,-3.313,-3.3182,-3.3254,-3.3379,-3.3451,-3.3648,-3.3772,-3.3751,-3.3586,-3.3348,-3.313,-3.2892,-3.2737,-3.2727,-3.2727,-3.2727,-3.2727,-3.2727,-3.2727,-3.2727,-3.2727,-3.2727,-3.2727,-3.2727,-3.2727,-3.2373,-3.1536,-3.082,-3.0587,-2.7966,-2.6415,-2.6181,-2.5464,-2.5226,-2.5103,-2.5111,-2.4988,-2.4865,-2.461,-2.4115,-2.3611,-2.3487,-2.3355,-2.3113,-2.3106,-2.3106,-2.3106,-2.3106,-2.3106,-2.3106,-2.3106,-2.3106,-2.3106,-2.3106,-2.3106,-2.3106,-2.3106,-2.3106,-2.3106,-2.3106,-2.3106,-2.3106,-2.3106,-2.3106,-2.3106,-2.3106,-2.3106,-2.3106,-2.3106,-2.3106,-2.3106,-2.3106,-2.3106,-2.3106,-2.3106,-2.3106,-2.3106,-2.3106,-2.3106,-2.3106,-2.3106,-2.3106,-2.3106,-2.3106,-2.3106,-2.3106,-2.3106,-2.3106,-3.5231,-3.4931,-3.4921,-3.4662,-3.4248,-3.4238,-3.4165,-3.4051,-3.4031,-3.4051,-3.3979,-3.3689,-3.3358,-3.3141,-3.312,-3.3161,-3.311,-3.3058,-3.3068,-3.3058,-3.3058,-3.312,-3.3172,-3.312,-3.312,-3.3058,-3.342,-3.3544,-3.3596,-3.3699,-3.3824,-3.3741,-3.4103,-3.4217,-3.4207,-3.4041,-3.3803,-3.3544,-3.3141,-3.2954,-3.2913,-3.2789,-3.2747,-3.2727,-3.2727,-3.2727,-3.2727,-3.2727,-3.2727,-3.2727,-3.2727,-3.2612,-3.2018,-3.1305,-3.0587,-3.0109,-2.8197,-2.7254,-2.6667,-2.5953,-2.5226,-2.5103,-2.5103,-2.498,-2.4857,-2.461,-2.4479,-2.3984,-2.3736,-2.3611,-2.3355,-2.323,-2.323,-2.3106,-2.3106,-2.3106,-2.3106,-2.3106,-2.3106,-2.3106,-2.3106,-2.3106,-2.3106,-2.3106,-2.3106,-2.3106,-2.3106,-2.3106,-2.3106,-2.3106,-2.3106,-2.3106,-2.3106,-2.3106,-2.3106,-2.3106,-2.3106,-2.3106,-2.3106,-2.3106,-2.3106,-2.3106,-2.3106,-2.3106,-2.3106,-2.3106,-2.3106,-2.3106,-2.3106,-2.3106,-2.3106,-2.3106,-2.3106,-2.3106,-2.3106,-3.5407,-3.5376,-3.5366,-3.5107,-3.4703,-3.4714,-3.4476,-3.4207,-3.4134,-3.4134,-3.4134,-3.402,-3.3989,-3.3906,-3.3824,-3.3834,-3.3927,-3.3969,-3.3865,-3.3865,-3.3958,-3.3834,-3.3793,-3.3782,-3.3855,-3.3865,-3.3979,-3.402,-3.4124,-3.4414,-3.4559,-3.4683,-3.4662,-3.4693,-3.459,-3.4362,-3.4176,-3.3927,-3.3575,-3.3306,-3.3182,-3.2985,-3.2778,-3.2737,-3.2727,-3.2727,-3.2727,-3.2727,-3.2727,-3.2727,-3.2727,-3.2373,-3.1662,-3.1063,-3.047,-2.963,-2.8683,-2.7735,-2.69,-2.6067,-2.5349,-2.5103,-2.5103,-2.5103,-2.498,-2.4734,-2.461,-2.4479,-2.4232,-2.386,-2.3736,-2.3479,-2.3362,-2.323,-2.323,-2.3106,-2.3106,-2.3106,-2.3106,-2.3106,-2.3106,-2.3106,-2.3106,-2.3106,-2.3106,-2.3106,-2.3106,-2.3106,-2.3106,-2.3106,-2.3106,-2.3106,-2.3106,-2.3106,-2.3106,-2.3106,-2.3106,-2.3106,-2.3106,-2.3106,-2.3106,-2.3106,-2.3106,-2.3106,-2.3106,-2.3106,-2.3106,-2.3106,-2.3106,-2.3106,-2.3106,-2.3106,-2.3106,-2.3106,-2.3106,-3.6125,-3.5428,-3.5428,-3.5324,-3.5169,-3.5169,-3.5066,-3.4921,-3.49,-3.4734,-3.4496,-3.4486,-3.4331,-3.4155,-3.4072,-3.4072,-3.4072,-3.4062,-3.4093,-3.4072,-3.4062,-3.4072,-3.4072,-3.4113,-3.4051,-3.4165,-3.4331,-3.4496,-3.4538,-3.491,-3.5107,-3.5159,-3.5128,-3.5169,-3.5024,-3.4724,-3.4538,-3.4372,-3.4041,-3.371,-3.3358,-3.3244,-3.3006,-3.2737,-3.2727,-3.2727,-3.2727,-3.2727,-3.2727,-3.2727,-3.2727,-3.2258,-3.1777,-3.1179,-3.047,-2.9757,-2.8801,-2.7735,-2.7142,-2.6424,-2.5937,-2.5103,-2.5103,-2.5103,-2.5103,-2.498,-2.4734,-2.4602,-2.4479,-2.4232,-2.3984,-2.3736,-2.3487,-2.3355,-2.323,-2.323,-2.3106,-2.3106,-2.3106,-2.3106,-2.3106,-2.3106,-2.3106,-2.3106,-2.3106,-2.3106,-2.3106,-2.3106,-2.3106,-2.3106,-2.3106,-2.3106,-2.3106,-2.3106,-2.3106,-2.3106,-2.3106,-2.3106,-2.3106,-2.3106,-2.3106,-2.3106,-2.3106,-2.3106,-2.3106,-2.3106,-2.3106,-2.3106,-2.3106,-2.3106,-2.3106,-2.3106,-2.3106,-2.3106,-2.3106,-3.7067,-3.6013,-3.6013,-3.5777,-3.5428,-3.5428,-3.5428,-3.5428,-3.5397,-3.5273,-3.4962,-3.4941,-3.4786,-3.4527,-3.4486,-3.4507,-3.4548,-3.4548,-3.4507,-3.4527,-3.4548,-3.4476,-3.4476,-3.4517,-3.461,-3.4559,-3.4724,-3.4952,-3.4962,-3.5283,-3.5355,-3.5376,-3.5418,-3.5397,-3.5324,-3.5148,-3.4952,-3.4859,-3.4507,-3.4165,-3.3834,-3.3482,-3.3285,-3.2934,-3.283,-3.2727,-3.2727,-3.2727,-3.2727,-3.2727,-3.2612,-3.2487,-3.1903,-3.1305,-3.0704,-2.9747,-2.8792,-2.7486,-2.7013,-2.6545,-2.6059,-2.5226,-2.5103,-2.5103,-2.5103,-2.5103,-2.498,-2.4857,-2.4726,-2.4602,-2.4232,-2.4108,-2.3736,-2.3604,-2.3479,-2.3355,-2.3106,-2.3106,-2.3106,-2.3106,-2.3106,-2.3106,-2.3106,-2.3106,-2.3106,-2.3106,-2.3106,-2.3106,-2.3106,-2.3106,-2.3106,-2.3106,-2.3106,-2.3106,-2.3106,-2.3106,-2.3106,-2.3106,-2.3106,-2.3106,-2.3106,-2.3106,-2.3106,-2.3106,-2.3106,-2.3106,-2.3106,-2.3106,-2.3106,-2.3106,-2.3106,-2.3106,-2.3106,-2.3106,-2.3106,-3.8365,-3.7298,-3.7177,-3.6481,-3.5541,-3.5428,-3.5428,-3.5428,-3.5428,-3.5397,-3.5335,-3.5345,-3.5345,-3.5273,-3.5169,-3.5159,-3.518,-3.5231,-3.5242,-3.519,-3.5128,-3.5273,-3.5273,-3.5221,-3.5107,-3.5335,-3.5324,-3.5283,-3.5345,-3.5387,-3.5418,-3.5428,-3.5428,-3.5428,-3.5428,-3.5418,-3.5397,-3.5335,-3.4921,-3.4724,-3.4424,-3.3886,-3.3586,-3.3327,-3.3016,-3.2871,-3.2861,-3.2747,-3.2737,-3.2727,-3.2727,-3.2258,-3.1536,-3.1063,-3.0344,-2.9394,-2.9039,-2.8206,-2.7134,-2.5945,-2.5349,-2.5111,-2.5103,-2.5103,-2.5103,-2.5103,-2.5103,-2.498,-2.498,-2.4865,-2.4734,-2.4479,-2.4108,-2.386,-2.3604,-2.3355,-2.323,-2.3106,-2.3106,-2.3106,-2.3106,-2.3106,-2.3106,-2.3106,-2.3106,-2.3106,-2.3106,-2.3106,-2.3106,-2.3106,-2.3106,-2.3106,-2.3106,-2.3106,-2.3106,-2.3106,-2.3106,-2.3106,-2.3106,-2.3106,-2.3106,-2.3106,-2.3106,-2.3106,-2.3106,-2.3106,-2.3106,-2.3106,-2.3106,-2.3106,-2.3106,-2.3106,-2.3106,-2.3106,-2.3106,-3.9384,-3.8495,-3.767,-3.7067,-3.6603,-3.5767,-3.5428,-3.5428,-3.5428,-3.5428,-3.5428,-3.5428,-3.5428,-3.5428,-3.5428,-3.5428,-3.5428,-3.5428,-3.5428,-3.5428,-3.5428,-3.5418,-3.5428,-3.5428,-3.5428,-3.5428,-3.5428,-3.5428,-3.5407,-3.5428,-3.5428,-3.5428,-3.5428,-3.5428,-3.5428,-3.5428,-3.5418,-3.5407,-3.5231,-3.5066,-3.4766,-3.4424,-3.4113,-3.3834,-3.3399,-3.3161,-3.3099,-3.2913,-3.2778,-3.2737,-3.2727,-3.2373,-3.1777,-3.1536,-3.0704,-2.9992,-2.9639,-2.8325,-2.7142,-2.5945,-2.5103,-2.5127,-2.5111,-2.5111,-2.5103,-2.5103,-2.5103,-2.5103,-2.5103,-2.4988,-2.498,-2.4734,-2.4363,-2.3984,-2.3736,-2.3487,-2.3238,-2.3106,-2.3106,-2.3106,-2.3106,-2.3106,-2.3106,-2.3106,-2.3106,-2.3106,-2.3106,-2.3106,-2.3106,-2.3106,-2.3106,-2.3106,-2.3106,-2.3106,-2.3106,-2.3106,-2.3106,-2.3106,-2.3106,-2.3106,-2.3106,-2.3106,-2.3106,-2.3106,-2.3106,-2.3106,-2.3106,-2.3106,-2.3106,-2.3106,-2.3106,-2.3106,-2.3106,-2.3106,-2.3106,-4.0386,-3.9546,-3.8889,-3.8127,-3.7177,-3.589,-3.5428,-3.5428,-3.5428,-3.5428,-3.5428,-3.5428,-3.5428,-3.5428,-3.5428,-3.5428,-3.5428,-3.5428,-3.5428,-3.5428,-3.5428,-3.5428,-3.5428,-3.5428,-3.5428,-3.5428,-3.5428,-3.5428,-3.5428,-3.5428,-3.5428,-3.5428,-3.5428,-3.5428,-3.5428,-3.5428,-3.5428,-3.5418,-3.5335,-3.5273,-3.5024,-3.4786,-3.4579,-3.4258,-3.3896,-3.3544,-3.3348,-3.312,-3.2882,-3.2799,-3.2737,-3.2737,-3.2373,-3.2018,-3.1421,-3.1179,-3.0507,-2.9297,-2.8262,-2.7106,-2.6537,-2.6405,-2.5657,-2.5119,-2.5103,-2.5103,-2.5103,-2.5103,-2.5103,-2.5103,-2.498,-2.4734,-2.4487,-2.4115,-2.386,-2.3487,-2.323,-2.3106,-2.3113,-2.3106,-2.3106,-2.3106,-2.3106,-2.3106,-2.3106,-2.3106,-2.3106,-2.3106,-2.3106,-2.3106,-2.3106,-2.3106,-2.3106,-2.3106,-2.3106,-2.3106,-2.3106,-2.3106,-2.3106,-2.3106,-2.3106,-2.3106,-2.3106,-2.3106,-2.3106,-2.3106,-2.3106,-2.3106,-2.3106,-2.3106,-2.3106,-2.3106,-2.3106,-2.3106,-2.3106,-4.1422,-4.0491,-4.086,-3.9628,-3.7506,-3.6215,-3.5541,-3.5428,-3.5428,-3.5428,-3.5428,-3.5428,-3.5428,-3.5428,-3.5428,-3.5428,-3.5428,-3.5428,-3.5428,-3.5428,-3.5428,-3.5428,-3.5428,-3.5428,-3.5428,-3.5428,-3.5428,-3.5428,-3.5428,-3.5428,-3.5428,-3.5428,-3.5428,-3.5428,-3.5428,-3.5428,-3.5428,-3.5428,-3.5418,-3.5366,-3.5242,-3.5024,-3.489,-3.4641,-3.4341,-3.3958,-3.371,-3.3482,-3.3182,-3.2975,-3.2799,-3.2768,-3.2747,-3.2747,-3.2747,-3.2547,-3.1928,-3.0901,-3.0146,-2.8818,-2.8239,-2.7869,-2.6513,-2.5633,-2.5143,-2.5159,-2.5103,-2.5103,-2.5103,-2.5103,-2.498,-2.4734,-2.4487,-2.4232,-2.386,-2.3604,-2.323,-2.3106,-2.3113,-2.3113,-2.3106,-2.3106,-2.323,-2.323,-2.323,-2.3355,-2.3479,-2.3355,-2.3355,-2.3113,-2.3113,-2.3238,-2.3238,-2.3238,-2.3238,-2.323,-2.323,-2.323,-2.3106,-2.3106,-2.3106,-2.3106,-2.3106,-2.3106,-2.3106,-2.3106,-2.3106,-2.3106,-2.3106,-2.3106,-2.3106,-2.3106,-2.3106,-2.3106,-2.3106,-4.0989,-4.094,-4.0668,-4.0057,-3.9186,-3.7515,-3.6247,-3.5418,-3.5428,-3.5428,-3.5428,-3.5428,-3.5428,-3.5428,-3.5428,-3.5428,-3.5428,-3.5428,-3.5428,-3.5428,-3.5428,-3.5428,-3.5428,-3.5428,-3.5428,-3.5428,-3.5428,-3.5428,-3.5428,-3.5428,-3.5428,-3.5428,-3.5428,-3.5428,-3.5428,-3.5428,-3.5428,-3.5428,-3.5428,-3.5428,-3.5428,-3.5252,-3.518,-3.5045,-3.4776,-3.4434,-3.4269,-3.3979,-3.3658,-3.3285,-3.3203,-3.311,-3.2737,-3.3016,-3.3265,-3.354,-3.2734,-3.1852,-3.1453,-3.0377,-2.9689,-2.9485,-2.8179,-2.6727,-2.5891,-2.5318,-2.5183,-2.5175,-2.5127,-2.5103,-2.5103,-2.4857,-2.461,-2.4232,-2.3984,-2.3728,-2.3479,-2.3362,-2.3362,-2.3362,-2.3355,-2.3355,-2.3487,-2.3487,-2.3611,-2.3736,-2.3736,-2.3736,-2.3611,-2.3362,-2.3362,-2.3487,-2.3487,-2.3487,-2.3611,-2.3604,-2.3479,-2.3479,-2.323,-2.3106,-2.3106,-2.3106,-2.3106,-2.3106,-2.3106,-2.3106,-2.3106,-2.3106,-2.3106,-2.3106,-2.3106,-2.3106,-2.3106,-2.3106,-2.3106,-4.0701,-4.0959,-4.0806,-4.0561,-4.0028,-3.8635,-3.755,-3.6846,-3.59,-3.5428,-3.5428,-3.5428,-3.5428,-3.5428,-3.5428,-3.5428,-3.5428,-3.5428,-3.5428,-3.5428,-3.5428,-3.5428,-3.5428,-3.5428,-3.5428,-3.5428,-3.5428,-3.5428,-3.5428,-3.5428,-3.5428,-3.5428,-3.5428,-3.5428,-3.5428,-3.5428,-3.5428,-3.5428,-3.5428,-3.5428,-3.5428,-3.5428,-3.5428,-3.5376,-3.5097,-3.4973,-3.4776,-3.4434,-3.4124,-3.3731,-3.3658,-3.3544,-3.3296,-3.3555,-3.3865,-3.4087,-3.383,-3.3477,-3.3251,-3.2285,-3.1751,-3.1187,-3.0067,-2.8498,-2.7068,-2.6177,-2.5734,-2.5357,-2.5214,-2.5103,-2.498,-2.498,-2.461,-2.4363,-2.4232,-2.3984,-2.386,-2.3611,-2.3611,-2.3736,-2.3736,-2.3736,-2.3736,-2.3736,-2.386,-2.3984,-2.3984,-2.3984,-2.386,-2.3736,-2.3736,-2.3736,-2.3852,-2.3852,-2.3976,-2.3984,-2.3728,-2.3479,-2.323,-2.3106,-2.3106,-2.3106,-2.3106,-2.3106,-2.3106,-2.3106,-2.3106,-2.3106,-2.3106,-2.3106,-2.3106,-2.3106,-2.3106,-2.3106,-2.3106,-4.045,-4.0488,-4.1053,-4.0928,-4.0343,-3.9651,-3.9276,-3.9098,-3.6967,-3.5654,-3.5654,-3.5428,-3.5428,-3.5428,-3.5428,-3.5428,-3.5428,-3.5428,-3.5428,-3.5428,-3.5428,-3.5428,-3.5428,-3.5428,-3.5428,-3.5428,-3.5428,-3.5428,-3.5428,-3.5428,-3.5428,-3.5428,-3.5428,-3.5428,-3.5428,-3.5428,-3.5428,-3.5428,-3.5428,-3.5428,-3.5428,-3.5428,-3.5428,-3.5428,-3.5345,-3.5242,-3.4952,-3.4745,-3.46,-3.4289,-3.4113,-3.4093,-3.4093,-3.4113,-3.4393,-3.4641,-3.4665,-3.4687,-3.4595,-3.3903,-3.3589,-3.2884,-3.1995,-3.0655,-2.933,-2.7235,-2.6477,-2.5737,-2.5492,-2.5334,-2.5294,-2.5043,-2.4734,-2.4487,-2.4363,-2.4232,-2.4108,-2.3991,-2.3984,-2.3984,-2.3984,-2.3984,-2.4108,-2.4115,-2.4232,-2.4232,-2.4355,-2.4355,-2.4232,-2.4239,-2.4108,-2.4108,-2.4108,-2.4108,-2.4232,-2.4108,-2.386,-2.3604,-2.3355,-2.3106,-2.3106,-2.3106,-2.3106,-2.3106,-2.3106,-2.3106,-2.3106,-2.3106,-2.3106,-2.3106,-2.3106,-2.3106,-2.3106,-2.3106,-2.3106,-3.9885,-3.9948,-4.0475,-4.1039,-4.1533,-4.0552,-4.0283,-4.05,-3.898,-3.779,-3.6835,-3.589,-3.5418,-3.5531,-3.5418,-3.5428,-3.5428,-3.5428,-3.5428,-3.5428,-3.5428,-3.5428,-3.5428,-3.5428,-3.5428,-3.5428,-3.5428,-3.5428,-3.5428,-3.5428,-3.5428,-3.5428,-3.5428,-3.5428,-3.5428,-3.5428,-3.5428,-3.5428,-3.5428,-3.5428,-3.5428,-3.5428,-3.5428,-3.5428,-3.5387,-3.5387,-3.5221,-3.5221,-3.4983,-3.4693,-3.4621,-3.46,-3.459,-3.46,-3.4828,-3.5159,-3.5221,-3.5293,-3.5222,-3.5036,-3.4787,-3.4393,-3.3638,-3.2981,-3.1435,-2.9089,-2.7386,-2.6547,-2.5905,-2.5737,-2.5577,-2.5286,-2.502,-2.4888,-2.461,-2.461,-2.461,-2.4487,-2.4355,-2.4232,-2.4232,-2.4232,-2.4487,-2.4487,-2.4602,-2.4734,-2.4857,-2.4857,-2.4857,-2.4734,-2.461,-2.461,-2.4479,-2.4479,-2.4487,-2.4363,-2.3984,-2.3728,-2.3479,-2.323,-2.3106,-2.3106,-2.3106,-2.3106,-2.3106,-2.3106,-2.3106,-2.3106,-2.3106,-2.3106,-2.3106,-2.3106,-2.3106,-2.3106,-2.3106,-3.9697,-3.976,-4.0287,-4.0852,-4.1334,-4.1237,-4.1298,-4.133,-4.0521,-3.9674,-3.8721,-3.7188,-3.6237,-3.6002,-3.5654,-3.5428,-3.5428,-3.5428,-3.5428,-3.5428,-3.5428,-3.5428,-3.5428,-3.5428,-3.5428,-3.5428,-3.5428,-3.5428,-3.5428,-3.5428,-3.5428,-3.5428,-3.5428,-3.5428,-3.5428,-3.5428,-3.5428,-3.5428,-3.5428,-3.5428,-3.5428,-3.5428,-3.5428,-3.5428,-3.5428,-3.5428,-3.5428,-3.5428,-3.5293,-3.5117,-3.5066,-3.5055,-3.5055,-3.5055,-3.5169,-3.5324,-3.5397,-3.5428,-3.5428,-3.5428,-3.5428,-3.5036,-3.4901,-3.4083,-3.3058,-3.0871,-3.005,-2.916,-2.7437,-2.7119,-2.6885,-2.6728,-2.6438,-2.6249,-2.5937,-2.57,-2.5218,-2.4857,-2.4734,-2.4734,-2.461,-2.4734,-2.4865,-2.4857,-2.4857,-2.4857,-2.5103,-2.5103,-2.5103,-2.5103,-2.498,-2.4857,-2.4734,-2.4734,-2.4857,-2.4479,-2.4108,-2.386,-2.3487,-2.323,-2.3106,-2.3106,-2.3106,-2.3106,-2.3106,-2.3106,-2.3106,-2.3106,-2.3106,-2.3106,-2.3106,-2.3106,-2.3106,-2.3106,-2.3106,-3.9697,-3.9772,-4.0199,-4.0463,-4.0651,-4.1505,-4.202,-4.2013,-4.148,-4.1269,-4.0973,-3.8851,-3.7779,-3.6946,-3.6002,-3.5654,-3.5428,-3.5428,-3.5428,-3.5428,-3.5428,-3.5428,-3.5428,-3.5428,-3.5428,-3.5428,-3.5428,-3.5428,-3.5428,-3.5428,-3.5428,-3.5428,-3.5428,-3.5428,-3.5428,-3.5428,-3.5428,-3.5428,-3.5428,-3.5428,-3.5428,-3.5428,-3.5428,-3.5428,-3.5428,-3.5428,-3.5428,-3.5428,-3.5428,-3.5397,-3.5355,-3.5335,-3.5335,-3.5324,-3.5345,-3.5428,-3.5428,-3.5428,-3.5428,-3.5428,-3.5428,-3.5294,-3.5428,-3.4911,-3.3882,-3.3271,-3.243,-3.143,-2.9672,-2.8581,-2.8468,-2.7929,-2.7758,-2.771,-2.7338,-2.7011,-2.6402,-2.5635,-2.5365,-2.5365,-2.5242,-2.5242,-2.5111,-2.5103,-2.5103,-2.5103,-2.5103,-2.5103,-2.5103,-2.5103,-2.498,-2.498,-2.498,-2.498,-2.5103,-2.4602,-2.4108,-2.386,-2.3611,-2.3355,-2.3106,-2.3106,-2.3106,-2.3106,-2.3106,-2.3106,-2.3106,-2.3106,-2.3106,-2.3106,-2.3106,-2.3106,-2.3106,-2.3106,-2.3106,-3.9697,-3.971,-3.981,-4.0099,-4.0513,-4.0764,-4.1317,-4.2082,-4.2013,-4.2189,-4.2039,-4.1076,-3.9428,-3.7298,-3.6013,-3.5541,-3.5654,-3.5654,-3.5418,-3.5428,-3.5428,-3.5428,-3.5428,-3.5428,-3.5428,-3.5428,-3.5428,-3.5428,-3.5428,-3.5428,-3.5428,-3.5428,-3.5428,-3.5428,-3.5428,-3.5428,-3.5428,-3.5428,-3.5418,-3.5418,-3.5428,-3.5428,-3.5428,-3.5428,-3.5428,-3.5428,-3.5428,-3.5428,-3.5428,-3.5428,-3.5428,-3.5428,-3.5428,-3.5428,-3.5428,-3.5428,-3.5428,-3.5428,-3.5428,-3.5428,-3.5428,-3.5428,-3.5428,-3.5294,-3.4777,-3.4777,-3.4117,-3.3818,-3.2344,-3.076,-3.0103,-2.8975,-2.8532,-2.925,-2.9279,-2.9013,-2.8454,-2.7539,-2.6785,-2.6402,-2.5896,-2.5749,-2.5349,-2.5226,-2.5103,-2.5103,-2.5103,-2.5103,-2.5103,-2.5103,-2.5103,-2.5103,-2.5103,-2.5103,-2.5103,-2.4479,-2.4108,-2.386,-2.3611,-2.3355,-2.3106,-2.3106,-2.3106,-2.3106,-2.3106,-2.3106,-2.3106,-2.3106,-2.3106,-2.3106,-2.3106,-2.3106,-2.3106,-2.3106,-2.3106]},{"header":{"parameterUnit":"m.s-1","parameterCategory":1,"la1":31.0,"la2":29.5877,"lo1":-88.7671,"lo2":-86.6584,"dy":0.0162,"dx":0.0185,"nx":115,"ny":88,"refTime":"2023-06-13T06:00:00:Z","depth":0,"parameterNumber":3,"parameterNumberName":"V-component_of_WINDS"},"data":[0.0,0.0,0.0,0.0,0.0,0.0,0.0,0.0,0.0,0.0,0.0,0.0,0.0,0.0,0.0,0.0,0.0,0.0,0.0,0.0,0.0,0.0,0.0,0.0,0.0,0.0,0.0,0.0,0.0,0.0,0.0,0.0,0.0,0.0,0.0,0.0,0.0,0.0,0.0,0.0,0.0,0.0,0.0,0.0,0.0,0.0,0.0,0.0,0.0,0.0,0.0,0.0,0.0,0.0,0.0,0.0,0.0,0.0,0.0,0.0,0.0,0.0,0.0,0.0,0.0,0.0,0.0,0.0,0.0,0.0,0.0,0.0,0.0,0.0,0.0,0.0,0.0,0.0,0.0,0.0,0.0,0.0,0.0,0.0,0.0,0.0,0.0,0.0,0.0,0.0,0.0,0.0,0.0,0.0,0.0,0.0,0.0,0.0,0.0,0.0,0.0,0.0,0.0,0.0,0.0,0.0,0.0,0.0,0.0,0.0,0.0,0.0,0.0,0.0,0.0,0.0,0.0,0.0,0.0,0.0,0.0,0.0,0.0,0.0,0.0,0.0,0.0,0.0,0.0,0.0,0.0,0.0,0.0,0.0,0.0,0.0,0.0,0.0,0.0,0.0,0.0,0.0,0.0,0.0,0.0,0.0,0.0,0.0,0.0,0.0,0.0,0.0,0.0,0.0,0.0,0.0,0.0,0.0,0.0,0.0,0.0,0.0,0.0,0.0,0.0,0.0,0.0,0.0,0.0,0.0,0.0,0.0,0.0,0.0,0.0,0.0,0.0,0.0,0.0,0.0,0.0,0.0,0.0,0.0,0.0,0.0,0.0,0.0,0.0,0.0,0.0,0.0,0.0,0.0,0.0,0.0,0.0,0.0,0.0,0.0,0.0,0.0,0.0,0.0,0.0,0.0,0.0,0.0,0.0,0.0,0.0,0.0,0.0,0.0,0.0,0.0,0.0,0.0,0.0,0.0,0.0,0.0,0.0,0.0,0.0,0.0,0.0,0.0,0.0,0.0,0.0,0.0,0.0,0.0,0.0,0.0,0.0,0.0,0.0,0.0,0.0,0.0,0.0,0.0,0.0,0.0,0.0,0.0,0.0,0.0,0.0,0.0,0.0,0.0,0.0,0.0,0.0,0.0,0.0,0.0,0.0,0.0,0.0,0.0,0.0,0.0,0.0,0.0,0.0,0.0,0.0,0.0,0.0,0.0,0.0,0.0,0.0,0.0,0.0,0.0,0.0,0.0,0.0,0.0,0.0,0.0,0.0,0.0,0.0,0.0,0.0,0.0,0.0,0.0,0.0,0.0,0.0,0.0,0.0,0.0,0.0,0.0,0.0,0.0,0.0,0.0,0.0,0.0,0.0,0.0,0.0,0.0,0.0,0.0,0.0,0.0,0.0,0.0,0.0,0.0,0.0,0.0,0.0,0.0,0.0,0.0,0.0,0.0,0.0,0.0,0.0,0.0,0.0,0.0,0.0,0.0,0.0,0.0,0.0,0.0,0.0,0.0,0.0,0.0,0.0,0.0,0.0,0.0,0.0,0.0,0.0,0.0,0.0,0.0,0.0,0.0,0.0,0.0,0.0,0.0,0.0,0.0,0.0,0.0,0.0,0.0,0.0,0.0,0.0,0.0,0.0,0.0,0.0,0.0,0.0,0.0,0.0,0.0,0.0,0.0,0.0,0.0,0.0,0.0,0.0,0.0,0.0,0.0,0.0,0.0,0.0,0.0,0.0,0.0,0.0,0.0,0.0,0.0,0.0,0.0,0.0,0.0,0.0,0.0,0.0,0.0,0.0,0.0,0.0,0.0,0.0,0.0,0.0,0.0,0.0,0.0,0.0,0.0,0.0,0.0,0.0,0.0,0.0,0.0,0.0,0.0,0.0,0.0,0.0,0.0,0.0,0.0,0.0,0.0,0.0,0.0,0.0,0.0,0.0,0.0,0.0,0.0,0.0,0.0,0.0,0.0,0.0,0.0,0.0,0.0,0.0,0.0,0.0,0.0,0.0,0.0,0.0,0.0,0.0,0.0,0.0,0.0,0.0,0.0,0.0,0.0,0.0,0.0,0.0,0.0,0.0,0.0,0.0,0.0,0.0,0.0,0.0,0.0,0.0,0.0,0.0,0.0,0.0,0.0,0.0,0.0,0.0,0.0,0.0,0.0,0.0,0.0,0.0,0.0,0.0,0.0,0.0,0.0,0.0,0.0,0.0,0.0,0.0,0.0,0.0,0.0,0.0,0.0,0.0,0.0,0.0,0.0,0.0,0.0,0.0,0.0,0.0,0.0,0.0,0.0,0.0,0.0,0.0,0.0,0.0,0.0,0.0,0.0,0.0,0.0,0.0,0.0,0.0,0.0,0.0,0.0,0.0,0.0,0.0,0.0,0.0,0.0,0.0,0.0,0.0,0.0,0.0,0.0,0.0,0.0,0.0,0.0,0.0,0.0,0.0,0.0,0.0,0.0,0.0,0.0,0.0,0.0,0.0,0.0,0.0,0.0,0.0,0.0,0.0,0.0,0.0,0.0,0.0,0.0,0.0,0.0,0.0,0.0,0.0,0.0,0.0,0.0,0.0,0.0,0.0,0.0,0.0,0.0,0.0,0.0,0.0,0.0,0.0,0.0,0.0,0.0,0.0,0.0,0.0,0.0,0.0,0.0,0.0,0.0,0.0,0.0,0.0,0.0,0.0,0.0,0.0,0.0,0.0,0.0,0.0,0.0,0.0,0.0,0.0,0.0,0.0,0.0,0.0,0.0,0.0,0.0,0.0,0.0,0.0,0.0,0.0,0.0,0.0,0.0,0.0,0.0,0.0,0.0,0.0,0.0,0.0,0.0,0.0,0.0,0.0,0.0,0.0,0.0,0.0,0.0,0.0,0.0,0.0,0.0,0.0,0.0,0.0,0.0,0.0,0.0,0.0,0.0,0.0,0.0,0.0,0.0,0.0,0.0,0.0,0.0,0.0,0.0,0.0,0.0,0.0,0.0,0.0,0.0,0.0,0.0,0.0,0.0,0.0,0.0,0.0,0.0,0.0,0.0,0.0,0.0,0.0,0.0,0.0,0.0,0.0,0.0,0.0,0.0,0.0,0.0,0.0,0.0,0.0,0.0,0.0,0.0,0.0,0.0,0.0,0.0,0.0,0.0,0.0,0.0,0.0,0.0,0.0,0.0,0.0,0.0,0.0,0.0,0.0,0.0,0.0,0.0,0.0,0.0,0.0,0.0,0.0,0.0,0.0,0.0,0.0,0.0,0.0,0.0,0.0,0.0,0.0,0.0,0.0,0.0,0.0,0.0,0.0,0.0,0.0,0.0,0.0,0.0,0.0,0.0,0.0,0.0,0.0,0.0,0.0,0.0,0.0,0.0,0.0,0.0,0.0,0.0,0.0,0.0,0.0,0.0,0.0,0.0,0.0,0.0,0.0,0.0,0.0,0.0,0.0,0.0,0.0,0.0,0.0,0.0,0.0,0.0,0.0,0.0,0.0,0.0,0.0,0.0,0.0,0.0,0.0,0.0,0.0,0.0,0.0,0.0,0.0,0.0,0.0,0.0,0.0,0.0,0.0,0.0,0.0,0.0,0.0,0.0,0.0,0.0,0.0,0.0,0.0,0.0,0.0,0.0,0.0,0.0,0.0,0.0,0.0,0.0,0.0,0.0,0.0,0.0,0.0,0.0,0.0,0.0,0.0,0.0,0.0,0.0,0.0,0.0,0.0,0.0,0.0,0.0,0.0,0.0,0.0,0.0,0.0,0.0,0.0,0.0,0.0,0.0,0.0,0.0,0.0,0.0,0.0,0.0,0.0,0.0,0.0,0.0,0.0,0.0,0.0,0.0,0.0,0.0,0.0,0.0,0.0,0.0,0.0,0.0,0.0,0.0,0.0,0.0,0.0,0.0,0.0,0.0,0.0,0.0,0.0,0.0,0.0,0.0,0.0,0.0,0.0,0.0,0.0,0.0,0.0,0.0,0.0,0.0,0.0,0.0,0.0,0.0,0.0,0.0,0.0,0.0,0.0,0.0,0.0,0.0,0.0,0.0,0.0,0.0,0.0,0.0,0.0,0.0,0.0,0.0,0.0,0.0,0.0,0.0,0.0,0.0,0.0,0.0,0.0,0.0,0.0,0.0,0.0,0.0,0.0,0.0,0.0,0.0,0.0,0.0,0.0,0.0,0.0,0.0,0.0,0.0,0.0,0.0,0.0,0.0,0.0,0.0,0.0,0.0,0.0,0.0,0.0,0.0,0.0,0.0,0.0,0.0,0.0,0.0,-2.9918,0.0,0.0,0.0,0.0,0.0,0.0,0.0,0.0,0.0,0.0,0.0,0.0,0.0,0.0,0.0,0.0,0.0,0.0,0.0,0.0,0.0,0.0,0.0,0.0,0.0,0.0,0.0,0.0,0.0,0.0,0.0,0.0,0.0,0.0,0.0,0.0,0.0,0.0,0.0,0.0,0.0,0.0,0.0,0.0,0.0,0.0,0.0,0.0,0.0,0.0,0.0,0.0,0.0,0.0,0.0,0.0,0.0,0.0,0.0,0.0,0.0,0.0,0.0,0.0,0.0,0.0,0.0,0.0,0.0,0.0,0.0,0.0,0.0,0.0,0.0,0.0,0.0,0.0,0.0,0.0,0.0,0.0,0.0,0.0,0.0,0.0,0.0,0.0,0.0,0.0,0.0,0.0,0.0,0.0,0.0,0.0,0.0,0.0,0.0,0.0,0.0,0.0,0.0,0.0,0.0,0.0,0.0,0.0,0.0,0.0,-2.8935,-2.9275,-2.9664,-2.9918,-2.9918,0.0,0.0,0.0,0.0,0.0,0.0,0.0,0.0,0.0,0.0,0.0,0.0,0.0,0.0,0.0,0.0,0.0,0.0,0.0,0.0,0.0,0.0,0.0,0.0,0.0,0.0,0.0,0.0,0.0,0.0,0.0,0.0,0.0,0.0,0.0,0.0,0.0,0.0,0.0,0.0,0.0,0.0,0.0,0.0,0.0,0.0,0.0,0.0,0.0,0.0,0.0,0.0,0.0,0.0,0.0,0.0,0.0,0.0,0.0,0.0,0.0,0.0,0.0,0.0,0.0,0.0,0.0,0.0,0.0,0.0,0.0,0.0,0.0,0.0,0.0,0.0,0.0,0.0,0.0,0.0,0.0,0.0,0.0,0.0,0.0,0.0,0.0,0.0,0.0,0.0,0.0,0.0,0.0,0.0,0.0,0.0,0.0,0.0,0.0,0.0,0.0,0.0,0.0,0.0,0.0,0.0,0.0,0.0,0.0,0.0,0.0,0.0,-2.9205,-2.9432,-2.9389,0.0,0.0,0.0,0.0,0.0,0.0,0.0,0.0,0.0,0.0,0.0,0.0,0.0,0.0,0.0,0.0,0.0,0.0,0.0,0.0,0.0,0.0,0.0,0.0,0.0,0.0,0.0,0.0,0.0,0.0,0.0,0.0,0.0,0.0,0.0,0.0,0.0,0.0,0.0,0.0,0.0,0.0,0.0,0.0,0.0,0.0,0.0,0.0,0.0,0.0,0.0,0.0,0.0,0.0,0.0,0.0,0.0,0.0,0.0,0.0,0.0,0.0,0.0,0.0,0.0,0.0,0.0,0.0,0.0,0.0,0.0,0.0,0.0,0.0,0.0,0.0,0.0,0.0,0.0,0.0,0.0,0.0,0.0,0.0,0.0,0.0,0.0,0.0,0.0,0.0,0.0,0.0,0.0,0.0,0.0,0.0,0.0,0.0,0.0,0.0,0.0,0.0,0.0,0.0,0.0,0.0,0.0,0.0,0.0,0.0,-2.7478,-2.8725,-2.8223,0.0,-2.7948,0.0,0.0,0.0,0.0,0.0,0.0,0.0,0.0,0.0,0.0,0.0,0.0,0.0,0.0,0.0,0.0,0.0,0.0,0.0,0.0,0.0,0.0,0.0,0.0,0.0,0.0,0.0,0.0,0.0,0.0,0.0,0.0,0.0,0.0,0.0,0.0,0.0,0.0,0.0,0.0,0.0,0.0,0.0,0.0,0.0,0.0,0.0,0.0,0.0,0.0,0.0,0.0,0.0,0.0,0.0,0.0,0.0,0.0,0.0,0.0,0.0,0.0,0.0,0.0,0.0,0.0,0.0,0.0,0.0,0.0,0.0,0.0,0.0,0.0,0.0,0.0,0.0,0.0,0.0,0.0,0.0,0.0,0.0,0.0,0.0,0.0,0.0,0.0,0.0,0.0,0.0,0.0,0.0,0.0,0.0,0.0,0.0,0.0,0.0,0.0,0.0,0.0,0.0,0.0,0.0,0.0,0.0,0.0,0.0,0.0,-2.6976,-2.7543,-2.7656,-2.7721,0.0,0.0,0.0,0.0,0.0,0.0,0.0,0.0,0.0,0.0,0.0,0.0,0.0,0.0,0.0,0.0,0.0,0.0,0.0,0.0,0.0,0.0,0.0,0.0,0.0,0.0,0.0,0.0,0.0,0.0,0.0,0.0,0.0,0.0,0.0,0.0,0.0,0.0,0.0,0.0,0.0,0.0,0.0,0.0,0.0,0.0,0.0,0.0,0.0,0.0,0.0,0.0,0.0,0.0,0.0,0.0,0.0,0.0,0.0,0.0,0.0,0.0,0.0,0.0,0.0,0.0,0.0,0.0,0.0,0.0,0.0,0.0,0.0,0.0,0.0,0.0,0.0,0.0,0.0,0.0,0.0,0.0,0.0,0.0,0.0,0.0,0.0,0.0,0.0,0.0,0.0,0.0,0.0,0.0,0.0,0.0,0.0,0.0,0.0,0.0,0.0,0.0,0.0,0.0,0.0,0.0,0.0,0.0,0.0,0.0,-2.6134,-2.6409,-2.6442,-2.7251,-2.7527,-2.7154,0.0,0.0,0.0,0.0,0.0,0.0,0.0,0.0,0.0,0.0,0.0,0.0,0.0,0.0,0.0,0.0,0.0,0.0,0.0,0.0,0.0,0.0,0.0,0.0,0.0,0.0,0.0,0.0,0.0,0.0,0.0,0.0,0.0,0.0,0.0,0.0,0.0,0.0,0.0,0.0,0.0,0.0,0.0,0.0,0.0,0.0,0.0,0.0,0.0,0.0,0.0,0.0,0.0,0.0,0.0,0.0,0.0,0.0,0.0,0.0,0.0,0.0,0.0,0.0,0.0,0.0,0.0,0.0,0.0,0.0,0.0,0.0,0.0,0.0,0.0,0.0,0.0,0.0,0.0,0.0,0.0,0.0,0.0,0.0,0.0,0.0,0.0,0.0,0.0,0.0,0.0,0.0,0.0,0.0,0.0,0.0,0.0,0.0,0.0,0.0,0.0,0.0,0.0,0.0,0.0,0.0,0.0,0.0,-2.5616,-2.5664,-2.5681,-2.5713,-2.6992,-2.7073,0.0,0.0,0.0,0.0,0.0,0.0,0.0,0.0,0.0,0.0,0.0,0.0,0.0,0.0,0.0,0.0,0.0,0.0,0.0,0.0,0.0,0.0,0.0,0.0,0.0,0.0,0.0,0.0,0.0,0.0,0.0,0.0,0.0,0.0,0.0,0.0,0.0,0.0,0.0,0.0,0.0,0.0,0.0,0.0,0.0,0.0,0.0,0.0,0.0,0.0,0.0,0.0,0.0,0.0,0.0,0.0,0.0,0.0,0.0,0.0,0.0,0.0,0.0,0.0,0.0,0.0,0.0,0.0,0.0,0.0,0.0,0.0,0.0,0.0,0.0,0.0,0.0,0.0,0.0,0.0,0.0,0.0,0.0,0.0,0.0,0.0,0.0,0.0,0.0,0.0,0.0,0.0,0.0,0.0,0.0,0.0,0.0,0.0,0.0,0.0,0.0,0.0,0.0,0.0,0.0,0.0,0.0,0.0,0.0,-2.5616,-2.5616,-2.5616,-2.5632,-2.6102,-2.6118,0.0,0.0,0.0,0.0,0.0,0.0,0.0,0.0,0.0,0.0,0.0,0.0,0.0,0.0,0.0,0.0,0.0,0.0,0.0,0.0,0.0,0.0,0.0,0.0,0.0,0.0,0.0,0.0,0.0,0.0,0.0,0.0,0.0,0.0,0.0,0.0,0.0,0.0,0.0,0.0,0.0,0.0,0.0,0.0,0.0,0.0,0.0,0.0,0.0,0.0,0.0,0.0,0.0,0.0,0.0,0.0,0.0,0.0,0.0,0.0,0.0,0.0,0.0,0.0,0.0,0.0,0.0,0.0,0.0,0.0,0.0,0.0,0.0,0.0,0.0,0.0,0.0,0.0,0.0,0.0,0.0,0.0,0.0,0.0,0.0,0.0,0.0,0.0,0.0,0.0,0.0,0.0,0.0,0.0,0.0,0.0,0.0,0.0,0.0,0.0,0.0,0.0,0.0,0.0,0.0,0.0,0.0,0.0,0.0,-2.5616,0.0,-2.5616,-2.5616,-2.5616,-2.5616,0.0,0.0,0.0,0.0,0.0,0.0,0.0,0.0,0.0,0.0,0.0,0.0,0.0,0.0,0.0,0.0,0.0,0.0,0.0,0.0,0.0,0.0,0.0,0.0,0.0,0.0,0.0,0.0,0.0,0.0,0.0,0.0,0.0,0.0,0.0,0.0,0.0,0.0,0.0,0.0,0.0,0.0,0.0,0.0,0.0,0.0,0.0,0.0,0.0,0.0,0.0,0.0,0.0,0.0,0.0,0.0,0.0,0.0,0.0,0.0,0.0,0.0,0.0,0.0,0.0,0.0,0.0,0.0,0.0,0.0,0.0,0.0,0.0,0.0,0.0,0.0,0.0,0.0,0.0,0.0,0.0,0.0,0.0,0.0,0.0,0.0,0.0,0.0,0.0,0.0,0.0,0.0,0.0,0.0,0.0,0.0,0.0,0.0,0.0,0.0,0.0,0.0,0.0,0.0,0.0,0.0,0.0,0.0,-2.5897,-2.5616,-2.5616,-2.5616,-2.5616,-2.5616,-2.5616,0.0,0.0,0.0,0.0,0.0,0.0,0.0,0.0,0.0,0.0,0.0,0.0,0.0,0.0,0.0,0.0,0.0,0.0,0.0,0.0,0.0,0.0,0.0,0.0,0.0,0.0,0.0,0.0,0.0,0.0,0.0,0.0,0.0,0.0,0.0,0.0,0.0,0.0,0.0,0.0,0.0,0.0,0.0,0.0,0.0,0.0,0.0,0.0,0.0,0.0,0.0,0.0,0.0,0.0,0.0,0.0,0.0,0.0,0.0,0.0,0.0,0.0,0.0,0.0,0.0,0.0,0.0,0.0,0.0,0.0,0.0,0.0,0.0,0.0,0.0,0.0,0.0,0.0,0.0,0.0,0.0,0.0,0.0,0.0,0.0,0.0,0.0,0.0,0.0,0.0,0.0,0.0,0.0,0.0,0.0,0.0,0.0,0.0,0.0,0.0,0.0,0.0,0.0,0.0,0.0,0.0,0.0,0.0,0.0,-2.5632,-2.5616,-2.5616,-2.5616,-2.5616,-2.5432,0.0,0.0,0.0,0.0,0.0,0.0,0.0,0.0,0.0,0.0,0.0,0.0,0.0,0.0,0.0,0.0,0.0,0.0,0.0,0.0,0.0,0.0,0.0,0.0,0.0,0.0,0.0,0.0,0.0,0.0,0.0,0.0,0.0,0.0,0.0,0.0,0.0,0.0,0.0,0.0,0.0,0.0,0.0,0.0,0.0,0.0,0.0,0.0,0.0,0.0,0.0,0.0,0.0,0.0,0.0,0.0,0.0,0.0,0.0,0.0,0.0,0.0,0.0,0.0,0.0,0.0,0.0,0.0,0.0,0.0,0.0,0.0,0.0,0.0,0.0,0.0,0.0,0.0,0.0,0.0,0.0,0.0,0.0,0.0,0.0,0.0,0.0,0.0,0.0,0.0,0.0,0.0,0.0,0.0,0.0,0.0,0.0,0.0,0.0,0.0,0.0,0.0,0.0,0.0,0.0,0.0,0.0,0.0,0.0,-2.7203,-2.6927,-2.6668,-2.6409,-2.6652,-2.6326,-2.5329,0.0,0.0,0.0,0.0,0.0,0.0,0.0,0.0,0.0,0.0,0.0,0.0,0.0,0.0,0.0,0.0,0.0,0.0,0.0,0.0,0.0,0.0,0.0,0.0,0.0,0.0,0.0,0.0,0.0,0.0,0.0,0.0,0.0,0.0,0.0,0.0,0.0,0.0,0.0,0.0,0.0,0.0,0.0,0.0,0.0,0.0,0.0,0.0,0.0,0.0,0.0,0.0,0.0,0.0,0.0,0.0,0.0,0.0,0.0,0.0,0.0,0.0,0.0,0.0,0.0,0.0,0.0,0.0,0.0,0.0,0.0,0.0,0.0,0.0,0.0,0.0,0.0,0.0,0.0,0.0,0.0,0.0,0.0,0.0,0.0,0.0,0.0,0.0,0.0,0.0,0.0,0.0,0.0,0.0,0.0,0.0,0.0,0.0,0.0,0.0,0.0,0.0,0.0,0.0,0.0,0.0,0.0,0.0,-2.9972,-2.9378,-2.8705,-2.7913,-2.843,-2.7913,0.0,0.0,0.0,0.0,0.0,0.0,0.0,0.0,0.0,0.0,0.0,0.0,0.0,0.0,0.0,0.0,0.0,0.0,0.0,0.0,0.0,0.0,0.0,0.0,0.0,0.0,0.0,0.0,0.0,0.0,0.0,0.0,0.0,0.0,0.0,0.0,0.0,0.0,0.0,0.0,0.0,0.0,0.0,0.0,0.0,0.0,0.0,0.0,0.0,0.0,0.0,0.0,0.0,0.0,0.0,0.0,0.0,0.0,0.0,0.0,0.0,0.0,0.0,0.0,0.0,0.0,0.0,0.0,0.0,0.0,0.0,0.0,0.0,0.0,0.0,0.0,0.0,0.0,0.0,0.0,0.0,0.0,0.0,0.0,0.0,0.0,0.0,0.0,0.0,0.0,0.0,0.0,0.0,0.0,0.0,0.0,0.0,0.0,0.0,0.0,0.0,0.0,0.0,0.0,0.0,0.0,0.0,0.0,0.0,-3.0719,-3.156,-3.1451,-3.0165,-2.892,-2.7873,0.0,0.0,0.0,0.0,0.0,0.0,0.0,0.0,0.0,0.0,0.0,0.0,0.0,0.0,0.0,0.0,0.0,0.0,0.0,0.0,0.0,0.0,0.0,0.0,0.0,0.0,0.0,0.0,0.0,0.0,0.0,0.0,0.0,0.0,0.0,0.0,0.0,0.0,0.0,0.0,0.0,0.0,0.0,0.0,0.0,0.0,0.0,0.0,0.0,0.0,0.0,0.0,0.0,0.0,0.0,0.0,0.0,0.0,0.0,0.0,0.0,0.0,0.0,0.0,0.0,0.0,0.0,0.0,0.0,0.0,0.0,0.0,0.0,0.0,0.0,0.0,0.0,0.0,0.0,0.0,0.0,0.0,0.0,0.0,0.0,0.0,0.0,0.0,0.0,0.0,0.0,0.0,0.0,0.0,0.0,0.0,0.0,0.0,0.0,0.0,0.0,0.0,0.0,0.0,0.0,0.0,0.0,0.0,-3.1466,-3.1911,-3.3615,-3.4002,-3.289,-3.0646,-2.8915,0.0,0.0,0.0,0.0,0.0,0.0,0.0,0.0,0.0,0.0,0.0,0.0,0.0,0.0,0.0,0.0,0.0,0.0,0.0,0.0,0.0,0.0,0.0,0.0,0.0,0.0,0.0,0.0,0.0,0.0,0.0,0.0,0.0,0.0,0.0,0.0,0.0,0.0,0.0,0.0,0.0,0.0,0.0,0.0,0.0,0.0,0.0,0.0,0.0,0.0,0.0,0.0,0.0,0.0,0.0,0.0,0.0,0.0,0.0,0.0,0.0,0.0,0.0,0.0,0.0,0.0,0.0,0.0,0.0,0.0,0.0,0.0,0.0,0.0,0.0,0.0,0.0,0.0,0.0,0.0,0.0,0.0,0.0,0.0,0.0,0.0,0.0,0.0,0.0,0.0,0.0,0.0,0.0,0.0,0.0,0.0,0.0,0.0,0.0,0.0,0.0,0.0,0.0,0.0,0.0,0.0,0.0,0.0,-3.3083,-3.3238,-3.5179,-3.5882,-3.526,-3.2639,-3.044,0.0,0.0,0.0,0.0,0.0,0.0,0.0,0.0,0.0,0.0,0.0,0.0,0.0,0.0,0.0,0.0,0.0,0.0,0.0,0.0,0.0,0.0,0.0,0.0,0.0,0.0,0.0,0.0,0.0,0.0,0.0,0.0,0.0,0.0,0.0,0.0,0.0,0.0,0.0,0.0,0.0,0.0,0.0,0.0,0.0,0.0,0.0,0.0,0.0,0.0,0.0,0.0,0.0,0.0,0.0,0.0,0.0,0.0,0.0,0.0,0.0,0.0,0.0,0.0,0.0,0.0,0.0,0.0,0.0,0.0,0.0,0.0,0.0,0.0,0.0,0.0,0.0,0.0,0.0,0.0,0.0,0.0,0.0,0.0,0.0,0.0,0.0,0.0,0.0,0.0,0.0,0.0,0.0,0.0,0.0,0.0,0.0,0.0,0.0,0.0,0.0,0.0,0.0,0.0,0.0,0.0,0.0,0.0,-3.2903,-3.3994,-3.4592,-3.4773,-3.4587,-3.2082,-3.0587,0.0,0.0,0.0,0.0,0.0,0.0,0.0,0.0,0.0,0.0,0.0,0.0,0.0,0.0,0.0,0.0,0.0,0.0,0.0,0.0,0.0,0.0,0.0,0.0,0.0,0.0,0.0,0.0,0.0,0.0,0.0,0.0,0.0,0.0,0.0,0.0,0.0,0.0,0.0,0.0,0.0,0.0,0.0,0.0,0.0,0.0,0.0,0.0,-2.747,0.0,0.0,0.0,0.0,0.0,0.0,0.0,0.0,0.0,0.0,0.0,0.0,0.0,0.0,0.0,0.0,0.0,0.0,0.0,0.0,0.0,0.0,0.0,0.0,0.0,0.0,0.0,0.0,0.0,0.0,0.0,0.0,0.0,0.0,0.0,0.0,0.0,0.0,0.0,0.0,0.0,0.0,0.0,0.0,0.0,0.0,0.0,0.0,0.0,0.0,0.0,0.0,0.0,0.0,0.0,0.0,0.0,0.0,0.0,-3.3125,-3.425,-3.4663,-3.4721,-3.4341,-3.2513,-3.1206,0.0,0.0,0.0,0.0,0.0,0.0,0.0,0.0,0.0,0.0,0.0,0.0,0.0,0.0,0.0,0.0,0.0,0.0,0.0,0.0,0.0,0.0,0.0,0.0,0.0,0.0,0.0,0.0,0.0,0.0,0.0,0.0,0.0,0.0,0.0,0.0,0.0,0.0,0.0,0.0,0.0,0.0,0.0,0.0,0.0,0.0,0.0,0.0,0.0,0.0,0.0,0.0,0.0,0.0,0.0,0.0,0.0,0.0,0.0,0.0,0.0,0.0,0.0,0.0,0.0,0.0,0.0,0.0,0.0,0.0,0.0,0.0,0.0,0.0,0.0,0.0,0.0,0.0,0.0,0.0,0.0,0.0,0.0,0.0,0.0,0.0,0.0,0.0,0.0,0.0,0.0,0.0,0.0,0.0,0.0,0.0,0.0,0.0,0.0,0.0,0.0,0.0,0.0,0.0,0.0,0.0,0.0,-3.2645,-3.3401,-3.4438,-3.4958,-3.4957,-3.4385,-3.318,-3.1903,-3.0611,0.0,0.0,0.0,0.0,0.0,0.0,0.0,0.0,0.0,0.0,0.0,0.0,0.0,0.0,0.0,0.0,0.0,0.0,0.0,0.0,0.0,0.0,0.0,0.0,0.0,0.0,0.0,0.0,0.0,0.0,0.0,0.0,0.0,0.0,0.0,0.0,0.0,0.0,-2.782,-2.7622,0.0,0.0,0.0,0.0,0.0,0.0,0.0,0.0,-2.8277,0.0,0.0,0.0,0.0,0.0,0.0,0.0,0.0,0.0,0.0,0.0,0.0,0.0,0.0,0.0,0.0,0.0,0.0,0.0,0.0,0.0,0.0,0.0,0.0,0.0,0.0,0.0,0.0,0.0,0.0,0.0,0.0,0.0,0.0,0.0,0.0,0.0,0.0,0.0,0.0,0.0,0.0,0.0,0.0,0.0,0.0,0.0,0.0,0.0,0.0,0.0,0.0,0.0,0.0,0.0,0.0,-3.2902,-3.2078,-3.281,-3.5123,-3.4802,-3.4549,-3.437,-3.318,-3.1903,-3.0611,0.0,0.0,0.0,0.0,0.0,0.0,0.0,0.0,0.0,0.0,0.0,0.0,0.0,0.0,0.0,0.0,0.0,0.0,0.0,0.0,0.0,0.0,0.0,0.0,0.0,0.0,0.0,0.0,0.0,0.0,0.0,0.0,0.0,0.0,0.0,0.0,0.0,0.0,0.0,-2.8293,-2.795,0.0,0.0,0.0,0.0,0.0,0.0,0.0,0.0,-2.9466,0.0,0.0,0.0,0.0,0.0,0.0,0.0,0.0,0.0,0.0,0.0,0.0,0.0,0.0,0.0,0.0,0.0,0.0,0.0,0.0,0.0,0.0,0.0,0.0,0.0,0.0,0.0,0.0,0.0,0.0,0.0,0.0,0.0,0.0,0.0,0.0,0.0,0.0,0.0,0.0,0.0,0.0,0.0,0.0,0.0,0.0,0.0,0.0,0.0,0.0,0.0,0.0,0.0,0.0,0.0,-3.3255,-3.31,-3.3849,-3.5469,-3.4787,-3.4414,-3.4385,-3.318,-3.1903,0.0,0.0,0.0,0.0,0.0,0.0,0.0,0.0,0.0,0.0,0.0,0.0,0.0,0.0,0.0,0.0,0.0,0.0,0.0,0.0,0.0,0.0,0.0,0.0,0.0,0.0,0.0,0.0,0.0,0.0,0.0,0.0,0.0,0.0,0.0,0.0,0.0,0.0,0.0,0.0,-2.9026,-2.9032,-3.0107,0.0,0.0,0.0,0.0,0.0,0.0,-2.9496,-2.9444,0.0,0.0,0.0,0.0,0.0,0.0,0.0,0.0,0.0,0.0,0.0,0.0,0.0,0.0,0.0,0.0,0.0,0.0,0.0,0.0,0.0,0.0,0.0,0.0,0.0,0.0,0.0,0.0,0.0,0.0,0.0,0.0,0.0,0.0,0.0,0.0,0.0,0.0,0.0,0.0,0.0,0.0,0.0,0.0,0.0,0.0,0.0,0.0,0.0,0.0,0.0,0.0,0.0,0.0,0.0,-3.3282,-3.3877,-3.4577,-3.5355,-3.4721,-3.4414,-3.4385,-3.2919,-3.1642,0.0,0.0,0.0,0.0,0.0,0.0,0.0,0.0,0.0,0.0,0.0,0.0,0.0,0.0,0.0,0.0,0.0,0.0,0.0,0.0,0.0,0.0,0.0,0.0,0.0,0.0,0.0,0.0,0.0,0.0,0.0,0.0,0.0,0.0,0.0,0.0,0.0,0.0,0.0,0.0,0.0,-3.0142,-3.1219,-3.0186,0.0,0.0,0.0,0.0,-2.956,-2.994,0.0,0.0,0.0,0.0,0.0,0.0,0.0,0.0,0.0,0.0,0.0,0.0,0.0,0.0,0.0,0.0,0.0,0.0,0.0,0.0,0.0,0.0,0.0,0.0,0.0,0.0,0.0,0.0,0.0,0.0,0.0,0.0,0.0,0.0,0.0,0.0,0.0,0.0,0.0,0.0,0.0,0.0,0.0,0.0,0.0,0.0,0.0,0.0,0.0,0.0,0.0,0.0,0.0,0.0,0.0,0.0,-3.2241,-3.2751,-3.3524,-3.4461,-3.4467,-3.4414,-3.4385,-3.2063,-3.0742,0.0,0.0,0.0,0.0,0.0,0.0,0.0,0.0,0.0,0.0,0.0,0.0,0.0,0.0,0.0,0.0,0.0,0.0,0.0,0.0,0.0,0.0,0.0,0.0,0.0,0.0,0.0,0.0,0.0,0.0,0.0,0.0,0.0,0.0,0.0,0.0,0.0,0.0,0.0,0.0,0.0,-3.0497,-3.1601,-3.0602,-2.9709,0.0,0.0,-3.1752,-3.1916,-3.3511,0.0,0.0,0.0,0.0,0.0,0.0,0.0,0.0,0.0,0.0,0.0,0.0,0.0,0.0,0.0,0.0,0.0,0.0,0.0,0.0,0.0,0.0,0.0,0.0,0.0,0.0,0.0,0.0,0.0,0.0,0.0,0.0,0.0,0.0,0.0,0.0,0.0,0.0,0.0,0.0,0.0,0.0,0.0,0.0,0.0,0.0,0.0,0.0,0.0,0.0,0.0,0.0,0.0,0.0,0.0,-3.2819,-3.2563,-3.4208,-3.4943,-3.4706,-3.4481,-3.4414,-3.4399,-3.1917,-3.0642,0.0,0.0,0.0,0.0,0.0,0.0,0.0,0.0,0.0,0.0,0.0,0.0,0.0,0.0,0.0,0.0,0.0,0.0,0.0,0.0,0.0,0.0,0.0,0.0,0.0,0.0,0.0,0.0,0.0,0.0,0.0,0.0,0.0,0.0,0.0,0.0,0.0,0.0,0.0,0.0,0.0,0.0,-3.2496,-3.2075,0.0,0.0,0.0,-3.172,-3.1014,0.0,0.0,0.0,0.0,0.0,0.0,0.0,0.0,0.0,0.0,0.0,0.0,0.0,0.0,0.0,0.0,0.0,0.0,0.0,0.0,0.0,0.0,0.0,0.0,0.0,0.0,0.0,0.0,0.0,0.0,0.0,0.0,0.0,0.0,0.0,0.0,0.0,0.0,0.0,0.0,0.0,0.0,0.0,0.0,0.0,0.0,0.0,0.0,0.0,0.0,0.0,0.0,0.0,0.0,0.0,0.0,0.0,-3.2796,-3.5295,-3.6072,-3.492,-3.4668,-3.4481,-3.4438,-3.23,0.0,0.0,0.0,0.0,0.0,0.0,0.0,0.0,0.0,0.0,0.0,0.0,0.0,0.0,0.0,0.0,0.0,0.0,0.0,0.0,0.0,0.0,0.0,0.0,0.0,0.0,0.0,-2.7979,0.0,0.0,0.0,0.0,0.0,0.0,0.0,0.0,0.0,0.0,0.0,0.0,0.0,0.0,-3.3587,-3.3483,-3.3541,-3.3741,0.0,0.0,-3.2422,-3.2092,-3.4568,-3.5428,0.0,0.0,0.0,0.0,0.0,0.0,0.0,0.0,0.0,0.0,0.0,0.0,0.0,0.0,0.0,0.0,0.0,0.0,0.0,0.0,0.0,0.0,0.0,0.0,0.0,0.0,0.0,0.0,0.0,0.0,0.0,0.0,0.0,0.0,0.0,0.0,0.0,0.0,0.0,0.0,0.0,0.0,0.0,0.0,0.0,0.0,0.0,0.0,0.0,0.0,0.0,0.0,0.0,0.0,-3.3403,-3.253,-3.4956,-3.5816,-3.4935,-3.4868,-3.4817,-3.4668,-3.3381,-3.2003,0.0,0.0,0.0,0.0,0.0,0.0,0.0,0.0,0.0,0.0,0.0,0.0,0.0,0.0,0.0,0.0,0.0,0.0,0.0,0.0,0.0,0.0,0.0,0.0,0.0,0.0,0.0,0.0,0.0,0.0,0.0,0.0,0.0,0.0,0.0,0.0,0.0,0.0,0.0,0.0,0.0,-3.4263,-3.4392,-3.455,-3.5381,0.0,-3.5854,-3.5334,-3.74,-3.9469,-3.9516,-3.5613,0.0,0.0,0.0,0.0,0.0,0.0,0.0,0.0,0.0,0.0,0.0,0.0,0.0,0.0,0.0,0.0,0.0,0.0,0.0,0.0,0.0,0.0,0.0,0.0,0.0,0.0,0.0,0.0,0.0,0.0,0.0,0.0,0.0,0.0,0.0,0.0,0.0,0.0,0.0,0.0,0.0,0.0,0.0,0.0,0.0,0.0,0.0,0.0,0.0,0.0,0.0,0.0,0.0,-3.3866,-3.2648,-3.5208,-3.6024,-3.4935,-3.4683,-3.4549,-3.4481,-3.339,-3.2167,0.0,0.0,0.0,0.0,0.0,0.0,0.0,0.0,0.0,0.0,0.0,0.0,0.0,0.0,0.0,0.0,0.0,0.0,0.0,0.0,0.0,0.0,0.0,0.0,0.0,0.0,0.0,0.0,-3.1285,-3.127,-3.0073,0.0,0.0,0.0,0.0,0.0,0.0,0.0,0.0,0.0,0.0,-3.5823,-3.7049,-3.7356,0.0,0.0,-3.7416,-3.6531,-3.6213,-3.7887,-3.7886,-3.3927,-3.325,0.0,0.0,0.0,0.0,0.0,0.0,0.0,0.0,0.0,0.0,0.0,0.0,0.0,0.0,0.0,0.0,0.0,0.0,0.0,0.0,0.0,0.0,0.0,0.0,0.0,0.0,0.0,-3.0417,0.0,0.0,0.0,0.0,0.0,0.0,0.0,0.0,0.0,0.0,0.0,0.0,0.0,0.0,0.0,0.0,0.0,0.0,0.0,0.0,0.0,0.0,0.0,0.0,-3.4218,-3.3049,-3.5645,-3.6446,-3.5314,-3.4868,-3.4601,-3.452,-3.382,-3.2801,0.0,0.0,0.0,0.0,0.0,0.0,0.0,0.0,0.0,0.0,0.0,0.0,0.0,0.0,0.0,0.0,0.0,0.0,0.0,0.0,0.0,0.0,0.0,0.0,0.0,0.0,0.0,0.0,-3.1883,-3.1799,-3.0472,0.0,0.0,0.0,0.0,0.0,0.0,0.0,0.0,0.0,0.0,-3.7404,-3.8181,-3.8424,-3.8367,-3.8056,-3.7118,-3.6216,-3.5466,-3.6648,-3.6699,-3.3962,0.0,0.0,0.0,0.0,0.0,0.0,0.0,0.0,0.0,0.0,0.0,0.0,0.0,0.0,0.0,0.0,0.0,0.0,0.0,0.0,0.0,0.0,0.0,0.0,0.0,0.0,0.0,-3.0434,0.0,0.0,-3.0534,0.0,0.0,0.0,0.0,0.0,0.0,0.0,0.0,0.0,0.0,0.0,0.0,0.0,0.0,0.0,0.0,0.0,0.0,0.0,0.0,0.0,0.0,-3.4382,-3.3813,-3.6133,-3.6951,-3.6211,-3.5524,-3.5096,-3.4883,-3.4905,-3.4271,-3.2992,0.0,0.0,0.0,0.0,0.0,0.0,0.0,0.0,0.0,0.0,0.0,0.0,0.0,0.0,0.0,0.0,0.0,0.0,0.0,0.0,0.0,0.0,0.0,0.0,0.0,0.0,-2.8732,-3.0569,-3.1997,0.0,0.0,0.0,0.0,0.0,0.0,0.0,0.0,0.0,-3.3048,-3.6787,-3.8841,-3.7107,-3.6931,-3.6943,-3.6592,-3.487,-3.4268,-3.6329,-3.6727,-3.6865,0.0,0.0,0.0,0.0,0.0,0.0,0.0,0.0,0.0,0.0,0.0,0.0,0.0,0.0,0.0,0.0,0.0,0.0,0.0,0.0,0.0,0.0,0.0,0.0,0.0,0.0,0.0,-3.3516,-3.3396,0.0,0.0,0.0,0.0,0.0,0.0,0.0,0.0,0.0,0.0,0.0,-3.5611,-3.5628,0.0,0.0,0.0,0.0,0.0,0.0,0.0,0.0,0.0,0.0,0.0,0.0,-3.4497,-3.396,-3.602,-3.7047,-3.6807,-3.6022,-3.5651,-3.5569,-3.5718,-3.5035,-3.3406,0.0,0.0,0.0,0.0,0.0,0.0,0.0,0.0,0.0,0.0,0.0,0.0,0.0,0.0,0.0,0.0,0.0,0.0,0.0,0.0,0.0,0.0,0.0,0.0,0.0,-3.0983,0.0,0.0,0.0,0.0,0.0,0.0,0.0,0.0,0.0,0.0,-3.2831,-3.3923,-3.5531,-3.5778,-3.6025,-3.6666,-3.6816,-3.7308,0.0,0.0,0.0,0.0,0.0,0.0,0.0,0.0,0.0,0.0,0.0,0.0,0.0,0.0,-3.548,-3.4501,-3.6093,-3.7784,-3.8342,0.0,0.0,0.0,0.0,0.0,0.0,0.0,0.0,0.0,0.0,0.0,0.0,0.0,0.0,-3.5507,-3.4949,-3.5446,0.0,0.0,0.0,0.0,0.0,0.0,0.0,0.0,-3.6704,-3.7417,-3.7864,-3.7864,-3.7864,-3.7831,-3.735,-3.5628,0.0,0.0,0.0,0.0,0.0,0.0,0.0,0.0,-3.5399,-3.5045,-3.715,-3.8103,-3.7802,-3.7065,-3.6544,-3.6369,-3.652,-3.5955,-3.4592,-3.326,-3.2063,0.0,0.0,0.0,0.0,0.0,0.0,0.0,0.0,0.0,0.0,0.0,0.0,0.0,0.0,0.0,0.0,0.0,0.0,0.0,0.0,0.0,0.0,0.0,-3.197,0.0,0.0,0.0,0.0,0.0,0.0,0.0,0.0,0.0,-3.3375,-3.4087,-3.5098,-3.6539,-3.6141,-3.5794,-3.6075,0.0,0.0,0.0,0.0,0.0,0.0,0.0,-3.3193,-3.2531,-3.2845,-3.3657,-3.5081,-3.6108,-3.6754,-3.6968,0.0,0.0,-3.6531,-3.803,-3.983,-4.0406,-4.0815,-4.1262,-4.1757,-4.16,-4.1609,0.0,0.0,0.0,0.0,-3.6898,0.0,0.0,0.0,-3.7831,-3.6882,0.0,-3.6704,0.0,0.0,0.0,0.0,-3.5164,-3.6506,0.0,0.0,-4.005,-4.0696,-3.9487,-3.9437,-3.9421,-3.9322,-3.8063,-3.7384,-3.7301,-3.7317,-3.6473,0.0,0.0,0.0,0.0,0.0,-3.7135,-3.72,-3.9308,-4.0071,-3.9283,-3.8642,-3.7946,-3.7327,-3.7351,-3.7105,-3.6492,-3.525,-3.4247,-3.3559,-3.1734,0.0,0.0,0.0,0.0,0.0,0.0,0.0,0.0,0.0,0.0,0.0,0.0,0.0,0.0,0.0,0.0,0.0,0.0,0.0,0.0,-3.1726,0.0,0.0,0.0,0.0,0.0,0.0,0.0,0.0,0.0,-3.3607,-3.2994,-3.4634,-3.5959,-3.5959,0.0,0.0,0.0,0.0,-3.5861,-3.3241,-3.2182,-3.1819,-3.1951,-3.2486,-3.3607,-3.5644,0.0,0.0,-3.8261,-3.7168,-3.6652,-3.7039,-3.9606,-4.0829,-3.8807,-3.9531,-4.0411,-4.0622,-4.1687,-4.2282,-4.2358,-4.2929,-4.3188,-4.0861,0.0,0.0,0.0,0.0,-3.9324,-3.9844,-4.0949,-4.0545,-4.0043,-3.957,-3.9984,0.0,0.0,0.0,0.0,0.0,0.0,-3.9206,-4.0199,-4.1044,-4.1756,-4.2386,-4.2386,-4.2386,-4.2353,-4.1955,-4.1756,-4.1756,-4.1756,-3.9437,-3.4949,0.0,0.0,0.0,0.0,-3.7615,-3.8692,-3.9887,-4.0615,-4.0809,-4.0151,-3.952,-3.8833,-3.7918,-3.7315,-3.715,-3.6761,-3.6058,-3.4966,-3.4382,0.0,0.0,0.0,0.0,0.0,0.0,0.0,0.0,0.0,0.0,0.0,0.0,0.0,0.0,0.0,0.0,0.0,0.0,0.0,-3.1742,-3.3157,-3.3442,0.0,0.0,0.0,0.0,0.0,0.0,0.0,0.0,0.0,-3.5081,-3.5131,-3.5214,0.0,0.0,-3.427,-3.3425,-3.4568,-3.5728,-3.6472,-3.5976,0.0,-3.7649,-3.6721,-3.6059,-3.6704,-3.8444,-3.9752,-3.9752,-4.1046,-4.2126,-4.2219,-4.3217,-4.3838,-4.3471,-4.4043,-4.4749,-4.4991,-4.5602,-4.608,-4.608,-4.6223,-4.6305,-4.3506,-4.2604,-4.207,-4.1688,-4.1437,-4.1305,-4.1867,-4.2763,-4.2442,-4.1972,-4.1475,-4.2021,-4.1177,-3.9288,-3.9288,0.0,0.0,0.0,-4.0912,-4.2286,-4.2286,-4.2767,-4.3595,-4.3645,-4.3645,-4.3645,-4.3645,-4.3645,-4.3595,-4.3032,-4.0994,-3.7566,0.0,-3.6307,-3.6671,-3.8079,-3.9255,-4.015,-4.1181,-4.182,-4.1921,-4.1007,-4.0302,-3.993,-3.881,-3.8078,-3.7808,-3.7793,-3.733,-3.6312,-3.6028,-3.504,0.0,0.0,0.0,0.0,0.0,0.0,0.0,0.0,0.0,0.0,0.0,-3.06,-2.9443,0.0,0.0,0.0,-3.2514,-3.2821,-3.3139,-3.3947,0.0,0.0,0.0,0.0,0.0,0.0,0.0,-3.3243,-3.5081,-3.6439,-3.6439,-3.6307,-3.6307,-3.6589,-3.5843,-3.5197,-3.4916,0.0,-3.745,-3.8493,-3.8013,-3.8013,-3.9288,-3.8659,-3.8146,-3.8725,-3.9868,-4.0746,-4.0829,-4.2629,-4.4105,-4.4485,-4.5107,-4.5747,-4.6087,-4.6695,-4.6874,-4.6406,-4.6783,-4.7187,-4.7228,-4.7482,-4.779,-4.4971,-4.5251,-4.349,-4.2603,-4.2424,-4.2929,-4.3325,-4.3654,-4.3628,-4.2866,-4.1723,-4.3015,-4.2137,-3.9636,-3.9603,0.0,-4.1591,-4.1591,-4.2319,-4.3628,-4.3645,-4.3645,-4.3645,-4.3645,-4.3645,-4.3645,-4.3645,-4.3645,-4.3562,-4.227,-4.1524,-4.1425,-4.1425,-4.0696,-3.9421,-4.0564,-4.1309,-4.1425,-4.2734,-4.318,-4.271,-4.1343,-4.0684,-4.0668,-3.9879,-3.9167,-3.8637,-3.8607,-3.8252,-3.7653,-3.7151,-3.6586,-3.5834,0.0,0.0,0.0,0.0,0.0,0.0,0.0,0.0,0.0,0.0,0.0,0.0,0.0,0.0,0.0,-3.5098,0.0,-3.5247,-3.4618,0.0,0.0,0.0,-3.5628,-3.697,-3.7201,-3.7235,-3.7135,0.0,0.0,-3.7384,-3.8013,-3.8758,-3.952,-3.9421,-3.904,-3.8377,-3.9421,-4.0216,-3.9587,-3.904,-3.8692,-3.9156,-3.9437,-4.0188,-4.1355,-4.1631,-4.1737,-4.1866,-4.285,-4.3868,-4.4541,-4.5638,-4.6611,-4.7299,-4.7319,-4.7065,-4.5594,-4.6069,-4.6649,-4.6739,-4.7246,-4.7898,-4.6618,-4.6397,-4.6268,-4.5632,-4.4506,-4.4272,-4.4236,-4.4219,-4.3772,-4.3429,-4.3115,-4.3479,-4.3247,-4.2585,-4.2585,-4.2767,-4.3098,-4.3098,-4.328,-4.3628,-4.3645,-4.3645,-4.3645,-4.3645,-4.3645,-4.3645,-4.3645,-4.3645,-4.3611,-4.328,-4.2535,-4.1475,-4.1425,-4.0696,-3.9392,-3.962,-4.0315,-4.1409,-4.1756,-4.2427,-4.3323,-4.2506,-4.211,-4.211,-4.0873,-4.0139,-3.9971,-4.004,-3.9948,-3.9811,-4.0086,-3.9778,-3.8607,-3.7121,0.0,0.0,0.0,0.0,0.0,0.0,0.0,0.0,0.0,-3.3048,-3.1501,0.0,-3.4376,0.0,-3.6701,-3.8228,-3.8245,-3.8079,0.0,0.0,-3.6688,-3.6721,-3.7069,-3.8096,-3.8344,-3.7235,-3.856,-3.9603,-3.9603,-4.0216,-4.1127,-4.2353,-4.068,-3.9206,-3.9073,-4.0249,-4.111,-4.1011,-4.1657,-4.2336,-4.222,-4.2469,-4.2808,-4.3631,-4.3738,-4.3888,-4.4275,-4.5027,-4.5623,-4.58,-4.6021,-4.6344,-4.6603,-4.6205,-4.5852,-4.5472,-4.6413,-4.7428,-4.7428,-4.7572,-4.7772,-4.66,-4.6301,-4.6642,-4.6269,-4.5506,-4.5466,-4.5327,-4.5035,-4.4693,-4.4589,-4.4589,-4.4589,-4.4589,-4.4589,-4.4589,-4.4589,-4.4605,-4.4589,-4.4589,-4.4589,-4.4589,-4.4589,-4.4589,-4.4589,-4.4589,-4.4572,-4.4241,-4.4092,-4.4075,-4.3777,-4.3214,-4.2402,-4.2386,-4.1657,-4.0266,-3.9587,-3.9669,-4.0464,-4.1094,-4.2137,-4.3486,-4.2974,-4.2294,-4.1601,-4.0529,-3.9676,-3.9085,-3.9069,-3.9054,-3.9054,-3.936,-3.9266,-3.8539,-3.7137,-3.6204,0.0,0.0,0.0,0.0,0.0,0.0,0.0,0.0,0.0,0.0,0.0,-3.5778,-3.553,-3.7826,-3.9007,-3.8361,-3.8609,-3.8742,-3.8576,-3.8841,-3.9288,-3.9934,-4.0713,-4.0895,-4.01,-4.1283,-4.2144,-4.1896,-4.2382,-4.3053,-4.3905,-4.2925,-4.1861,-4.1382,-4.1922,-4.2402,-4.2435,-4.3098,-4.3645,-4.3645,-4.3848,-4.4121,-4.4446,-4.4708,-4.4947,-4.525,-4.5835,-4.628,-4.6371,-4.6614,-4.6794,-4.6886,-4.6662,-4.6395,-4.6486,-4.7083,-4.75,-4.7246,-4.7464,-4.779,-4.6079,-4.6079,-4.6063,-4.6079,-4.6142,-4.6663,-4.6485,-4.5798,-4.5798,-4.5798,-4.5798,-4.5798,-4.5798,-4.5798,-4.5798,-4.5798,-4.5798,-4.5798,-4.5798,-4.5798,-4.5798,-4.5798,-4.5798,-4.5798,-4.5798,-4.5765,-4.5135,-4.4821,-4.4804,-4.4208,-4.3794,-4.3645,-4.3645,-4.2883,-4.1425,-4.0166,-3.9508,-3.9305,-4.068,-4.2038,-4.3297,-4.2577,-4.1573,-4.0329,-3.954,-3.8602,-3.7389,-3.731,-3.731,-3.731,-3.7445,-3.7583,-3.771,-3.6441,-3.6039,0.0,-3.5464,0.0,0.0,0.0,0.0,0.0,0.0,0.0,0.0,-3.7384,-3.7466,-3.7649,-3.8825,-3.9106,-3.8046,-3.8526,-3.9454,-4.0779,-4.1475,-4.2386,-4.3711,-4.391,-4.391,-4.4012,-4.4447,-4.4619,-4.4257,-4.4603,-4.4885,-4.506,-4.5382,-4.5213,-4.4374,-4.4198,-4.4232,-4.4114,-4.4131,-4.4474,-4.4407,-4.4603,-4.4839,-4.4916,-4.5177,-4.5477,-4.5614,-4.6067,-4.6472,-4.666,-4.7089,-4.7475,-4.7675,-4.7681,-4.7663,-4.7591,-4.7663,-4.75,-4.6993,-4.7265,-4.7916,-4.7587,-4.7587,-4.7587,-4.7587,-4.7587,-4.7699,-4.7018,-4.5798,-4.5798,-4.5798,-4.5798,-4.5798,-4.5798,-4.5798,-4.5798,-4.5798,-4.5798,-4.5798,-4.5798,-4.5798,-4.5798,-4.5798,-4.5798,-4.5798,-4.5798,-4.5781,-4.5649,-4.5582,-4.5582,-4.545,-4.4787,-4.3661,-4.3645,-4.2883,-4.1475,0.0,0.0,0.0,-4.068,-4.1541,-4.1773,-4.0552,-3.9787,-3.9523,-3.8788,0.0,-3.8042,-3.8026,-3.801,-3.8026,-3.8551,0.0,0.0,0.0,0.0,0.0,0.0,0.0,0.0,0.0,0.0,0.0,-3.8692,-3.8576,-3.8841,-3.8858,-3.9338,-4.0481,-4.0862,-4.1392,-4.2303,-4.2518,-4.2949,-4.3761,-4.3976,-4.4423,-4.5268,-4.5367,-4.5552,-4.6043,-4.6186,-4.6418,-4.6781,-4.7055,-4.7093,-4.7024,-4.7231,-4.7193,-4.6945,-4.682,-4.6855,-4.6927,-4.6696,-4.6855,-4.6945,-4.6412,-4.6287,-4.6586,-4.6269,-4.6288,-4.6755,-4.6941,-4.7133,-4.733,-4.7425,-4.759,-4.7693,-4.7699,-4.7699,-4.7699,-4.7699,-4.7663,-4.7518,-4.7591,-4.7753,-4.9094,-4.9094,-4.9094,-4.9094,0.0,-4.9094,-4.868,-4.7934,-4.7189,-4.6874,-4.6891,-4.6891,-4.6874,-4.6874,-4.6874,-4.6874,-4.6874,-4.6874,-4.6891,-4.6874,-4.6874,-4.6891,-4.6874,-4.6874,-4.6874,-4.6858,-4.651,-4.6344,-4.6311,-4.5963,-4.5417,-4.4688,-4.4688,-4.4307,-4.3595,-4.3578,-4.2866,-4.1442,-4.1789,-4.2303,-4.2949,-4.1988,-4.1077,-4.0365,-3.9966,0.0,0.0,0.0,0.0,0.0,0.0,0.0,0.0,-3.9669,-3.9603,-4.0282,-4.0034,-4.0133,-4.0829,-4.121,-4.174,-4.2435,-4.2502,-4.2021,-4.0978,-4.1856,-4.28,-4.3495,-4.3578,-4.3876,-4.4589,-4.4688,-4.4837,-4.5185,-4.5235,-4.5507,-4.6096,-4.6223,-4.6524,-4.709,-4.7412,-4.7634,-4.7689,-4.7923,-4.8101,-4.8119,-4.8432,-4.8766,-4.8942,-4.8257,-4.7689,-4.7689,-4.7689,-4.7689,-4.7726,-4.7646,-4.7561,-4.7801,-4.7855,-4.7998,-4.8279,-4.8461,-4.8569,-4.8648,-4.8421,-4.8211,-4.8218,-4.8007,-4.7699,-4.7699,-4.7699,-4.7699,-4.7699,-4.7699,-4.7844,-5.022,-5.022,-5.022,-5.022,-5.022,-5.022,-5.022,-5.0137,-4.8912,0.0,0.0,-4.8398,-4.8398,-4.8382,-4.8398,-4.8398,-4.8398,-4.8382,-4.8382,-4.8382,-4.8266,-4.8199,-4.8199,-4.805,-4.8001,-4.7968,-4.7388,-4.709,-4.7073,-4.6477,-4.6195,-4.6179,-4.6179,-4.6179,-4.6179,-4.6195,-4.5599,-4.4423,-4.3297,-4.3297,-4.444,-4.3678,-4.2651,-4.1442,-4.1425,-4.0862,-3.9702,-3.9653,-3.9653,-3.9653,-3.9653,-3.9769,-4.0017,-4.0034,-4.0166,-4.0431,-4.0978,-4.1856,-4.3015,-4.3661,-4.4522,-4.5715,-4.5914,-4.5168,-4.323,-4.4738,-4.5798,-4.5798,-4.5798,-4.5781,-4.5798,-4.5781,-4.5847,-4.5963,-4.5997,-4.6246,-4.6997,-4.7073,-4.7469,-4.8259,-4.8906,-4.9065,-4.899,-4.9223,-4.9256,-4.9326,-4.9801,-5.0187,-5.0421,-4.945,-4.8678,-4.8695,-4.8818,-4.8572,-4.8502,-4.8645,-4.8851,-4.8935,-4.9208,-4.9489,-4.96,-4.9739,-4.9875,-4.9793,-4.9466,-4.9159,-4.9075,-4.8659,-4.8152,-4.8134,-4.8134,-4.8134,-4.8116,-4.8134,-4.8351,-5.0237,-5.022,-5.022,-5.022,-5.022,-5.022,-5.022,-5.0187,-4.9988,-4.9906,-4.9906,-4.9889,-4.9906,-4.9906,-4.9889,-4.9889,-4.9906,-4.9906,-4.9906,-4.9856,-4.9243,-4.8945,-4.8928,-4.8299,-4.8001,-4.8001,-4.7901,-4.7852,-4.7835,-4.7736,-4.7703,-4.7686,-4.7686,-4.7669,-4.7703,-4.7686,-4.7587,-4.7338,-4.4804,-4.3562,-4.3727,-4.2435,-4.164,-4.1442,-4.1458,-4.1342,-4.1127,-4.1127,-4.1127,-4.111,-4.111,-4.1674,-4.2916,-4.2982,-4.3578,-4.4754,-4.497,-4.5119,-4.5301,-4.5433,-4.5566,-4.5798,-4.6378,-4.6328,-4.5433,-4.5599,-4.5798,-4.5814,-4.5914,-4.5798,-4.5798,-4.5897,-4.6275,-4.6756,-4.6758,-4.7258,-4.8494,-4.87,-4.9325,-5.0987,-5.1362,-5.1846,-5.252,-5.2394,-5.2072,-5.2123,-5.1647,-5.1465,-5.1515,-5.1322,-5.115,-5.1132,-5.1132,-5.115,-5.0799,-5.051,-5.0289,-5.0365,-4.9943,-4.978,-4.9982,-5.0091,-5.0119,-5.01,-5.0053,-4.9927,-4.9908,-4.9854,-4.9619,-4.9582,-4.9564,-4.9601,-4.9564,-4.9619,-4.9564,-5.138,-5.1396,-5.1396,-5.138,-5.1396,-5.138,-5.1396,-5.1396,-5.138,-5.0932,-5.0237,-5.022,-5.022,-5.022,-5.022,-5.022,-5.022,-5.022,-5.022,-5.0187,-4.9872,-4.9707,-4.9674,-4.9342,-4.921,-4.9177,-4.8779,-4.8597,-4.858,-4.8199,-4.8001,-4.8001,-4.8001,-4.8001,-4.8001,-4.8001,-4.8001,-4.7968,-4.6278,-4.54,-4.5384,-4.4357,-4.3777,-4.3777,-4.3794,-4.3794,-4.3777,-4.3794,-4.3794,-4.3777,-4.3794,-4.4092,-4.4754,-4.4804,-4.5102,-4.5765,-4.6162,-4.6394,-4.6394,-4.6775,-4.7173,-4.7554,-4.7901,-4.8312,-4.8698,-4.8044,-4.7603,-4.7603,-4.7934,-4.8183,-4.8183,-4.854,-4.8895,-4.915,-4.9548,-5.0161,-5.0976,-5.1163,-5.1668,-5.2819,-5.3069,-5.3265,-5.3904,-5.3724,-5.3492,-5.3457,-5.3118,-5.2939,-5.2921,-5.2939,-5.2618,-5.1904,-5.169,-5.169,-5.169,-5.1472,-5.1272,-5.1352,-5.1209,-5.107,-5.1192,-5.1238,-5.133,-5.1357,-5.1049,-5.076,-5.0723,-5.0361,-5.0162,-5.009,-5.009,-5.009,-5.0126,-5.0416,-5.0578,-5.2373,-5.2373,-5.2373,-5.2373,-5.2373,-5.2373,-5.2373,-5.2373,-5.2357,-5.1744,-5.08,-5.0684,-5.0701,-5.0701,-5.0701,-5.0717,-5.0701,-5.0701,-5.0717,-5.0684,-5.0535,-5.0452,-5.0419,-5.032,-5.022,-5.0154,-4.9624,-4.9359,-4.9276,-4.8614,-4.815,-4.8017,-4.8001,-4.8001,-4.8001,-4.8001,-4.8001,-4.7968,-4.7438,-4.7139,-4.7123,-4.6576,-4.6295,-4.6295,-4.6278,-4.6278,-4.6295,-4.6295,-4.6295,-4.6295,-4.6278,-4.6295,-4.6278,-4.6278,-4.6295,-4.6344,-4.6825,-4.7222,-4.7421,-4.7918,-4.858,-4.9293,-4.9359,-4.9826,-5.0707,-5.0308,-4.9743,-4.9693,-5.0009,-5.0342,-5.041,-5.0936,-5.1452,-5.1435,-5.1854,-5.2275,-5.2976,-5.3106,-5.3452,-5.41,-5.4277,-5.4296,-5.4491,-5.4402,-5.4206,-5.4028,-5.3957,-5.3957,-5.3957,-5.3957,-5.3457,-5.2671,-5.2276,-5.2365,-5.2294,-5.243,-5.253,-5.2543,-5.2708,-5.2726,-5.2683,-5.2687,-5.2607,-5.2408,-5.1955,-5.1629,-5.1502,-5.1122,-5.0796,-5.0814,-5.085,-5.0741,-5.0814,-5.1176,-5.143,-5.2373,-5.2373,-5.2373,-5.2373,-5.2373,-5.2373,-5.2373,-5.2373,-5.2373,-5.234,-5.2108,-5.2175,-5.2125,-5.2175,-5.2142,-5.2092,-5.2108,-5.2175,-5.2125,-5.2042,-5.1479,-5.1181,-5.1115,-5.0535,-5.022,-5.0253,-5.0171,-5.0104,-5.0071,-4.9375,-4.868,-4.8084,-4.8001,-4.8034,-4.8017,-4.8017,-4.8001,-4.8001,-4.7934,-4.7901,-4.7901,-4.7852,-4.7802,-4.7802,-4.7785,-4.7802,-4.7719,-4.7802,-4.7785,-4.7802,-4.7752,-4.7769,-4.7769,-4.7769,-4.7785,-4.7752,-4.7852,-4.8183,-4.8796,-4.8978,-4.9326,-5.0021,-5.0121,-5.0222,-5.0474,-5.1363,-5.1693,-5.1285,-5.1085,-5.122,-5.1133,-5.1754,-5.2252,-5.2304,-5.2356,-5.2455,-5.3116,-5.3106,-5.3629,-5.4973,-5.5098,-5.5366,-5.5794,-5.5473,-5.4866,-5.4349,-5.4313,-5.4295,-5.4277,-5.4277,-5.4242,-5.3903,-5.3935,-5.402,-5.3949,-5.414,-5.4044,-5.4265,-5.4404,-5.411,-5.3736,-5.3548,-5.3422,-5.3041,-5.2625,-5.2534,-5.248,-5.2299,-5.2299,-5.2281,-5.2281,-5.2263,-5.2281,-5.2389,-5.2281,-5.2373,-5.2373,-5.2373,-5.2373,-5.2373,-5.2373,-5.2373,-5.2373,-5.2373,-5.2373,-5.2373,-5.2373,-5.2373,-5.2373,-5.2373,-5.2373,-5.2373,-5.2373,-5.2373,-5.2357,-5.2059,-5.1943,-5.1893,-5.1661,-5.1496,-5.1429,-5.1065,-5.085,-5.0717,-5.0104,-4.9607,-4.9276,-4.8895,-4.8647,-4.863,-4.8216,-4.8001,-4.8001,-4.8001,-4.8001,-4.8001,-4.8001,-4.8001,-4.8001,-4.8001,-4.8001,-4.8001,-4.8001,-4.8001,-4.8001,-4.8001,-4.8001,-4.8001,-4.8001,-4.8001,-4.8034,-4.8415,-4.8779,-4.9094,-4.9508,-5.0071,-5.08,-5.1194,-5.1748,-5.2632,-5.3198,-5.3518,-5.3652,-5.3335,-5.31,-5.3112,-5.3688,-5.4084,-5.4126,-5.4437,-5.4723,-5.5001,-5.5038,-5.5326,-5.5883,-5.5919,-5.599,-5.6276,-5.6115,-5.5776,-5.5455,-5.5401,-5.5348,-5.5401,-5.5419,-5.5473,-5.5526,-5.5685,-5.5255,-5.4645,-5.4493,-5.4661,-5.4711,-5.4791,-5.4623,-5.4514,-5.4418,-5.4273,-5.3911,-5.382,-5.382,-5.3965,-5.3929,-5.3929,-5.3856,-5.3892,-5.3911,-5.3929,-5.3929,-5.3729,-5.2373,-5.2373,-5.2373,-5.2373,-5.2373,-5.2373,-5.2373,-5.2373,-5.2373,-5.2373,-5.2373,-5.2373,-5.2373,-5.2373,-5.2373,-5.2373,-5.2373,-5.2373,-5.2373,-5.2373,-5.2373,-5.2373,-5.2373,-5.2373,-5.2373,-5.2291,-5.1827,-5.1479,-5.1247,-5.0783,-5.0402,-5.0154,-4.9674,-4.9409,-4.9359,-4.8845,-4.8614,-4.863,-4.8614,-4.8514,-4.8349,-4.8315,-4.8216,-4.8017,-4.8001,-4.8001,-4.8001,-4.8001,-4.8001,-4.8001,-4.8001,-4.8001,-4.8001,-4.8001,-4.8084,-4.8349,-4.9011,-4.9491,-4.969,-5.0204,-5.0869,-5.1777,-5.232,-5.3085,-5.4126,-5.4579,-5.4887,-5.5214,-5.5147,-5.4896,-5.4765,-5.5266,-5.5636,-5.5711,-5.6144,-5.6401,-5.6347,-5.6383,-5.6329,-5.6383,-5.6311,-5.6383,-5.6383,-5.6365,-5.6294,-5.6294,-5.6329,-5.6383,-5.6383,-5.6329,-5.6402,-5.66,-5.6671,-5.6345,-5.5287,-5.535,-5.5374,-5.5424,-5.5582,-5.5577,-5.5305,-5.5196,-5.4979,-5.4599,-5.4852,-5.4852,-5.4599,-5.4744,-5.4925,-5.4907,-5.4907,-5.4907,-5.4689,-5.4852,-5.493,-5.2373,-5.2373,-5.2373,-5.2373,-5.2373,-5.2373,-5.2373,-5.2373,-5.2373,-5.2373,-5.2373,-5.2373,-5.2373,-5.2373,-5.2373,-5.2373,-5.2373,-5.2373,-5.2373,-5.2373,-5.2373,-5.2373,-5.2373,-5.2373,-5.2373,-5.2373,-5.2291,-5.1943,-5.1347,-5.1247,-5.0883,-5.0286,-5.0204,-5.0171,-5.0137,-5.0038,-5.0071,-4.9955,-4.9955,-4.974,-4.916,-4.9061,-4.8746,-4.8216,-4.8017,-4.8001,-4.8001,-4.8001,-4.8001,-4.8001,-4.8001,-4.8001,-4.8001,-4.8034,-4.8349,-4.9028,-4.9756,-5.0469,-5.0982,-5.1234,-5.1827,-5.296,-5.3314,-5.363,-5.4437,-5.5009,-5.5385,-5.5385,-5.5883,-5.5957,-5.5502,-5.5883,-5.6255,-5.6273,-5.6328,-5.6383,-5.6383,-5.6383,-5.6383,-5.6383,-5.6383,-5.6383,-5.6383,-5.6383,-5.6383,-5.6401,-5.6401,-5.6437,-5.6437,-5.6437,-5.6492,-5.6582,-5.6742,-5.6811,-5.6807,-5.6584,-5.6776,-5.6772,-5.6486,-5.6717,-5.6301,-5.5884,-5.5522,-5.5269,-5.5305,-5.5233,-5.5015,-5.4979,-5.5124,-5.5196,-5.5269,-5.5233,-5.5486,-5.5088,-5.5239,-5.2373,-5.2373,-5.2373,-5.2373,-5.2373,-5.2373,-5.2373,-5.2373,-5.2373,-5.2373,-5.2373,-5.2373,-5.2373,-5.2373,-5.2373,-5.2373,-5.2373,-5.2373,-5.2373,-5.2373,-5.2373,-5.2373,-5.2373,-5.2373,-5.2373,-5.2373,-5.2373,-5.2258,-5.2026,-5.1976,-5.1877,-5.1562,-5.1115,-5.0899,-5.08,-5.0436,-5.022,-5.022,-5.022,-5.0088,-4.9856,-4.9823,-4.969,-4.9392,-4.8498,-4.8001,-4.8001,-4.8001,-4.8001,-4.8001,-4.8001,-4.8001,-4.805,-4.8448,-4.9028,-4.9773,-5.0502,-5.1015,-5.135,-5.2165,-5.2825,-5.3331,-5.42,-5.4765,-5.5087,-5.5636,-5.6014,-5.6088,-5.6217,-5.6273,-5.6144,-5.6273,-5.6383,-5.6383,-5.6383,-5.6383,-5.6383,-5.6383,-5.6383,-5.6383,-5.6383,-5.6383,-5.6383,-5.6383,-5.6437,-5.6492,-5.6546,-5.6546,-5.6653,-5.6635,-5.6707,-5.6794,-5.6881,-5.6984,-5.7087,-5.712,-5.717,-5.717,-5.7098,-5.7025,-5.6754,-5.6663,-5.6391,-5.6283,-5.6156,-5.6102,-5.6066,-5.6084,-5.6084,-5.6138,-5.6156,-5.6029,-5.6373,-5.6047,-5.6218,-5.2373,-5.2373,-5.2373,-5.2373,-5.2373,-5.2373,-5.2373,-5.2373,-5.2373,-5.2373,-5.2373,-5.2373,-5.2373,-5.2373,-5.2373,-5.2373,-5.2373,-5.2373,-5.2373,-5.2373,-5.2373,-5.2373,-5.2373,-5.2373,-5.2373,-5.2373,-5.2373,-5.2373,-5.2373,-5.2373,-5.2373,-5.2307,-5.1843,-5.1645,-5.1545,-5.1148,-5.0899,-5.0899,-5.0916,-5.0833,-5.0601,-5.0568,-5.0436,-5.0121,-4.9226,-4.8713,-4.8713,-4.8713,-4.8713,-4.8713,-4.8713,-4.8713,-4.8779,-4.9409,-5.0038,-5.0568,-5.1231,-5.1768,-5.2063,-5.2842,-5.3566,-5.4025,-5.4826,-5.5443,-5.5711,-5.6144,-5.6383,-5.6383,-5.6383,-5.6383,-5.6383,-5.6401,-5.6383,-5.6383,-5.6383,-5.6383,-5.6383,-5.6383,-5.6437,-5.6455,-5.6437,-5.6492,-5.6492,-5.6546,-5.66,-5.6635,-5.6635,-5.6707,-5.6794,-5.6794,-5.6847,-5.6951,-5.7003,-5.7054,-5.7138,-5.7188,-5.7188,-5.7188,-5.7188,-5.7188,-5.7188,-5.7188,-5.7188,-5.7188,-5.7188,-5.7188,-5.7188,-5.7188,-5.7188,-5.7188,-5.6989,-5.6736,-5.6953,-5.7062,-5.7066,-5.2373,-5.2373,-5.2373,-5.2373,-5.2373,-5.2373,-5.2373,-5.2373,-5.2373,-5.2373,-5.2373,-5.2373,-5.2373,-5.2373,-5.2373,-5.2373,-5.2373,-5.2373,-5.2373,-5.2373,-5.2373,-5.2373,-5.2373,-5.2373,-5.2373,-5.2373,-5.2373,-5.2373,-5.2373,-5.2373,-5.2373,-5.2373,-5.2324,-5.2241,-5.2357,-5.2191,-5.2241,-5.2191,-5.2158,-5.191,-5.138,-5.128,-5.1015,-5.0452,-5.027,-5.022,-5.022,-5.0137,-5.0021,-5.0071,-5.0071,-5.0187,-5.0187,-5.0734,-5.1214,-5.1347,-5.1959,-5.2627,-5.3146,-5.3348,-5.4072,-5.4826,-5.5385,-5.5769,-5.6199,-5.6328,-5.6383,-5.6383,-5.6383,-5.6383,-5.6383,-5.6383,-5.6383,-5.6383,-5.6383,-5.6383,-5.6383,-5.6383,-5.6437,-5.6564,-5.66,-5.6653,-5.6742,-5.6742,-5.6742,-5.6794,-5.6794,-5.6794,-5.6847,-5.6847,-5.6899,-5.6984,-5.7036,-5.7087,-5.7138,-5.7188,-5.7188,-5.7188,-5.7188,-5.7188,-5.7188,-5.7188,-5.7188,-5.7188,-5.7188,-5.7188,-5.7419,-5.7419,-5.737,-5.737,-5.727,-5.7239,-5.7188,-5.7239,-5.7388,-5.2373,-5.2373,-5.2373,-5.2373,-5.2373,-5.2373,-5.2373,-5.2373,-5.2373,-5.2373,-5.2373,-5.2373,-5.2373,-5.2373,-5.2373,-5.2373,-5.2373,-5.2373,-5.2373,-5.2373,-5.2373,-5.2373,-5.2373,-5.2373,-5.2373,-5.2373,-5.2373,-5.2373,-5.2373,-5.2373,-5.2373,-5.2373,-5.2373,-5.2373,-5.2373,-5.2373,-5.2373,-5.2373,-5.2373,-5.2241,-5.2042,-5.2026,-5.191,-5.1728,-5.1711,-5.1711,-5.1661,-5.075,-5.0253,-5.0253,-5.022,-5.0436,-5.0883,-5.1164,-5.1512,-5.1993,-5.2224,-5.2445,-5.2747,-5.3566,-5.42,-5.4826,-5.5519,-5.6144,-5.6328,-5.6401,-5.6401,-5.6401,-5.6383,-5.6383,-5.6383,-5.6492,-5.6492,-5.6383,-5.6383,-5.6383,-5.6437,-5.6492,-5.6582,-5.6689,-5.676,-5.676,-5.6794,-5.6794,-5.6847,-5.6951,-5.6951,-5.6951,-5.7036,-5.7036,-5.7087,-5.7138,-5.7138,-5.7138,-5.7138,-5.7188,-5.7188,-5.7188,-5.7188,-5.7188,-5.7188,-5.7289,-5.7289,-5.7239,-5.7239,-5.7289,-5.7516,-5.7546,-5.7498,-5.7546,-5.7594,-5.7449,-5.7239,-5.7289,-5.7388,-5.2373,-5.2373,-5.2373,-5.2373,-5.2373,-5.2373,-5.2373,-5.2373,-5.2373,-5.2373,-5.2373,-5.2373,-5.2373,-5.2373,-5.2373,-5.2373,-5.2373,-5.2373,-5.2373,-5.2373,-5.2373,-5.2373,-5.2373,-5.2373,-5.2373,-5.2373,-5.2373,-5.2373,-5.2373,-5.2373,-5.2373,-5.2373,-5.2373,-5.2373,-5.2373,-5.2373,-5.2373,-5.2373,-5.2373,-5.2373,-5.2373,-5.2373,-5.2373,-5.2373,-5.2373,-5.2373,-5.2307,-5.1479,-5.1015,-5.1015,-5.1032,-5.1247,-5.1628,-5.1711,-5.1893,-5.2241,-5.2445,-5.257,-5.3128,-5.3943,-5.4703,-5.5147,-5.5957,-5.6383,-5.6437,-5.6492,-5.6492,-5.6546,-5.6546,-5.6546,-5.6546,-5.66,-5.6635,-5.6528,-5.6546,-5.6546,-5.6546,-5.66,-5.676,-5.6847,-5.6899,-5.6899,-5.6951,-5.6951,-5.6984,-5.7054,-5.7105,-5.7105,-5.7188,-5.7188,-5.7188,-5.7188,-5.7188,-5.7188,-5.7188,-5.7188,-5.7188,-5.7188,-5.7188,-5.7188,-5.7188,-5.7468,-5.7565,-5.7468,-5.7419,-5.7239,-5.737,-5.7468,-5.7468,-5.7642,-5.7719,-5.7594,-5.737,-5.7239,-5.732,-5.2373,-5.2373,-5.2373,-5.2373,-5.2373,-5.2373,-5.2373,-5.2373,-5.2373,-5.2373,-5.2373,-5.2373,-5.2373,-5.2373,-5.2373,-5.2373,-5.2373,-5.2373,-5.2373,-5.2373,-5.2373,-5.2373,-5.2373,-5.2373,-5.2373,-5.2373,-5.2373,-5.2373,-5.2373,-5.2373,-5.2373,-5.2373,-5.2373,-5.2373,-5.2373,-5.2373,-5.2373,-5.2373,-5.2373,-5.2373,-5.2373,-5.2373,-5.2373,-5.2373,-5.2373,-5.2373,-5.234,-5.2208,-5.2241,-5.234,-5.2191,-5.2175,-5.2324,-5.2373,-5.2324,-5.2373,-5.2373,-5.2939,-5.3895,-5.4264,-5.4826,-5.5751,-5.6199,-5.6437,-5.66,-5.66,-5.6635,-5.6742,-5.6742,-5.6742,-5.6742,-5.6794,-5.6794,-5.6794,-5.6794,-5.6742,-5.6794,-5.6794,-5.6899,-5.7003,-5.7003,-5.7036,-5.7138,-5.7156,-5.7138,-5.7188,-5.7188,-5.7188,-5.7188,-5.7188,-5.7188,-5.7188,-5.7188,-5.7188,-5.7188,-5.7188,-5.7188,-5.7188,-5.7188,-5.7188,-5.7188,-5.7468,-5.7613,-5.7565,-5.7498,-5.7338,-5.7338,-5.7468,-5.7516,-5.7546,-5.7594,-5.7546,-5.7449,-5.727,-5.727,-5.2373,-5.2373,-5.2373,-5.2373,-5.2373,-5.2373,-5.2373,-5.2373,-5.2373,-5.2373,-5.2373,-5.2373,-5.2373,-5.2373,-5.2373,-5.2373,-5.2373,-5.2373,-5.2373,-5.2373,-5.2373,-5.2373,-5.2373,-5.2373,-5.2373,-5.2373,-5.2373,-5.2373,-5.2373,-5.2373,-5.2373,-5.2373,-5.2373,-5.2373,-5.2373,-5.2373,-5.2373,-5.2373,-5.2373,-5.2373,-5.2373,-5.2373,-5.2373,-5.2373,-5.2373,-5.2373,-5.2373,-5.2373,-5.2373,-5.2373,-5.2373,-5.2373,-5.2373,-5.2373,-5.2373,-5.2373,-5.2445,-5.2499,-5.3076,-5.3895,-5.4624,-5.5094,-5.5996,-5.66,-5.676,-5.676,-5.6742,-5.6794,-5.6794,-5.6794,-5.6794,-5.6899,-5.6984,-5.7036,-5.6951,-5.6847,-5.6951,-5.6951,-5.7003,-5.7105,-5.7138,-5.7138,-5.7188,-5.7188,-5.7188,-5.7188,-5.7188,-5.7188,-5.7188,-5.7188,-5.7188,-5.7188,-5.7188,-5.7188,-5.7188,-5.7188,-5.7188,-5.7188,-5.7188,-5.7188,-5.7188,-5.7289,-5.7338,-5.7289,-5.732,-5.7239,-5.7516,-5.7784,-5.7737,-5.7516,-5.7594,-5.7594,-5.737,-5.7239,-5.7239,-5.2373,-5.2373,-5.2373,-5.2373,-5.2373,-5.2373,-5.2373,-5.2373,-5.2373,-5.2373,-5.2373,-5.2373,-5.2373,-5.2373,-5.2373,-5.2373,-5.2373,-5.2373,-5.2373,-5.2373,-5.2373,-5.2373,-5.2373,-5.2373,-5.2373,-5.2373,-5.2373,-5.2373,-5.2373,-5.2373,-5.2373,-5.2373,-5.2373,-5.2373,-5.2373,-5.2373,-5.2373,-5.2373,-5.2373,-5.2373,-5.2373,-5.2373,-5.2373,-5.2373,-5.2373,-5.2373,-5.2373,-5.2373,-5.2373,-5.2373,-5.2373,-5.2373,-5.2373,-5.2373,-5.2373,-5.2373,-5.2624,-5.2817,-5.3008,-5.383,-5.4516,-5.4991,-5.5791,-5.6311,-5.6671,-5.6847,-5.6899,-5.6933,-5.6933,-5.6984,-5.6984,-5.7036,-5.7087,-5.7138,-5.7036,-5.6984,-5.7105,-5.7105,-5.7087,-5.7188,-5.7188,-5.7188,-5.7188,-5.7188,-5.7188,-5.7188,-5.7188,-5.7188,-5.7188,-5.7188,-5.7188,-5.7188,-5.7188,-5.7188,-5.7188,-5.7188,-5.7188,-5.7188,-5.7188,-5.7188,-5.7289,-5.727,-5.732,-5.732,-5.7239,-5.7289,-5.7516,-5.7642,-5.7498,-5.7419,-5.7594,-5.7642,-5.7468,-5.7188,-5.7239,-5.2373,-5.2373,-5.2373,-5.2373,-5.2373,-5.2373,-5.2373,-5.2373,-5.2373,-5.2373,-5.2373,-5.2373,-5.2373,-5.2373,-5.2373,-5.2373,-5.2373,-5.2373,-5.2373,-5.2373,-5.2373,-5.2373,-5.2373,-5.2373,-5.2373,-5.2373,-5.2373,-5.2373,-5.2373,-5.2373,-5.2373,-5.2373,-5.2373,-5.2373,-5.2373,-5.2373,-5.2373,-5.2373,-5.2373,-5.2373,-5.2373,-5.2373,-5.2373,-5.2373,-5.2373,-5.2373,-5.2373,-5.2373,-5.2373,-5.2373,-5.2373,-5.2373,-5.2373,-5.2373,-5.2373,-5.2445,-5.2817,-5.3128,-5.3432,-5.3943,-5.4686,-5.5308,-5.5601,-5.5999,-5.6653,-5.6933,-5.7003,-5.7087,-5.7188,-5.7138,-5.7138,-5.7188,-5.7188,-5.7188,-5.7188,-5.7188,-5.7188,-5.7188,-5.7188,-5.7188,-5.7188,-5.7188,-5.7188,-5.7188,-5.7188,-5.7188,-5.7188,-5.7188,-5.7188,-5.7188,-5.7188,-5.7188,-5.7188,-5.7188,-5.7188,-5.7188,-5.7188,-5.7188,-5.7188,-5.7239,-5.737,-5.7401,-5.7498,-5.7449,-5.7289,-5.7188,-5.7239,-5.727,-5.727,-5.727,-5.737,-5.7546,-5.7594,-5.7338,-5.7239,-5.2373,-5.2373,-5.2373,-5.2373,-5.2373,-5.2373,-5.2373,-5.2373,-5.2373,-5.2373,-5.2373,-5.2373,-5.2373,-5.2373,-5.2373,-5.2373,-5.2373,-5.2373,-5.2373,-5.2373,-5.2373,-5.2373,-5.2373,-5.2373,-5.2373,-5.2373,-5.2373,-5.2373,-5.2373,-5.2373,-5.2373,-5.2373,-5.2373,-5.2373,-5.2373,-5.2373,-5.2373,-5.2373,-5.2373,-5.2373,-5.2373,-5.2373,-5.2373,-5.2373,-5.2373,-5.2373,-5.2373,-5.2373,-5.2373,-5.2373,-5.2373,-5.2373,-5.2373,-5.2373,-5.2373,-5.2445,-5.257,-5.2886,-5.3382,-5.4008,-5.4747,-5.5525,-5.5978,-5.6564,-5.6881,-5.6933,-5.7003,-5.7054,-5.7156,-5.7188,-5.7188,-5.7188,-5.7188,-5.7188,-5.7188,-5.7188,-5.7188,-5.7188,-5.7188,-5.7188,-5.7188,-5.7188,-5.7188,-5.7188,-5.7188,-5.7188,-5.7188,-5.7188,-5.7188,-5.7188,-5.7188,-5.7188,-5.7188,-5.7188,-5.7188,-5.7188,-5.7188,-5.7188,-5.7188,-5.7188,-5.737,-5.7419,-5.737,-5.732,-5.7257,-5.7206,-5.7188,-5.7188,-5.7239,-5.7188,-5.7188,-5.732,-5.737,-5.7239,-5.7188,-5.2373,-5.2373,-5.2373,-5.2373,-5.2373,-5.2373,-5.2373,-5.2373,-5.2373,-5.2373,-5.2373,-5.2373,-5.2373,-5.2373,-5.2373,-5.2373,-5.2373,-5.2373,-5.2373,-5.2373,-5.2373,-5.2373,-5.2373,-5.2373,-5.2373,-5.2373,-5.2373,-5.2373,-5.2373,-5.2373,-5.2373,-5.2373,-5.2373,-5.2373,-5.2373,-5.2373,-5.2373,-5.2373,-5.2373,-5.2373,-5.2373,-5.2373,-5.2373,-5.2373,-5.2373,-5.2373,-5.2373,-5.2373,-5.2373,-5.2373,-5.2373,-5.2373,-5.2373,-5.2373,-5.2373,-5.2445,-5.2764,-5.2764,-5.3128,-5.383,-5.4624,-5.5154,-5.5791,-5.6384,-5.6724,-5.6899,-5.7003,-5.7054,-5.7087,-5.7138,-5.7188,-5.7188,-5.7188,-5.7188,-5.7188,-5.7188,-5.7188,-5.7188,-5.7188,-5.7188,-5.7188,-5.7188,-5.7188,-5.7188,-5.7188,-5.7188,-5.7188,-5.7188,-5.7188,-5.7188,-5.7188,-5.7188,-5.7188,-5.7188,-5.7188,-5.7188,-5.7188,-5.7188,-5.7188,-5.7188,-5.7239,-5.7239,-5.7239,-5.7188,-5.7206,-5.7188,-5.7188,-5.7188,-5.7188,-5.7188,-5.7188,-5.7188,-5.7188,-5.7188,-5.7188,-5.2473,-5.2373,-5.2373,-5.2373,-5.2373,-5.2373,-5.2373,-5.2373,-5.2373,-5.2373,-5.2373,-5.2373,-5.2373,-5.2373,-5.2373,-5.2373,-5.2373,-5.2373,-5.2373,-5.2373,-5.2373,-5.2373,-5.2373,-5.2373,-5.2373,-5.2373,-5.2373,-5.2373,-5.2373,-5.2373,-5.2373,-5.2373,-5.2373,-5.2373,-5.2373,-5.2373,-5.2373,-5.2373,-5.2373,-5.2373,-5.2373,-5.2373,-5.2373,-5.2373,-5.2373,-5.2373,-5.2373,-5.2373,-5.2373,-5.2373,-5.2373,-5.2373,-5.2445,-5.2499,-5.2587,-5.264,-5.3196,-5.3449,-5.3499,-5.4072,-5.4703,-5.4703,-5.5367,-5.6035,-5.6617,-5.6794,-5.6899,-5.6984,-5.7087,-5.7087,-5.7188,-5.7188,-5.7188,-5.7188,-5.7188,-5.7188,-5.7188,-5.7188,-5.7188,-5.7188,-5.7188,-5.7188,-5.7188,-5.7188,-5.7188,-5.7188,-5.7188,-5.7188,-5.7188,-5.7188,-5.7188,-5.7188,-5.7188,-5.7188,-5.7188,-5.7188,-5.7188,-5.7188,-5.7188,-5.7188,-5.7188,-5.7188,-5.7188,-5.7188,-5.7188,-5.7188,-5.7188,-5.7188,-5.7188,-5.7188,-5.7188,-5.7188,-5.7188,-5.7188,-5.7188,-5.2904,-5.2373,-5.2373,-5.2373,-5.2373,-5.2373,-5.2373,-5.2373,-5.2373,-5.2373,-5.2373,-5.2373,-5.2373,-5.2373,-5.2373,-5.2373,-5.2373,-5.2373,-5.2373,-5.2373,-5.2373,-5.2373,-5.2373,-5.2373,-5.2373,-5.2373,-5.2373,-5.2373,-5.2373,-5.2373,-5.2373,-5.2373,-5.2373,-5.2373,-5.2373,-5.2373,-5.2373,-5.2373,-5.2373,-5.2373,-5.2373,-5.2373,-5.2373,-5.2373,-5.2373,-5.2373,-5.2373,-5.2373,-5.2373,-5.2373,-5.2373,-5.2373,-5.2499,-5.2886,-5.3213,-5.3264,-5.3764,-5.4136,-5.4516,-5.4948,-5.556,-5.6052,-5.6182,-5.6292,-5.66,-5.6742,-5.6847,-5.6951,-5.7087,-5.7138,-5.7188,-5.7188,-5.7188,-5.7188,-5.7188,-5.7188,-5.7188,-5.7188,-5.7188,-5.7188,-5.7188,-5.7188,-5.7188,-5.7188,-5.7188,-5.7188,-5.7188,-5.7188,-5.7188,-5.7188,-5.7188,-5.7188,-5.7188,-5.7188,-5.7188,-5.7188,-5.7188,-5.7188,-5.7188,-5.7188,-5.7188,-5.7188,-5.7188,-5.7188,-5.7188,-5.7188,-5.7188,-5.7188,-5.7188,-5.7188,-5.7188,-5.7188,-5.7188,-5.7188,-5.7188,-5.3566,-5.292,-5.292,-5.2705,-5.2407,-5.2373,-5.2373,-5.2373,-5.2373,-5.2373,-5.2373,-5.2373,-5.2373,-5.2373,-5.2373,-5.2373,-5.2373,-5.2373,-5.2373,-5.2373,-5.2373,-5.2373,-5.2373,-5.2373,-5.2373,-5.2373,-5.2373,-5.2373,-5.2373,-5.2373,-5.2407,-5.2373,-5.2373,-5.2373,-5.2373,-5.2373,-5.2373,-5.2373,-5.2373,-5.2373,-5.2373,-5.2373,-5.2373,-5.2373,-5.2373,-5.2373,-5.2373,-5.2373,-5.2373,-5.2373,-5.2373,-5.2373,-5.2694,-5.3196,-5.3781,-5.3583,-5.4072,-5.4516,-5.4948,-5.5129,-5.5578,-5.5865,-5.6199,-5.6437,-5.6546,-5.6653,-5.6742,-5.6899,-5.7036,-5.7188,-5.7188,-5.7188,-5.7188,-5.7188,-5.7188,-5.7188,-5.7188,-5.7188,-5.7188,-5.7188,-5.7188,-5.7188,-5.7188,-5.7188,-5.7188,-5.7188,-5.7188,-5.7188,-5.7188,-5.7188,-5.7188,-5.7188,-5.7188,-5.7188,-5.7188,-5.7188,-5.7188,-5.7188,-5.7188,-5.7188,-5.7188,-5.7188,-5.7188,-5.7188,-5.7188,-5.7188,-5.7188,-5.7188,-5.7188,-5.7188,-5.7188,-5.7188,-5.7188,-5.7188,-5.7188,-5.4311,-5.3632,-5.3632,-5.3218,-5.2638,-5.2589,-5.2506,-5.239,-5.2373,-5.2373,-5.2373,-5.2373,-5.2373,-5.2373,-5.2373,-5.2373,-5.2373,-5.2373,-5.2373,-5.2373,-5.2373,-5.2373,-5.2373,-5.2373,-5.2373,-5.2373,-5.2373,-5.2373,-5.2423,-5.2589,-5.2622,-5.2672,-5.2622,-5.2589,-5.2638,-5.2489,-5.244,-5.2373,-5.2373,-5.2373,-5.2373,-5.2373,-5.2373,-5.2373,-5.2373,-5.2373,-5.2373,-5.2373,-5.2373,-5.2373,-5.2373,-5.2373,-5.257,-5.3516,-5.3878,-5.3632,-5.4264,-5.4703,-5.4948,-5.5325,-5.5769,-5.5883,-5.6144,-5.6383,-5.6546,-5.6653,-5.6742,-5.6951,-5.7105,-5.7188,-5.7188,-5.7188,-5.7188,-5.7188,-5.7188,-5.7188,-5.7188,-5.7188,-5.7188,-5.7188,-5.7188,-5.7188,-5.7188,-5.7188,-5.7188,-5.7188,-5.7188,-5.7188,-5.7188,-5.7188,-5.7188,-5.7188,-5.7188,-5.7188,-5.7188,-5.7188,-5.7188,-5.7188,-5.7188,-5.7188,-5.7188,-5.7188,-5.7188,-5.7188,-5.7188,-5.7188,-5.7188,-5.7188,-5.7188,-5.7188,-5.7188,-5.7188,-5.7188,-5.7188,-5.7188,-5.5073,-5.4394,-5.4394,-5.3964,-5.3351,-5.3301,-5.2953,-5.2473,-5.2506,-5.2373,-5.2556,-5.2407,-5.2423,-5.2373,-5.2373,-5.2373,-5.2373,-5.2373,-5.2373,-5.2373,-5.2373,-5.2373,-5.2373,-5.2373,-5.2373,-5.2423,-5.2423,-5.2373,-5.2556,-5.3003,-5.3235,-5.3202,-5.3251,-5.3301,-5.3251,-5.292,-5.239,-5.2407,-5.239,-5.2373,-5.2373,-5.2373,-5.2373,-5.2373,-5.2373,-5.2373,-5.2373,-5.2373,-5.2373,-5.2373,-5.2373,-5.2373,-5.2499,-5.3076,-5.3449,-5.3943,-5.4948,-5.6144,-5.5957,-5.607,-5.6144,-5.6144,-5.6328,-5.6383,-5.6492,-5.6635,-5.6794,-5.7003,-5.7105,-5.7206,-5.7188,-5.7188,-5.7188,-5.7188,-5.7188,-5.7188,-5.7188,-5.7188,-5.7188,-5.7188,-5.7188,-5.7188,-5.7188,-5.7188,-5.7188,-5.7188,-5.7188,-5.7188,-5.7188,-5.7188,-5.7188,-5.7188,-5.7188,-5.7188,-5.7188,-5.7188,-5.7188,-5.7188,-5.7188,-5.7188,-5.7188,-5.7188,-5.7188,-5.7188,-5.7188,-5.7188,-5.7188,-5.7188,-5.7188,-5.7188,-5.7188,-5.7188,-5.7188,-5.7188,-5.7188,-5.5802,-5.514,-5.514,-5.4725,-5.408,-5.403,-5.3881,-5.3632,-5.3599,-5.3599,-5.3483,-5.3102,-5.2771,-5.2523,-5.2373,-5.2373,-5.2373,-5.244,-5.239,-5.244,-5.244,-5.2423,-5.2373,-5.2373,-5.2373,-5.2572,-5.2754,-5.3019,-5.3102,-5.3218,-5.3417,-5.3533,-5.3848,-5.4046,-5.4013,-5.3748,-5.3367,-5.3019,-5.2638,-5.239,-5.2373,-5.2373,-5.2373,-5.2373,-5.2373,-5.2373,-5.2373,-5.2373,-5.2373,-5.2373,-5.2373,-5.2373,-5.257,-5.3008,-5.3382,-5.3516,-5.4887,-5.5694,-5.5826,-5.6199,-5.6328,-5.6383,-5.6401,-5.6455,-5.651,-5.66,-5.6812,-5.7003,-5.7054,-5.7087,-5.7206,-5.7188,-5.7188,-5.7188,-5.7188,-5.7188,-5.7188,-5.7188,-5.7188,-5.7188,-5.7188,-5.7188,-5.7188,-5.7188,-5.7188,-5.7188,-5.7188,-5.7188,-5.7188,-5.7188,-5.7188,-5.7188,-5.7188,-5.7188,-5.7188,-5.7188,-5.7188,-5.7188,-5.7188,-5.7188,-5.7188,-5.7188,-5.7188,-5.7188,-5.7188,-5.7188,-5.7188,-5.7188,-5.7188,-5.7188,-5.7188,-5.7188,-5.7188,-5.7188,-5.7188,-5.6382,-5.5901,-5.5885,-5.5471,-5.4808,-5.4792,-5.4676,-5.4494,-5.446,-5.4494,-5.4378,-5.3914,-5.3384,-5.3036,-5.3003,-5.3069,-5.2986,-5.2904,-5.292,-5.2904,-5.2904,-5.3003,-5.3086,-5.3003,-5.3003,-5.2904,-5.3483,-5.3682,-5.3765,-5.393,-5.4129,-5.3997,-5.4576,-5.4759,-5.4742,-5.4477,-5.4096,-5.3682,-5.3036,-5.2738,-5.2672,-5.2473,-5.2407,-5.2373,-5.2373,-5.2373,-5.2373,-5.2373,-5.2373,-5.2373,-5.2373,-5.2445,-5.2764,-5.3145,-5.3516,-5.3764,-5.4747,-5.5266,-5.5595,-5.5975,-5.6328,-5.6383,-5.6383,-5.6437,-5.6492,-5.66,-5.6635,-5.6847,-5.6951,-5.7003,-5.7087,-5.7138,-5.7138,-5.7188,-5.7188,-5.7188,-5.7188,-5.7188,-5.7188,-5.7188,-5.7188,-5.7188,-5.7188,-5.7188,-5.7188,-5.7188,-5.7188,-5.7188,-5.7188,-5.7188,-5.7188,-5.7188,-5.7188,-5.7188,-5.7188,-5.7188,-5.7188,-5.7188,-5.7188,-5.7188,-5.7188,-5.7188,-5.7188,-5.7188,-5.7188,-5.7188,-5.7188,-5.7188,-5.7188,-5.7188,-5.7188,-5.7188,-5.7188,-5.7188,-5.7188,-5.6663,-5.6614,-5.6597,-5.6183,-5.5537,-5.5554,-5.5173,-5.4742,-5.4626,-5.4626,-5.4626,-5.4444,-5.4394,-5.4262,-5.4129,-5.4146,-5.4295,-5.4361,-5.4195,-5.4195,-5.4345,-5.4146,-5.408,-5.4063,-5.4179,-5.4195,-5.4378,-5.4444,-5.461,-5.5073,-5.5305,-5.5504,-5.5471,-5.5521,-5.5355,-5.499,-5.4692,-5.4295,-5.3732,-5.3301,-5.3102,-5.2788,-5.2456,-5.239,-5.2373,-5.2373,-5.2373,-5.2373,-5.2373,-5.2373,-5.2373,-5.257,-5.2956,-5.3264,-5.3583,-5.4008,-5.4516,-5.5026,-5.5461,-5.5901,-5.6273,-5.6383,-5.6383,-5.6383,-5.6437,-5.6546,-5.66,-5.6635,-5.6742,-5.6899,-5.6951,-5.7036,-5.7105,-5.7138,-5.7138,-5.7188,-5.7188,-5.7188,-5.7188,-5.7188,-5.7188,-5.7188,-5.7188,-5.7188,-5.7188,-5.7188,-5.7188,-5.7188,-5.7188,-5.7188,-5.7188,-5.7188,-5.7188,-5.7188,-5.7188,-5.7188,-5.7188,-5.7188,-5.7188,-5.7188,-5.7188,-5.7188,-5.7188,-5.7188,-5.7188,-5.7188,-5.7188,-5.7188,-5.7188,-5.7188,-5.7188,-5.7188,-5.7188,-5.7188,-5.7188,-5.6162,-5.6697,-5.6697,-5.6531,-5.6282,-5.6282,-5.6117,-5.5885,-5.5852,-5.5587,-5.5206,-5.5189,-5.4941,-5.4659,-5.4527,-5.4527,-5.4527,-5.451,-5.456,-5.4527,-5.451,-5.4527,-5.4527,-5.4593,-5.4494,-5.4676,-5.4941,-5.5206,-5.5272,-5.5868,-5.6183,-5.6266,-5.6216,-5.6282,-5.6051,-5.557,-5.5272,-5.5007,-5.4477,-5.3947,-5.3384,-5.3202,-5.2821,-5.239,-5.2373,-5.2373,-5.2373,-5.2373,-5.2373,-5.2373,-5.2373,-5.264,-5.2886,-5.3196,-5.3583,-5.396,-5.4454,-5.5026,-5.5343,-5.5711,-5.594,-5.6383,-5.6383,-5.6383,-5.6383,-5.6437,-5.6546,-5.6582,-5.6635,-5.6742,-5.6847,-5.6951,-5.7054,-5.7087,-5.7138,-5.7138,-5.7188,-5.7188,-5.7188,-5.7188,-5.7188,-5.7188,-5.7188,-5.7188,-5.7188,-5.7188,-5.7188,-5.7188,-5.7188,-5.7188,-5.7188,-5.7188,-5.7188,-5.7188,-5.7188,-5.7188,-5.7188,-5.7188,-5.7188,-5.7188,-5.7188,-5.7188,-5.7188,-5.7188,-5.7188,-5.7188,-5.7188,-5.7188,-5.7188,-5.7188,-5.7188,-5.7188,-5.7188,-5.7188,-5.7188,-5.5474,-5.6257,-5.6257,-5.643,-5.6697,-5.6697,-5.6697,-5.6697,-5.6647,-5.6448,-5.5951,-5.5918,-5.567,-5.5256,-5.5189,-5.5222,-5.5289,-5.5289,-5.5222,-5.5256,-5.5289,-5.5173,-5.5173,-5.5239,-5.5388,-5.5305,-5.557,-5.5935,-5.5951,-5.6465,-5.6581,-5.6614,-5.668,-5.6647,-5.6531,-5.6249,-5.5935,-5.5786,-5.5222,-5.4676,-5.4146,-5.3583,-5.3268,-5.2705,-5.2539,-5.2373,-5.2373,-5.2373,-5.2373,-5.2373,-5.2445,-5.2499,-5.2834,-5.3145,-5.3449,-5.3943,-5.4437,-5.5129,-5.5385,-5.5653,-5.5883,-5.6328,-5.6383,-5.6383,-5.6383,-5.6383,-5.6437,-5.6492,-5.6528,-5.6582,-5.6742,-5.6794,-5.6951,-5.6984,-5.7036,-5.7087,-5.7188,-5.7188,-5.7188,-5.7188,-5.7188,-5.7188,-5.7188,-5.7188,-5.7188,-5.7188,-5.7188,-5.7188,-5.7188,-5.7188,-5.7188,-5.7188,-5.7188,-5.7188,-5.7188,-5.7188,-5.7188,-5.7188,-5.7188,-5.7188,-5.7188,-5.7188,-5.7188,-5.7188,-5.7188,-5.7188,-5.7188,-5.7188,-5.7188,-5.7188,-5.7188,-5.7188,-5.7188,-5.7188,-5.7188,-5.4537,-5.5296,-5.5377,-5.5908,-5.6603,-5.6697,-5.6697,-5.6697,-5.6697,-5.6647,-5.6547,-5.6564,-5.6564,-5.6448,-5.6282,-5.6266,-5.6299,-5.6382,-5.6398,-5.6316,-5.6216,-5.6448,-5.6448,-5.6365,-5.6183,-5.6547,-5.6531,-5.6465,-5.6564,-5.663,-5.668,-5.6697,-5.6697,-5.6697,-5.6697,-5.668,-5.6647,-5.6547,-5.5885,-5.557,-5.509,-5.4229,-5.3748,-5.3334,-5.2837,-5.2605,-5.2589,-5.2407,-5.239,-5.2373,-5.2373,-5.264,-5.3008,-5.3264,-5.3632,-5.4136,-5.4328,-5.4765,-5.5325,-5.5957,-5.6273,-5.6401,-5.6383,-5.6383,-5.6383,-5.6383,-5.6383,-5.6437,-5.6437,-5.651,-5.6546,-5.6635,-5.6794,-5.6899,-5.6984,-5.7087,-5.7138,-5.7188,-5.7188,-5.7188,-5.7188,-5.7188,-5.7188,-5.7188,-5.7188,-5.7188,-5.7188,-5.7188,-5.7188,-5.7188,-5.7188,-5.7188,-5.7188,-5.7188,-5.7188,-5.7188,-5.7188,-5.7188,-5.7188,-5.7188,-5.7188,-5.7188,-5.7188,-5.7188,-5.7188,-5.7188,-5.7188,-5.7188,-5.7188,-5.7188,-5.7188,-5.7188,-5.7188,-5.7188,-5.7188,-5.3224,-5.4469,-5.5067,-5.5474,-5.5829,-5.6414,-5.6697,-5.6697,-5.6697,-5.6697,-5.6697,-5.6697,-5.6697,-5.6697,-5.6697,-5.6697,-5.6697,-5.6697,-5.6697,-5.6697,-5.6697,-5.668,-5.6697,-5.6697,-5.6697,-5.6697,-5.6697,-5.6697,-5.6663,-5.6697,-5.6697,-5.6697,-5.6697,-5.6697,-5.6697,-5.6697,-5.668,-5.6663,-5.6382,-5.6117,-5.5636,-5.509,-5.4593,-5.4146,-5.345,-5.3069,-5.297,-5.2672,-5.2456,-5.239,-5.2373,-5.257,-5.2886,-5.3008,-5.3449,-5.383,-5.4025,-5.4703,-5.5343,-5.5957,-5.6383,-5.6436,-5.6401,-5.6401,-5.6383,-5.6383,-5.6383,-5.6383,-5.6383,-5.6455,-5.6437,-5.6546,-5.6707,-5.6847,-5.6951,-5.7054,-5.7156,-5.7188,-5.7188,-5.7188,-5.7188,-5.7188,-5.7188,-5.7188,-5.7188,-5.7188,-5.7188,-5.7188,-5.7188,-5.7188,-5.7188,-5.7188,-5.7188,-5.7188,-5.7188,-5.7188,-5.7188,-5.7188,-5.7188,-5.7188,-5.7188,-5.7188,-5.7188,-5.7188,-5.7188,-5.7188,-5.7188,-5.7188,-5.7188,-5.7188,-5.7188,-5.7188,-5.7188,-5.7188,-5.7188,-5.1924,-5.3201,-5.402,-5.4704,-5.5377,-5.6336,-5.6697,-5.6697,-5.6697,-5.6697,-5.6697,-5.6697,-5.6697,-5.6697,-5.6697,-5.6697,-5.6697,-5.6697,-5.6697,-5.6697,-5.6697,-5.6697,-5.6697,-5.6697,-5.6697,-5.6697,-5.6697,-5.6697,-5.6697,-5.6697,-5.6697,-5.6697,-5.6697,-5.6697,-5.6697,-5.6697,-5.6697,-5.668,-5.6547,-5.6448,-5.6051,-5.567,-5.5338,-5.4825,-5.4245,-5.3682,-5.3367,-5.3003,-5.2622,-5.2489,-5.239,-5.239,-5.257,-5.2764,-5.3076,-5.3196,-5.3921,-5.481,-5.5767,-5.6511,-5.691,-5.695,-5.6626,-5.6418,-5.6383,-5.6383,-5.6383,-5.6383,-5.6383,-5.6383,-5.6437,-5.6546,-5.6653,-5.6812,-5.6899,-5.7054,-5.7138,-5.7188,-5.7206,-5.7188,-5.7188,-5.7188,-5.7188,-5.7188,-5.7188,-5.7188,-5.7188,-5.7188,-5.7188,-5.7188,-5.7188,-5.7188,-5.7188,-5.7188,-5.7188,-5.7188,-5.7188,-5.7188,-5.7188,-5.7188,-5.7188,-5.7188,-5.7188,-5.7188,-5.7188,-5.7188,-5.7188,-5.7188,-5.7188,-5.7188,-5.7188,-5.7188,-5.7188,-5.7188,-5.7188,-5.0698,-5.1594,-5.2298,-5.3554,-5.5084,-5.6034,-5.6603,-5.6697,-5.6697,-5.6697,-5.6697,-5.6697,-5.6697,-5.6697,-5.6697,-5.6697,-5.6697,-5.6697,-5.6697,-5.6697,-5.6697,-5.6697,-5.6697,-5.6697,-5.6697,-5.6697,-5.6697,-5.6697,-5.6697,-5.6697,-5.6697,-5.6697,-5.6697,-5.6697,-5.6697,-5.6697,-5.6697,-5.6697,-5.668,-5.6597,-5.6398,-5.6051,-5.5835,-5.5438,-5.4957,-5.4345,-5.3947,-5.3583,-5.3102,-5.2771,-5.2489,-5.244,-5.2407,-5.2407,-5.2407,-5.2853,-5.3934,-5.5178,-5.6105,-5.6865,-5.7263,-5.714,-5.6857,-5.6573,-5.6472,-5.6508,-5.6383,-5.6383,-5.6383,-5.6383,-5.6437,-5.6546,-5.6653,-5.6742,-5.6899,-5.6984,-5.7138,-5.7188,-5.7206,-5.7206,-5.7188,-5.7188,-5.7138,-5.7138,-5.7138,-5.7087,-5.7036,-5.7087,-5.7087,-5.7206,-5.7206,-5.7156,-5.7156,-5.7156,-5.7156,-5.7138,-5.7138,-5.7138,-5.7188,-5.7188,-5.7188,-5.7188,-5.7188,-5.7188,-5.7188,-5.7188,-5.7188,-5.7188,-5.7188,-5.7188,-5.7188,-5.7188,-5.7188,-5.7188,-5.7188,-4.9284,-5.0109,-5.1356,-5.2203,-5.2957,-5.4841,-5.6083,-5.668,-5.6697,-5.6697,-5.6697,-5.6697,-5.6697,-5.6697,-5.6697,-5.6697,-5.6697,-5.6697,-5.6697,-5.6697,-5.6697,-5.6697,-5.6697,-5.6697,-5.6697,-5.6697,-5.6697,-5.6697,-5.6697,-5.6697,-5.6697,-5.6697,-5.6697,-5.6697,-5.6697,-5.6697,-5.6697,-5.6697,-5.6697,-5.6697,-5.6697,-5.6415,-5.6299,-5.6084,-5.5653,-5.5106,-5.4841,-5.4378,-5.3864,-5.3268,-5.3135,-5.2986,-5.239,-5.2837,-5.3235,-5.3937,-5.4749,-5.5448,-5.5877,-5.6535,-5.7032,-5.7248,-5.714,-5.7317,-5.7142,-5.6865,-5.6561,-5.6543,-5.6436,-5.6383,-5.6383,-5.6492,-5.66,-5.6742,-5.6847,-5.6933,-5.7036,-5.7105,-5.7105,-5.7105,-5.7087,-5.7087,-5.7054,-5.7054,-5.7003,-5.6951,-5.6951,-5.6951,-5.7003,-5.7105,-5.7105,-5.7054,-5.7054,-5.7054,-5.7003,-5.6984,-5.7036,-5.7036,-5.7138,-5.7188,-5.7188,-5.7188,-5.7188,-5.7188,-5.7188,-5.7188,-5.7188,-5.7188,-5.7188,-5.7188,-5.7188,-5.7188,-5.7188,-5.7188,-5.7188,-4.8506,-4.9029,-5.0167,-5.0992,-5.193,-5.3914,-5.5149,-5.5668,-5.6352,-5.6697,-5.6697,-5.6697,-5.6697,-5.6697,-5.6697,-5.6697,-5.6697,-5.6697,-5.6697,-5.6697,-5.6697,-5.6697,-5.6697,-5.6697,-5.6697,-5.6697,-5.6697,-5.6697,-5.6697,-5.6697,-5.6697,-5.6697,-5.6697,-5.6697,-5.6697,-5.6697,-5.6697,-5.6697,-5.6697,-5.6697,-5.6697,-5.6697,-5.6697,-5.6614,-5.6166,-5.5968,-5.5653,-5.5106,-5.461,-5.398,-5.3864,-5.3682,-5.3284,-5.3699,-5.4195,-5.4817,-5.5205,-5.5716,-5.6169,-5.6775,-5.6986,-5.7141,-5.7452,-5.7789,-5.7718,-5.7441,-5.7127,-5.6954,-5.6633,-5.6383,-5.6437,-5.6437,-5.66,-5.6707,-5.6742,-5.6847,-5.6899,-5.7003,-5.7003,-5.6951,-5.6951,-5.6951,-5.6951,-5.6951,-5.6899,-5.6847,-5.6847,-5.6847,-5.6899,-5.6951,-5.6951,-5.6951,-5.6881,-5.6881,-5.6829,-5.6847,-5.6933,-5.7036,-5.7138,-5.7188,-5.7188,-5.7188,-5.7188,-5.7188,-5.7188,-5.7188,-5.7188,-5.7188,-5.7188,-5.7188,-5.7188,-5.7188,-5.7188,-5.7188,-5.7188,-4.8207,-4.8252,-4.8925,-5.0093,-5.1636,-5.3099,-5.3812,-5.4062,-5.5588,-5.6508,-5.6508,-5.6697,-5.6697,-5.6697,-5.6697,-5.6697,-5.6697,-5.6697,-5.6697,-5.6697,-5.6697,-5.6697,-5.6697,-5.6697,-5.6697,-5.6697,-5.6697,-5.6697,-5.6697,-5.6697,-5.6697,-5.6697,-5.6697,-5.6697,-5.6697,-5.6697,-5.6697,-5.6697,-5.6697,-5.6697,-5.6697,-5.6697,-5.6697,-5.6697,-5.6564,-5.6398,-5.5935,-5.5603,-5.5371,-5.4875,-5.4593,-5.456,-5.456,-5.4593,-5.504,-5.5438,-5.5745,-5.6053,-5.6454,-5.6986,-5.7308,-5.7535,-5.7721,-5.7959,-5.7875,-5.7747,-5.7433,-5.7469,-5.7257,-5.69,-5.6811,-5.658,-5.6546,-5.6653,-5.6707,-5.6742,-5.6794,-5.6865,-5.6847,-5.6847,-5.6847,-5.6847,-5.6794,-5.6812,-5.6742,-5.6742,-5.6689,-5.6689,-5.6742,-5.676,-5.6794,-5.6794,-5.6794,-5.6794,-5.6742,-5.6794,-5.6899,-5.6984,-5.7087,-5.7188,-5.7188,-5.7188,-5.7188,-5.7188,-5.7188,-5.7188,-5.7188,-5.7188,-5.7188,-5.7188,-5.7188,-5.7188,-5.7188,-5.7188,-5.7188,-4.7534,-4.7608,-4.8237,-4.9344,-5.0608,-5.1671,-5.2498,-5.302,-5.4147,-5.4985,-5.5652,-5.6336,-5.668,-5.6586,-5.668,-5.6697,-5.6697,-5.6697,-5.6697,-5.6697,-5.6697,-5.6697,-5.6697,-5.6697,-5.6697,-5.6697,-5.6697,-5.6697,-5.6697,-5.6697,-5.6697,-5.6697,-5.6697,-5.6697,-5.6697,-5.6697,-5.6697,-5.6697,-5.6697,-5.6697,-5.6697,-5.6697,-5.6697,-5.6697,-5.663,-5.663,-5.6365,-5.6365,-5.5984,-5.5521,-5.5405,-5.5371,-5.5355,-5.5371,-5.5736,-5.6266,-5.6365,-5.6481,-5.6641,-5.6894,-5.7046,-5.7239,-5.7392,-5.7705,-5.7895,-5.7712,-5.7741,-5.7917,-5.7843,-5.7469,-5.7112,-5.6793,-5.6527,-5.6563,-5.66,-5.66,-5.66,-5.6653,-5.6689,-5.6742,-5.6742,-5.6742,-5.6653,-5.6653,-5.6582,-5.6546,-5.6492,-5.6492,-5.6492,-5.6546,-5.66,-5.66,-5.6635,-5.6635,-5.6653,-5.6707,-5.6847,-5.6933,-5.7036,-5.7138,-5.7188,-5.7188,-5.7188,-5.7188,-5.7188,-5.7188,-5.7188,-5.7188,-5.7188,-5.7188,-5.7188,-5.7188,-5.7188,-5.7188,-5.7188,-4.7309,-4.7384,-4.8012,-4.8686,-4.9479,-5.0472,-5.1227,-5.1727,-5.2807,-5.3616,-5.4285,-5.5393,-5.6067,-5.6241,-5.6508,-5.6697,-5.6697,-5.6697,-5.6697,-5.6697,-5.6697,-5.6697,-5.6697,-5.6697,-5.6697,-5.6697,-5.6697,-5.6697,-5.6697,-5.6697,-5.6697,-5.6697,-5.6697,-5.6697,-5.6697,-5.6697,-5.6697,-5.6697,-5.6697,-5.6697,-5.6697,-5.6697,-5.6697,-5.6697,-5.6697,-5.6697,-5.6697,-5.6697,-5.6481,-5.62,-5.6117,-5.61,-5.61,-5.61,-5.6282,-5.6531,-5.6647,-5.6697,-5.6697,-5.6697,-5.6697,-5.6894,-5.6954,-5.7288,-5.784,-5.7755,-5.7725,-5.7852,-5.7846,-5.75,-5.7329,-5.6993,-5.6697,-5.6613,-5.6262,-5.607,-5.631,-5.6492,-5.6546,-5.6546,-5.66,-5.6546,-5.651,-5.6492,-5.6492,-5.6492,-5.6383,-5.6383,-5.6383,-5.6383,-5.6437,-5.6492,-5.6546,-5.6546,-5.6492,-5.6635,-5.6794,-5.6899,-5.7054,-5.7138,-5.7188,-5.7188,-5.7188,-5.7188,-5.7188,-5.7188,-5.7188,-5.7188,-5.7188,-5.7188,-5.7188,-5.7188,-5.7188,-5.7188,-5.7188,-4.7309,-4.7399,-4.7908,-4.8222,-4.8446,-4.9464,-5.0077,-5.0515,-5.1682,-5.2349,-5.268,-5.4216,-5.4968,-5.5555,-5.6241,-5.6508,-5.6697,-5.6697,-5.6697,-5.6697,-5.6697,-5.6697,-5.6697,-5.6697,-5.6697,-5.6697,-5.6697,-5.6697,-5.6697,-5.6697,-5.6697,-5.6697,-5.6697,-5.6697,-5.6697,-5.6697,-5.6697,-5.6697,-5.6697,-5.6697,-5.6697,-5.6697,-5.6697,-5.6697,-5.6697,-5.6697,-5.6697,-5.6697,-5.6697,-5.6647,-5.6581,-5.6547,-5.6547,-5.6531,-5.6564,-5.6697,-5.6697,-5.6697,-5.6697,-5.6697,-5.6697,-5.6757,-5.6697,-5.697,-5.752,-5.7628,-5.7613,-5.7587,-5.7612,-5.7639,-5.7411,-5.7263,-5.6912,-5.65,-5.6052,-5.5689,-5.5981,-5.625,-5.6308,-5.6308,-5.6364,-5.6364,-5.6401,-5.6383,-5.6383,-5.6383,-5.6383,-5.6383,-5.6383,-5.6383,-5.6437,-5.6437,-5.6437,-5.6437,-5.6383,-5.6582,-5.6794,-5.6899,-5.7003,-5.7087,-5.7188,-5.7188,-5.7188,-5.7188,-5.7188,-5.7188,-5.7188,-5.7188,-5.7188,-5.7188,-5.7188,-5.7188,-5.7188,-5.7188,-5.7188,-4.7309,-4.7324,-4.7444,-4.7788,-4.8282,-4.8581,-4.9239,-5.0152,-5.0515,-5.0953,-5.1683,-5.2575,-5.3773,-5.5296,-5.6257,-5.6603,-5.6508,-5.6508,-5.668,-5.6697,-5.6697,-5.6697,-5.6697,-5.6697,-5.6697,-5.6697,-5.6697,-5.6697,-5.6697,-5.6697,-5.6697,-5.6697,-5.6697,-5.6697,-5.6697,-5.6697,-5.6697,-5.6697,-5.668,-5.668,-5.6697,-5.6697,-5.6697,-5.6697,-5.6697,-5.6697,-5.6697,-5.6697,-5.6697,-5.6697,-5.6697,-5.6697,-5.6697,-5.6697,-5.6697,-5.6697,-5.6697,-5.6697,-5.6697,-5.6697,-5.6697,-5.6697,-5.6697,-5.6757,-5.703,-5.703,-5.7063,-5.7127,-5.7168,-5.7549,-5.7521,-5.7485,-5.7227,-5.6489,-5.5946,-5.5733,-5.5844,-5.5844,-5.5842,-5.5981,-5.6173,-5.6177,-5.6273,-5.6328,-5.6383,-5.6383,-5.6383,-5.6383,-5.6383,-5.6383,-5.6383,-5.6383,-5.6383,-5.6383,-5.6383,-5.6635,-5.6794,-5.6899,-5.7003,-5.7087,-5.7188,-5.7188,-5.7188,-5.7188,-5.7188,-5.7188,-5.7188,-5.7188,-5.7188,-5.7188,-5.7188,-5.7188,-5.7188,-5.7188,-5.7188]}]]